[[[{"header":{"parameterUnit":"kt","parameterCategory":2,"dx":1,"dy":1,"la1":29.587661999999998,"la2":31.0,"lo1":-88.76705300000003,"lo2":-86.6583820000003,"nx":115,"ny":88,"refTime":"2022-10-30T18:00:00:Z","depth":0,"parameterNumber":1,"parameterNumberName":"U-component_of_WINDS"},"data":[5.1423,5.2731,5.2711,5.3214,5.3958,5.42,5.3898,5.3415,5.3979,5.4649,5.5263,5.5132,5.4595,5.3425,5.522,5.8005,6.1434,6.3296,6.5013,6.6513,6.6701,6.6863,6.6863,6.6863,6.6863,6.6863,6.6863,6.6863,6.6863,6.6863,6.6863,6.6863,6.6863,6.6914,6.7066,6.7854,6.8782,6.9241,7.0123,7.0609,7.0216,6.9807,6.9441,6.9731,7.0337,7.0627,7.1234,7.2763,7.3423,7.3766,7.3687,7.4135,7.4557,7.4926,7.6443,7.8267,7.9753,8.1538,8.349,8.4903,8.5688,8.6641,8.6641,8.6641,8.6788,8.6788,8.7228,8.7404,8.7694,8.79,8.8188,8.8474,8.8617,8.8759,8.879,8.8932,8.9042,8.9042,8.9042,8.9042,8.9042,8.9042,8.9042,8.9073,8.9073,8.9134,8.9165,8.9786,8.994,9.1091,9.242,9.3401,9.424,9.4946,9.5248,9.5254,9.5229,9.4382,9.3808,9.3945,9.3907,9.3836,9.3119,9.1966,9.1485,9.145,9.0939,9.0535,9.0188,9.0256,8.9983,8.9839,9.0191,9.0426,9.0819,5.1584,5.1786,5.1846,5.2349,5.3194,5.3918,5.4119,5.4039,5.418,5.4308,5.4299,5.2246,5.2666,5.4173,5.6357,5.9188,6.1223,6.2192,6.4362,6.5773,6.626,6.633,6.6381,6.6635,6.6457,6.6431,6.666,6.6711,6.6863,6.6863,6.6863,6.6863,6.6863,6.6863,6.7219,6.7905,6.8769,6.9125,6.9875,7.0229,7.0065,6.9782,6.9231,6.9282,6.9572,6.9625,6.9651,7.0021,7.0073,7.0654,7.1577,7.2928,7.3932,7.5087,7.6731,7.9066,8.0733,8.2363,8.4138,8.5538,8.6166,8.6641,8.6641,8.6788,8.6788,8.7082,8.7694,8.8014,8.8157,8.8444,8.8759,8.8901,8.8901,8.9042,8.9042,8.9042,8.9042,8.9042,8.9042,8.9042,8.9042,8.9042,8.9073,8.9073,8.9134,8.9399,8.9614,9.0297,9.0936,9.1949,9.2952,9.3862,9.4256,9.3936,9.3835,9.3874,9.3979,9.3131,9.2553,9.2781,9.2704,9.1992,9.1177,9.0454,9.042,9.0427,8.9955,8.9785,8.9847,9.0044,8.9858,8.976,9.0092,9.0316,9.0773,5.1202,5.1645,5.1665,5.2168,5.2872,5.2832,5.2812,5.2812,5.2812,5.3093,5.3194,5.2108,5.1493,5.2211,5.2931,5.475,5.7156,5.9864,6.1894,6.3443,6.4017,6.4819,6.5009,6.4856,6.5161,6.5288,6.5618,6.633,6.6812,6.6812,6.6762,6.6863,6.6863,6.6889,6.7041,6.8182,6.8971,6.868,6.984,6.9173,6.7708,6.7599,6.7542,6.7515,6.7647,6.7964,6.8254,6.915,6.9599,7.0416,7.068,7.232,7.4064,7.5218,7.7806,8.0391,8.2378,8.38,8.5236,8.6315,8.6935,8.7112,8.7112,8.7258,8.7258,8.7694,8.8157,8.8301,8.8586,8.8759,8.8901,8.9042,8.9042,8.9042,8.9042,8.9042,8.9042,8.8889,8.8704,8.8674,8.8551,8.8551,8.8769,8.8908,8.9571,8.9834,9.138,9.226,9.1994,9.2361,9.3479,9.4177,9.4051,9.3773,9.2961,9.2621,9.2685,9.2072,9.1323,9.1382,9.1343,9.0358,8.9751,8.9983,8.9983,8.9744,8.9778,8.9785,8.9847,8.9749,8.9678,8.9546,8.9723,8.998,8.9748,5.1021,5.1625,5.1665,5.2027,5.257,5.2148,5.2027,5.1947,5.1564,5.1725,5.2107,5.1605,5.1118,5.0965,5.1428,5.2816,5.4697,5.7418,5.8341,6.0309,6.2154,6.3032,6.3018,6.3631,6.3739,6.3866,6.4348,6.5212,6.5568,6.5822,6.5999,6.5974,6.5847,6.5879,6.5956,6.6785,6.7386,6.7426,6.813,6.7659,6.6573,6.6021,6.5836,6.6091,6.617,6.6698,6.7278,6.8306,6.9388,7.0232,7.0495,7.1795,7.3899,7.5435,7.8182,8.1322,8.2575,8.3814,8.5156,8.6371,8.7198,8.758,8.758,8.7725,8.7983,8.8331,8.8617,8.8617,8.8759,8.8901,8.9042,8.9042,8.9042,8.9042,8.9042,8.9042,8.9042,8.8674,8.8414,8.809,8.7937,8.8122,8.8473,8.9007,8.9829,9.0798,9.2053,9.2775,9.2236,9.2194,9.3241,9.2705,9.2893,9.2755,9.1902,9.1387,9.1251,9.0705,9.0569,9.0262,9.0017,8.9785,8.9785,8.9812,8.9592,8.9462,8.9451,8.9472,8.9484,8.9466,8.9404,8.9257,8.9356,8.8904,8.8468,5.1584,5.1685,5.1665,5.1725,5.1866,5.2449,5.2731,5.2711,5.1202,5.0518,5.0679,5.0518,5.0478,5.0506,5.1293,5.2671,5.3776,5.5419,5.697,5.8852,6.0388,6.1386,6.1771,6.2611,6.2748,6.3281,6.3713,6.3866,6.3891,6.4221,6.4374,6.3815,6.4198,6.4583,6.484,6.5458,6.5561,6.5758,6.593,6.6257,6.5626,6.5827,6.5836,6.5801,6.5775,6.5959,6.6355,6.7014,6.7911,6.8359,6.8913,6.9757,7.1472,7.3146,7.5152,7.7915,8.2194,8.3705,8.5124,8.6751,8.7519,8.7755,8.79,8.7801,8.7519,8.7761,8.781,8.795,8.7797,8.7937,8.7906,8.7906,8.7937,8.7937,8.7906,8.7906,8.7752,8.7384,8.703,8.681,8.6791,8.7122,8.7461,8.909,8.9948,8.9354,9.0155,9.1469,9.1445,9.1782,9.1638,9.0718,9.0914,9.0948,9.0529,9.0563,9.0188,9.0017,8.9955,8.9717,8.9266,8.9437,8.9717,8.9276,8.8821,8.8885,8.8841,8.8594,8.8557,8.8875,8.9052,8.8861,8.8328,8.7643,8.7267,5.2449,5.2389,5.1886,5.1665,5.1625,5.1444,5.1705,5.2027,5.1444,5.1122,5.1102,5.1122,5.0518,4.9968,5.0496,5.1141,5.1569,5.3409,5.517,5.6555,5.8251,5.9301,6.0326,6.1129,6.1681,6.1833,6.2087,6.257,6.2799,6.3053,6.3638,6.3715,6.3996,6.4174,6.435,6.4446,6.4279,6.4018,6.3863,6.3902,6.3823,6.3823,6.3902,6.3797,6.3797,6.4298,6.4904,6.5168,6.646,6.77,6.8808,7.0073,7.27,7.4966,7.7227,8.0906,8.3853,8.4767,8.5294,8.7126,8.7778,8.8188,8.8474,8.762,8.7027,8.6677,8.6785,8.6984,8.68,8.6708,8.6647,8.6616,8.6647,8.6677,8.6647,8.6616,8.6445,8.6076,8.5791,8.544,8.5617,8.594,8.7158,8.8741,8.9694,8.9629,9.0166,9.106,9.1368,9.1293,9.0438,8.9983,8.9819,8.9683,8.9853,8.9955,8.971,8.9505,8.9239,8.8857,8.8516,8.8473,8.8371,8.8158,8.8042,8.8142,8.8381,8.8003,8.7827,8.8333,8.8619,8.8241,8.7561,8.709,8.7021,5.2993,5.2932,5.2309,5.2027,5.1926,5.1363,5.1423,5.1987,5.2027,5.2047,5.2027,5.2027,5.1303,4.9814,4.9512,4.9645,5.0114,5.0814,5.2655,5.4143,5.6024,5.7578,5.868,5.938,5.9844,6.0441,6.097,6.1427,6.1655,6.1986,6.2594,6.3075,6.2691,6.3119,6.3618,6.4193,6.3494,6.3164,6.29,6.2874,6.2821,6.2847,6.2821,6.2847,6.2874,6.3164,6.3849,6.4219,6.5722,6.7252,6.8465,7.0152,7.3156,7.519,7.7887,8.2434,8.5089,8.6204,8.5895,8.6748,8.7184,8.7241,8.7351,8.6493,8.5725,8.5234,8.5295,8.551,8.5572,8.5725,8.5756,8.5694,8.5664,8.5694,8.5664,8.5676,8.5637,8.5236,8.4874,8.4746,8.492,8.5358,8.6308,8.7862,8.928,9.0053,9.0609,9.0894,9.1069,9.0467,8.9949,8.9819,8.9717,8.9342,8.941,8.9028,8.8959,8.8755,8.814,8.7594,8.7335,8.7085,8.6891,8.7013,8.749,8.7694,8.7749,8.7515,8.7098,8.7612,8.8065,8.748,8.7163,8.7514,8.7606,5.2642,5.2993,5.2973,5.2912,5.2912,5.2651,5.2711,5.3036,5.2892,5.2912,5.2892,5.2832,5.2188,5.1403,5.0619,5.0472,5.0947,5.0531,5.1823,5.3201,5.5142,5.6048,5.7342,5.8447,5.9704,6.0193,6.069,6.1325,6.0461,6.1147,6.102,6.0812,6.1481,6.1825,6.2261,6.2813,6.2863,6.2742,6.2531,6.2531,6.2531,6.2531,6.2531,6.2531,6.2531,6.2715,6.3005,6.3835,6.53,6.6901,6.7985,6.9412,7.06,7.1151,7.2869,7.5899,8.0719,8.1734,8.2432,8.4648,8.5268,8.4963,8.5111,8.5111,8.4619,8.422,8.4036,8.4097,8.4036,8.4404,8.4589,8.4599,8.4507,8.464,8.464,8.4619,8.4573,8.4394,8.4124,8.4197,8.4344,8.5054,8.6056,8.6995,8.85,8.893,8.9039,8.9444,8.9088,8.8686,8.8599,8.8633,8.8633,8.866,8.8379,8.7731,8.7492,8.7301,8.6788,8.664,8.61,8.5865,8.5833,8.6167,8.6823,8.7123,8.6946,8.6749,8.6587,8.686,8.739,8.7349,8.8806,8.8829,8.8829,5.2476,5.2642,5.2993,5.3013,5.2912,5.2349,5.2107,5.2228,5.2731,5.3013,5.2973,5.2952,5.247,5.1765,5.1343,5.1539,5.1813,5.152,5.2256,5.49,5.611,5.6948,5.8598,6.0568,6.0478,6.1356,6.1833,6.1757,6.0995,6.1198,6.0842,6.048,6.084,6.117,6.1664,6.209,6.2346,6.232,6.2399,6.2425,6.2452,6.2531,6.2531,6.2531,6.2672,6.2725,6.2689,6.3359,6.4455,6.7075,6.9119,7.132,7.4275,7.6169,7.8055,7.925,8.1684,8.1514,8.221,8.4079,8.3561,8.2838,8.2346,8.2285,8.2285,8.2723,8.2531,8.2469,8.2162,8.2483,8.2711,8.2747,8.294,8.3446,8.3446,8.3508,8.3415,8.3415,8.3288,8.3534,8.382,8.4986,8.6053,8.6953,8.7559,8.7488,8.7435,8.6973,8.6639,8.6488,8.6497,8.6505,8.6573,8.6717,8.6594,8.6344,8.6126,8.5894,8.5846,8.5987,8.5437,8.5138,8.5027,8.5071,8.5698,8.6162,8.6066,8.6213,8.633,8.6545,8.6913,8.8262,9.0215,9.0268,8.9935,5.1051,5.1417,5.1763,5.2107,5.1987,5.1423,5.1202,5.1303,5.1765,5.2067,5.2087,5.2087,5.1705,5.1242,5.086,5.0957,5.1412,5.1408,5.2103,5.4362,5.5042,5.6809,5.8093,5.9171,6.0277,6.0777,6.1249,6.0995,6.0771,6.0264,6.0207,6.0557,6.0789,6.1171,6.1022,6.1232,6.1397,6.1449,6.1819,6.1977,6.203,6.2346,6.2531,6.2531,6.2813,6.3192,6.3785,6.4262,6.6014,6.8903,6.9401,7.1943,7.5166,7.6318,7.8641,8.0291,8.1196,8.1326,8.2439,8.2847,8.2592,8.1701,8.1118,8.1277,8.1286,8.1224,8.1224,8.1378,8.1625,8.1818,8.1667,8.1792,8.204,8.2468,8.2649,8.2649,8.2391,8.2359,8.2567,8.2804,8.3476,8.4709,8.5437,8.6183,8.654,8.6539,8.6386,8.5945,8.5579,8.524,8.5092,8.5068,8.516,8.5125,8.5085,8.5246,8.5144,8.4704,8.4662,8.4939,8.4939,8.4684,8.4671,8.4924,8.5109,8.5283,8.5744,8.6185,8.6197,8.6402,8.684,8.7916,8.9429,9.0138,9.0451,4.8843,4.9692,4.9771,5.0045,4.9885,5.0236,5.0277,5.0317,5.0478,5.0558,5.0619,5.0578,5.0478,5.0317,4.9935,5.025,5.0607,5.0771,5.1245,5.2496,5.3581,5.4442,5.5773,5.7294,5.8795,5.859,5.9598,6.003,5.8946,5.9242,5.9394,5.9742,6.0136,6.0045,5.8749,5.9021,5.9181,5.934,6.0368,6.0685,6.0975,6.1581,6.1845,6.2011,6.2375,6.3106,6.3947,6.4495,6.6546,6.9377,6.997,7.1866,7.4852,7.5528,7.6809,7.844,7.9071,7.9851,8.0737,8.0583,8.0493,7.9972,7.9828,8.0265,8.12,8.1418,8.1108,8.0735,8.1108,8.1294,8.1636,8.1636,8.1879,8.2207,8.2321,8.225,8.1725,8.1492,8.1806,8.2149,8.3188,8.4204,8.4913,8.5368,8.5621,8.5376,8.5284,8.512,8.485,8.4625,8.4483,8.4518,8.4518,8.43,8.3973,8.4123,8.4119,8.3377,8.3334,8.3906,8.4067,8.5029,8.5269,8.4869,8.5491,8.6502,8.6483,8.6088,8.6237,8.6347,8.673,8.7642,8.8607,8.9704,9.0559,4.688,4.7419,4.9239,4.855,4.6285,4.6978,4.8139,4.9339,4.9995,5.0317,5.0317,5.0317,5.0317,5.0257,4.9955,5.025,5.0671,5.0976,5.1618,5.2373,5.3201,5.4588,5.5933,5.7139,5.8021,5.9299,5.9953,5.9935,5.9098,5.9146,5.8686,5.8583,5.8793,5.8972,5.8491,5.8808,5.9129,5.9129,5.9498,5.9603,5.9603,6.0052,6.0263,6.0425,6.1074,6.2095,6.3229,6.4343,6.6177,6.8192,6.9978,7.1437,7.3384,7.5362,7.6665,7.7816,7.8742,7.8996,7.939,7.85,7.6407,7.7657,7.801,7.8601,7.8782,7.8903,7.9759,7.9723,7.9717,7.9585,8.0139,8.0433,8.0794,8.1428,8.1512,8.1321,8.0816,8.0658,8.0961,8.1478,8.2757,8.3913,8.443,8.4806,8.4411,8.3437,8.3493,8.351,8.3491,8.3629,8.3647,8.3801,8.392,8.3432,8.287,8.3331,8.3691,8.3173,8.3648,8.3825,8.4731,8.6369,8.7075,8.6282,8.6491,8.7579,8.7149,8.5872,8.5836,8.6328,8.7458,8.8442,8.9374,8.9992,9.0833,4.3561,4.3918,4.5867,4.5267,4.3187,4.4027,4.55,4.7374,4.7978,4.8581,4.9271,4.9311,4.9311,4.9271,4.9483,4.9806,5.0169,5.0701,5.0958,5.1993,5.2809,5.3618,5.4624,5.602,5.7545,5.6968,5.7943,5.8501,5.7911,5.7501,5.7138,5.7083,5.6993,5.7285,5.7469,5.7363,5.7573,5.7731,5.81,5.8417,5.8496,5.8839,5.9475,5.9607,6.0185,6.1433,6.2572,6.3676,6.5644,6.7795,6.9322,7.1053,7.3076,7.3794,7.503,7.6463,7.6228,7.6684,7.6909,7.6294,7.525,7.6192,7.6941,7.7842,7.8769,7.8581,7.8687,7.874,7.9044,7.9349,7.9489,7.9506,7.9603,8.0239,8.0414,8.0253,7.9932,7.9783,8.0011,8.0479,8.1817,8.3158,8.363,8.4092,8.2851,8.1846,8.1755,8.1864,8.2188,8.2477,8.265,8.2835,8.3101,8.2855,8.2864,8.3077,8.3244,8.3755,8.4207,8.474,8.5416,8.7164,8.7767,8.7521,8.7402,8.7477,8.6858,8.5609,8.5569,8.6377,8.7603,8.8816,8.9685,9.0376,9.0257,3.9327,3.9679,4.003,4.0729,4.1234,4.1216,4.2653,4.4857,4.4819,4.5764,4.6934,4.7448,4.7608,4.7862,4.8338,4.8611,4.8593,4.9355,4.9914,5.0078,5.0379,5.1504,5.2493,5.3183,5.3287,5.3129,5.4722,5.4807,5.4047,5.5779,5.5945,5.6083,5.5876,5.5605,5.5706,5.6201,5.6148,5.6307,5.6491,5.686,5.7143,5.8193,5.9195,5.9587,6.0893,6.253,6.3779,6.5247,6.6905,6.8115,6.904,7.0518,7.1375,7.1952,7.2883,7.4059,7.4148,7.3867,7.3756,7.3852,7.5577,7.6811,7.7247,7.7166,7.7958,7.8885,7.9156,7.8806,7.8487,7.8821,7.9013,7.9268,7.9057,7.9256,7.9043,7.8925,7.8921,7.8864,7.9313,7.9593,8.0427,8.1706,8.2292,8.3008,8.2256,8.2024,8.1958,8.2085,8.2165,8.2333,8.2411,8.2272,8.2574,8.2593,8.2704,8.2441,8.2161,8.2494,8.3593,8.4684,8.572,8.671,8.7567,8.7477,8.7805,8.7205,8.6656,8.6389,8.6364,8.6791,8.7216,8.8008,8.8847,8.9618,8.9494,3.6684,3.5278,3.6193,3.7413,3.8815,3.9713,4.106,4.2671,4.2825,4.3187,4.3891,4.5083,4.6471,4.7348,4.7701,4.818,4.8511,4.8985,4.9335,4.9847,5.0174,5.064,5.1266,5.23,5.2308,5.1579,5.32,5.3991,5.4146,5.4682,5.4996,5.5302,5.5374,5.5469,5.5568,5.5568,5.5568,5.5542,5.5278,5.4918,5.4806,5.5744,5.6487,5.7666,5.9237,6.1308,6.2685,6.4637,6.6077,6.7093,6.7798,6.861,6.9523,6.9856,7.0706,7.1978,7.233,7.1749,7.0773,7.0601,7.0972,7.2077,7.3083,7.472,7.6093,7.6418,7.6589,7.7403,7.7478,7.7382,7.7189,7.7317,7.7617,7.7713,7.7829,7.7794,7.781,7.8512,7.9108,7.9723,8.0411,8.1129,8.1197,8.1927,8.2119,8.2165,8.2279,8.2324,8.2567,8.2803,8.2704,8.2318,8.2298,8.1881,8.1878,8.1547,8.0985,8.1246,8.2689,8.3931,8.501,8.5999,8.7059,8.7916,8.85,8.8025,8.7411,8.7398,8.7391,8.7579,8.7803,8.7979,8.815,8.8627,8.8915,3.4253,3.3236,3.3782,3.481,3.621,3.6717,3.825,4.0229,4.047,4.1162,4.229,4.4043,4.5422,4.6471,4.7681,4.8159,4.8676,4.917,4.952,5.001,5.0195,5.0337,5.0598,5.1223,5.1224,5.0929,5.2187,5.3233,5.342,5.3645,5.4789,5.5511,5.5479,5.5443,5.5568,5.5568,5.5568,5.5384,5.5086,5.4616,5.49,5.5756,5.6979,5.774,5.9735,6.1318,6.27,6.4229,6.5231,6.5231,6.6585,6.7036,6.7177,6.7875,6.8594,7.0218,7.0322,6.982,6.8796,6.8917,7.0173,7.1202,7.1939,7.2602,7.447,7.5633,7.6226,7.6306,7.6338,7.6435,7.6499,7.6371,7.6371,7.661,7.7173,7.7423,7.7957,7.8446,7.8848,7.9801,8.065,8.0097,7.9873,8.0118,8.0107,8.023,8.0519,8.0733,8.1162,8.1698,8.1805,8.1807,8.149,8.1359,8.1334,8.1507,8.1237,8.2171,8.3605,8.4377,8.507,8.5562,8.6566,8.7515,8.8181,8.8362,8.8252,8.811,8.8129,8.83,8.8515,8.8681,8.8844,8.9096,8.9108,3.2173,3.2359,3.253,3.3029,3.3756,3.4127,3.5613,3.7804,3.7837,3.9233,4.0832,4.2804,4.3765,4.4607,4.6332,4.7917,4.8572,4.8935,4.9195,4.9496,4.9721,4.9721,4.9912,5.0039,4.9465,4.9102,5.0644,5.1228,5.1731,5.2678,5.427,5.5591,5.5378,5.529,5.5568,5.5568,5.5568,5.5568,5.5667,5.5882,5.6284,5.751,5.8883,6.0079,6.1311,6.2427,6.3526,6.4779,6.5118,6.4525,6.6021,6.6405,6.5839,6.6489,6.7016,6.7206,6.7407,6.7848,6.8385,6.8574,6.9378,7.024,7.1092,7.2511,7.3417,7.438,7.503,7.5855,7.5797,7.5572,7.5513,7.5835,7.5862,7.5841,7.582,7.6481,7.7193,7.697,7.8017,7.8962,7.9656,7.9217,7.876,7.8492,7.8217,7.85,7.878,7.8886,7.9133,7.9519,7.966,8.0325,8.0303,8.122,8.1594,8.2086,8.2534,8.3699,8.467,8.549,8.5709,8.5892,8.6693,8.7045,8.752,8.7871,8.8276,8.8621,8.8826,8.8915,8.8931,8.9181,8.9317,8.9432,8.9432,3.1987,3.2001,3.2843,3.3184,3.3525,3.4035,3.4775,3.5223,3.5424,3.5858,3.6447,3.8151,3.9855,4.1124,4.2977,4.497,4.6855,4.7232,4.7808,4.8184,4.8341,4.8235,4.8192,4.8044,4.7895,4.7542,4.8871,5.0005,5.0488,5.2078,5.3548,5.4583,5.5452,5.5568,5.5568,5.5568,5.5568,5.5819,5.6042,5.5905,5.5894,5.7263,5.9299,6.0927,6.3227,6.4159,6.4441,6.5428,6.5767,6.5952,6.6478,6.7004,6.6976,6.7377,6.6806,6.5547,6.5145,6.5418,6.5956,6.641,6.7183,6.8122,6.8078,6.9336,7.0699,7.1816,7.2278,7.3057,7.3416,7.3578,7.3937,7.3743,7.3775,7.3808,7.4035,7.4224,7.5075,7.6173,7.7213,7.7512,7.8571,7.8565,7.8148,7.7798,7.7447,7.7689,7.7618,7.7689,7.7618,7.7865,7.7966,7.865,7.9565,8.0672,8.205,8.2596,8.3598,8.4617,8.5451,8.6011,8.6157,8.6304,8.6422,8.6769,8.7124,8.7131,8.8321,8.8942,8.8342,8.8209,8.9029,8.9167,8.861,8.8543,8.8699,3.0236,3.1253,3.1918,3.2416,3.2746,3.3242,3.3756,3.405,3.4096,3.425,3.5141,3.6547,3.7844,3.8982,4.0615,4.2709,4.4691,4.5612,4.6629,4.7598,4.7598,4.7598,4.7662,4.764,4.7237,4.718,4.7285,4.8117,4.9415,5.0979,5.2456,5.3734,5.453,5.5038,5.5416,5.5489,5.5694,5.6255,5.6949,5.7473,5.78,5.9332,6.0843,6.1854,6.2945,6.3566,6.4074,6.5019,6.509,6.475,6.5469,6.5452,6.5376,6.5567,6.5966,6.5135,6.4966,6.5027,6.5118,6.5118,6.5328,6.6116,6.6205,6.7258,6.8556,6.9668,7.0711,7.1725,7.2219,7.2737,7.2735,7.2963,7.2865,7.2961,7.3341,7.3775,7.4404,7.547,7.5366,7.5018,7.6112,7.6815,7.6844,7.6879,7.6668,7.6562,7.6492,7.6351,7.621,7.6172,7.6093,7.6836,7.7774,7.9775,8.2596,8.3269,8.424,8.5221,8.6032,8.6339,8.6486,8.6769,8.683,8.6319,8.594,8.5729,8.6674,8.7258,8.7107,8.6917,8.7064,8.7203,8.7286,8.7514,8.7587,2.7961,2.96,3.0436,3.092,3.1387,3.2042,3.2746,3.3355,3.3401,3.3725,3.4278,3.5839,3.6386,3.7223,3.8708,4.0462,4.2353,4.3892,4.5267,4.6724,4.6876,4.6855,4.6791,4.6749,4.6855,4.6944,4.6906,4.7131,4.8304,4.9241,5.1014,5.2657,5.3096,5.3501,5.4254,5.5074,5.5093,5.5916,5.7592,5.8648,5.9525,6.0987,6.242,6.2822,6.2466,6.2758,6.3295,6.3542,6.3182,6.2449,6.3518,6.3295,6.2988,6.366,6.4214,6.4158,6.41,6.41,6.4159,6.4392,6.4743,6.4918,6.4886,6.5575,6.6777,6.7864,6.8399,6.9745,7.0864,7.1828,7.2213,7.1884,7.2177,7.2336,7.2571,7.3206,7.3777,7.4498,7.4667,7.3728,7.402,7.4626,7.5014,7.526,7.5295,7.5436,7.5401,7.533,7.5951,7.6112,7.5913,7.6393,7.6837,8.0035,8.2978,8.3793,8.4847,8.5863,8.6505,8.681,8.6524,8.6967,8.6501,8.5381,8.4754,8.4767,8.4755,8.4935,8.5195,8.5783,8.5328,8.482,8.5455,8.6147,8.6245,2.5298,2.564,2.7635,2.8775,2.9396,3.1211,3.2278,3.2706,3.2691,3.2861,3.2845,3.2991,3.4288,3.5241,3.5733,3.7061,3.9095,4.0985,4.3314,4.5033,4.5349,4.5349,4.5411,4.5348,4.5263,4.5281,4.5938,4.6581,4.7408,4.8677,4.9506,5.0011,5.0239,5.1186,5.18,5.2536,5.4101,5.5692,5.7775,5.9307,5.9503,6.1609,6.281,6.303,6.2617,6.2918,6.3153,6.3539,6.3775,6.3896,6.4282,6.3339,6.2097,6.1718,6.1776,6.2006,6.2466,6.2696,6.2868,6.2746,6.2799,6.2675,6.2764,6.3367,6.4233,6.5127,6.5845,6.6801,6.8107,6.9149,6.9701,7.0151,7.0052,7.0043,7.0582,7.1007,7.1334,7.188,7.2749,7.2558,7.2965,7.3289,7.3535,7.3465,7.3958,7.431,7.441,7.4757,7.624,7.7053,7.7707,7.82,7.9223,8.1796,8.3037,8.3898,8.5427,8.6385,8.7067,8.6664,8.6041,8.5827,8.5152,8.4166,8.3549,8.3934,8.3968,8.3517,8.3724,8.4623,8.4415,8.3538,8.3859,8.4663,8.5545,2.3423,2.4599,2.7165,2.8436,2.891,3.1051,3.2361,3.2361,3.2521,3.2521,3.2521,3.2521,3.2824,3.3601,3.3759,3.4703,3.6557,3.8366,4.0784,4.3233,4.3839,4.413,4.4524,4.4286,4.3692,4.3428,4.454,4.5046,4.564,4.6548,4.7646,4.845,4.9118,4.9656,5.1121,5.298,5.4179,5.5885,5.8345,5.9908,6.0144,6.2118,6.303,6.2296,6.1776,6.1675,6.1998,6.2324,6.2412,6.2472,6.256,6.2184,6.137,6.1195,6.1308,6.1532,6.1784,6.1895,6.1976,6.2086,6.2188,6.2445,6.2386,6.2761,6.316,6.3943,6.4491,6.5171,6.6419,6.7926,6.9068,6.9211,6.8718,6.8553,6.9133,6.9695,6.9571,6.9759,7.0302,7.1048,7.1625,7.1852,7.181,7.1388,7.181,7.3452,7.3558,7.4244,7.5755,7.7143,7.8192,7.9762,8.1077,8.2158,8.3024,8.4052,8.5551,8.5955,8.6351,8.5784,8.4765,8.4162,8.3696,8.2503,8.1329,8.1966,8.2535,8.1978,8.1766,8.2294,8.2423,8.2113,8.2016,8.2284,8.3232,2.1481,2.3118,2.576,2.7066,2.7736,3.0293,3.1564,3.1586,3.2054,3.215,3.2119,3.2227,3.2258,3.2274,3.292,3.3474,3.4893,3.6867,3.869,4.1925,4.2498,4.3402,4.3334,4.3233,4.2673,4.2814,4.3052,4.3853,4.4293,4.5187,4.5813,4.7009,4.7589,4.8854,5.0295,5.214,5.4744,5.618,5.8468,5.994,6.0646,6.1676,6.1732,6.0942,6.0303,6.017,6.0544,6.0828,6.0652,6.0387,6.0353,6.0464,6.0261,6.0261,6.0342,6.0641,6.0867,6.1035,6.1311,6.1349,6.1635,6.1611,6.1522,6.1985,6.2138,6.2734,6.3072,6.3672,6.5055,6.6029,6.7024,6.7845,6.7514,6.7059,6.7656,6.8204,6.778,6.8059,6.8793,6.9352,6.968,6.9769,7.0226,7.0613,7.1274,7.2281,7.3112,7.3759,7.5083,7.6511,7.8206,8.0081,8.1268,8.2156,8.2821,8.346,8.4213,8.445,8.4669,8.4377,8.2974,8.2132,8.1749,8.0783,7.9698,7.9864,8.0649,8.0252,8.0487,8.0057,7.9945,8.0225,8.0367,7.9984,8.0555,1.8494,1.8812,2.0752,2.218,2.3864,2.6924,2.897,2.9393,3.0747,3.1148,3.0856,3.1378,3.1439,3.1656,3.27,3.3743,3.4042,3.6331,3.7934,3.9261,4.0957,4.1961,4.1237,4.1437,4.1866,4.2592,4.4116,4.4551,4.4493,4.4583,4.498,4.5165,4.5184,4.5769,4.7694,5.057,5.2726,5.4877,5.7525,5.9223,5.9837,5.9926,5.9955,5.9677,5.9569,5.98,6.0397,6.0706,6.0092,5.8021,5.7905,5.8244,5.8426,5.8127,5.8339,5.8771,5.9023,5.9173,5.9143,5.9617,5.9643,5.9762,5.9703,5.9434,5.9865,6.0056,6.023,6.0391,6.0769,6.2358,6.3464,6.4655,6.5297,6.5429,6.576,6.5837,6.5572,6.6742,6.8141,6.8783,6.9399,7.0358,7.1169,7.1838,7.2183,7.2794,7.374,7.4836,7.6275,7.7017,7.8372,7.9919,8.0862,8.1912,8.2251,8.255,8.2592,8.2727,8.2836,8.2585,8.1216,8.0754,8.0154,7.9856,7.972,7.9681,7.9649,7.962,7.9735,7.9562,7.9483,7.9356,7.9235,7.9171,7.9403,1.7791,1.7965,2.0677,2.2034,2.2992,2.5982,2.7522,2.7994,2.8622,2.9035,2.9538,2.9747,3.0308,3.0915,3.2139,3.2756,3.3348,3.4989,3.6051,3.6627,3.8516,3.9394,3.9757,4.0259,4.0894,4.1397,4.2691,4.3366,4.3446,4.3744,4.3779,4.3953,4.4392,4.5534,4.6794,5.0627,5.34,5.5087,5.7634,5.9213,5.9334,5.877,5.8546,5.849,5.8207,5.8173,5.8553,5.8909,5.869,5.7818,5.7498,5.7603,5.7708,5.7708,5.7917,5.8302,5.8507,5.8682,5.8915,5.9016,5.9046,5.9016,5.9046,5.9046,5.8956,5.9046,5.9046,5.9127,6.0049,6.1109,6.2219,6.3492,6.4099,6.3959,6.3551,6.3267,6.3258,6.4553,6.5858,6.7204,6.822,6.9105,7.0567,7.0993,7.1988,7.3314,7.4313,7.5752,7.7282,7.7673,7.8246,7.8765,7.9544,7.9991,8.0324,8.0467,8.0492,8.0677,8.0823,8.0779,8.0133,8.0006,7.9735,7.9759,7.969,7.964,7.9598,7.9546,7.9387,7.9251,7.9329,7.9203,7.9003,7.8886,7.9315,1.7073,1.7557,1.9971,2.1347,2.2125,2.4535,2.5815,2.627,2.6585,2.7325,2.7804,2.7969,2.8553,2.9478,3.0852,3.1837,3.2658,3.3835,3.464,3.5166,3.5824,3.6409,3.7303,3.8361,3.9227,4.0139,4.1262,4.2087,4.2474,4.2977,4.3195,4.3148,4.4319,4.5501,4.6852,5.0011,5.2706,5.4282,5.6683,5.7951,5.8093,5.7613,5.7329,5.7438,5.6983,5.6911,5.6997,5.7287,5.7323,5.6625,5.6583,5.6686,5.6643,5.6774,5.689,5.7163,5.7553,5.7712,5.7811,5.7652,5.7582,5.7642,5.7045,5.7411,5.7642,5.7871,5.8099,5.8395,5.8919,5.9808,6.0814,6.158,6.2217,6.2286,6.1787,6.1531,6.2273,6.3534,6.5037,6.6346,6.774,6.9164,7.045,7.1181,7.2072,7.3544,7.4545,7.5449,7.6983,7.7725,7.8135,7.832,7.8431,7.8497,7.852,7.8574,7.8813,7.9202,7.9461,7.9663,7.9682,7.9599,7.9595,7.9581,7.9476,7.9394,7.9377,7.9175,7.8976,7.8725,7.8597,7.8281,7.823,7.8236,7.8577,1.5906,1.6955,1.7131,1.8079,1.9612,2.1439,2.2973,2.4193,2.5382,2.5973,2.5987,2.6121,2.6254,2.7117,2.9547,3.0795,3.1593,3.3382,3.4521,3.4489,3.3986,3.3596,3.4125,3.5818,3.7806,3.942,4.0668,4.1842,4.2884,4.3125,4.3148,4.3128,4.4079,4.4579,4.4709,4.7616,4.9989,5.1015,5.3165,5.5158,5.6228,5.6139,5.63,5.6272,5.6532,5.6545,5.6642,5.6928,5.6189,5.434,5.4449,5.4763,5.4694,5.4605,5.5102,5.5605,5.5212,5.5456,5.5241,5.4997,5.4391,5.4322,5.4054,5.335,5.4489,5.5212,5.5724,5.6389,5.6485,5.6857,5.7726,5.8197,5.8844,5.9772,6.0256,6.0725,6.1948,6.527,6.6611,6.6709,6.8406,7.0603,7.2011,7.2344,7.335,7.4831,7.58,7.6388,7.7377,7.7874,7.8246,7.8394,7.8468,7.8534,7.8673,7.8755,7.899,7.9328,7.9471,7.9609,7.962,7.9473,7.9344,7.9273,7.9172,7.9117,7.9003,7.8579,7.8306,7.8084,7.7726,7.7244,7.7064,7.7064,7.7241,1.3778,1.4681,1.5269,1.5863,1.6927,1.8958,2.0384,2.1144,2.2601,2.3635,2.423,2.4362,2.4783,2.6006,2.7458,2.8423,2.8884,3.1157,3.2314,3.2316,3.2738,3.3271,3.3521,3.4966,3.7127,3.9524,4.0668,4.172,4.3148,4.3125,4.2821,4.2378,4.2962,4.3188,4.3231,4.6067,4.8725,5.036,5.2524,5.4509,5.5544,5.5284,5.507,5.5272,5.4877,5.4707,5.4853,5.5055,5.4589,5.3932,5.3894,5.4147,5.4466,5.4532,5.4724,5.4914,5.5009,5.4789,5.4155,5.4059,5.3767,5.3218,5.3119,5.3444,5.3669,5.3865,5.4377,5.5073,5.5291,5.5911,5.7079,5.7429,5.7743,5.8587,5.8803,5.9323,6.0487,6.3402,6.5586,6.7753,6.9625,7.1865,7.3601,7.4336,7.5137,7.6023,7.6752,7.7341,7.7871,7.8172,7.8283,7.8394,7.8503,7.8664,7.8793,7.899,7.9225,7.9355,7.949,7.9535,7.9488,7.9294,7.9084,7.8983,7.8736,7.8671,7.8324,7.7944,7.754,7.7332,7.71,7.6734,7.6408,7.6295,7.5807,1.2281,1.3494,1.3927,1.4524,1.5426,1.6891,1.8021,1.8881,2.0362,2.154,2.2273,2.2869,2.3654,2.4674,2.5744,2.6451,2.6874,2.8413,2.9523,3.0244,3.1732,3.2814,3.3503,3.4437,3.6109,3.8133,3.9273,4.069,4.2109,4.2474,4.2535,4.2237,4.2326,4.2333,4.2237,4.4844,4.6994,4.8978,5.1409,5.3324,5.4688,5.4111,5.3994,5.4187,5.3726,5.3462,5.3572,5.3572,5.3699,5.3796,5.3923,5.4214,5.4407,5.4503,5.4348,5.4377,5.4252,5.3806,5.3317,5.3346,5.2979,5.265,5.265,5.295,5.3148,5.3375,5.3894,5.4539,5.4949,5.5388,5.6605,5.7079,5.7285,5.7547,5.7774,5.8411,5.9704,6.1512,6.4186,6.754,7.0664,7.2888,7.445,7.5275,7.5758,7.6561,7.6996,7.7525,7.8132,7.8357,7.8394,7.846,7.8734,7.8913,7.9065,7.9273,7.9382,7.943,7.9455,7.9492,7.9294,7.9084,7.8877,7.8681,7.833,7.801,7.7649,7.7244,7.6847,7.6579,7.6002,7.5843,7.579,7.5333,7.4622,1.1505,1.3165,1.3337,1.3912,1.483,1.5269,1.6237,1.7728,1.9449,2.0217,2.0693,2.1748,2.2524,2.2867,2.4335,2.525,2.5576,2.6236,2.7212,2.8335,2.9894,3.1559,3.2975,3.3357,3.4022,3.4928,3.635,3.8536,4.1083,4.1329,4.1995,4.3036,4.2561,4.1877,4.1319,4.3783,4.5226,4.6422,4.9019,5.1011,5.2016,5.2762,5.3037,5.3151,5.3578,5.3717,5.3601,5.3572,5.3796,5.3923,5.402,5.4311,5.4599,5.4126,5.3582,5.3611,5.2664,5.2363,5.2521,5.1914,5.184,5.1737,5.1532,5.1607,5.2348,5.2808,5.3404,5.4126,5.4765,5.5358,5.5636,5.6095,5.6397,5.6607,5.7167,5.8109,5.9362,6.0225,6.2269,6.6708,7.1098,7.3787,7.4193,7.4831,7.574,7.6525,7.6871,7.7276,7.8171,7.8505,7.8534,7.8642,7.8906,7.9115,7.9329,7.9471,7.9439,7.9405,7.933,7.9289,7.9053,7.8661,7.8436,7.8164,7.7801,7.7033,7.6645,7.5857,7.5627,7.5291,7.474,7.4279,7.4046,7.3681,7.3147,0.9052,1.0514,1.0967,1.1515,1.2437,1.3785,1.5015,1.609,1.8729,2.0134,2.061,2.1779,2.2626,2.3152,2.3351,2.3516,2.3347,2.4499,2.5306,2.596,2.7847,2.9277,3.0306,3.1713,3.2657,3.3642,3.5698,3.8281,4.069,4.096,4.1479,4.2191,4.1592,4.1215,4.1332,4.2886,4.483,4.6565,4.8863,5.0928,5.2464,5.2836,5.3007,5.345,5.4402,5.4531,5.3601,5.3572,5.3796,5.402,5.4214,5.4436,5.4789,5.4664,5.4473,5.4185,5.3796,5.3177,5.2348,5.2275,5.2072,5.1429,5.0937,5.1069,5.2027,5.1588,5.2202,5.3206,5.3894,5.4444,5.5078,5.5142,5.5048,5.5112,5.5668,5.6399,5.6884,5.8009,6.0615,6.4646,6.9672,7.2939,7.4063,7.4831,7.5753,7.667,7.6955,7.7482,7.8319,7.8654,7.872,7.8925,7.915,7.9292,7.9357,7.9381,7.9286,7.9076,7.8983,7.895,7.8723,7.8244,7.7864,7.7549,7.7056,7.6226,7.5411,7.4511,7.4081,7.3857,7.3322,7.2729,7.2408,7.2007,7.1181,0.6135,0.7237,0.8389,0.9487,1.0673,1.2094,1.3122,1.4086,1.7064,1.8348,1.8703,2.0779,2.1876,2.2103,2.1914,2.1686,2.1563,2.312,2.4174,2.483,2.6261,2.7532,2.844,2.9758,3.1089,3.2166,3.387,3.632,3.8965,3.9892,4.0732,4.1675,4.1776,4.1677,4.2084,4.3655,4.5306,4.6969,4.9582,5.1509,5.2635,5.3295,5.4058,5.4968,5.5778,5.5544,5.4456,5.4293,5.4281,5.4147,5.4436,5.4724,5.4884,5.5103,5.4789,5.3894,5.3247,5.2621,5.184,5.1998,5.1794,5.0937,5.0517,5.0544,5.0622,5.0172,5.0172,5.1429,5.2044,5.2464,5.2946,5.3172,5.3328,5.3689,5.4421,5.5138,5.5565,5.67,5.8917,6.2792,6.6886,7.1157,7.2936,7.4689,7.5736,7.674,7.722,7.7797,7.8534,7.8921,7.9089,7.9211,7.9367,7.9508,7.943,7.9268,7.8931,7.8715,7.836,7.8167,7.7834,7.7268,7.6628,7.6272,7.5573,7.4739,7.3792,7.3011,7.2662,7.2373,7.1749,7.1327,7.1138,7.0099,6.9331,0.3098,0.3521,0.5923,0.8048,0.9911,1.0309,1.0863,1.186,1.4162,1.5201,1.5501,1.8874,2.0002,1.9399,1.9905,2.0197,2.0394,2.1771,2.3193,2.4482,2.5044,2.6169,2.79,2.8044,2.8951,3.0531,3.1052,3.2954,3.6106,3.782,3.9967,4.2226,4.2442,4.2905,4.3468,4.5322,4.6812,4.7527,5.0391,5.2355,5.2962,5.4429,5.5966,5.7241,5.7263,5.6681,5.5849,5.548,5.5078,5.4532,5.4724,5.4884,5.5103,5.5133,5.4503,5.2921,5.1364,5.0639,5.0882,5.0992,5.0705,5.0227,4.9745,4.9531,4.8583,4.8118,4.8228,4.85,5.0036,5.0192,4.8913,5.0375,5.1699,5.225,5.3299,5.4318,5.5098,5.5942,5.8276,6.1476,6.3979,6.7267,7.2245,7.4282,7.5728,7.6861,7.7558,7.8094,7.8659,7.9175,7.9377,7.9424,7.96,7.9728,7.942,7.8609,7.8098,7.7685,7.7156,7.6887,7.6535,7.6068,7.5447,7.4741,7.3961,7.311,7.2159,7.1557,7.1181,7.0778,7.0198,6.9463,6.9022,6.8128,6.7182,0.2938,0.3614,0.4637,0.5691,0.6782,0.739,0.8581,1.0253,1.2534,1.4339,1.5579,1.7887,1.7766,1.6167,1.7426,1.8633,1.9352,1.9811,2.0958,2.2347,2.2721,2.3461,2.4513,2.568,2.7317,2.8992,3.0158,3.1691,3.3524,3.6048,3.8163,3.9986,4.1182,4.214,4.318,4.4738,4.6902,4.9495,5.1424,5.3536,5.5797,5.79,5.8877,5.8724,5.8508,5.8343,5.792,5.5671,5.4854,5.5667,5.5138,5.4884,5.5133,5.4849,5.4436,5.3796,5.1987,5.0435,4.9369,4.9315,4.8828,4.7598,4.698,4.6503,4.6062,4.5262,4.5286,4.6087,4.6903,4.7015,4.6591,4.8504,4.9984,5.0247,5.1829,5.2865,5.3237,5.4651,5.6887,6.0101,6.2097,6.5032,7.009,7.3626,7.5898,7.6941,7.7416,7.7875,7.889,7.9271,7.9481,7.9694,7.9531,7.9183,7.8436,7.7466,7.6649,7.619,7.5655,7.5137,7.5074,7.4562,7.4032,7.3115,7.212,7.1249,7.0228,6.9548,6.91,6.9003,6.8868,6.8297,6.6771,6.6257,6.5112,0.1438,0.2092,0.3054,0.4182,0.5346,0.6182,0.7208,0.8576,1.0713,1.2202,1.3363,1.4601,1.4242,1.2989,1.5457,1.6803,1.7505,1.8253,1.9505,2.0858,2.1239,2.1797,2.2749,2.3879,2.5294,2.7001,2.8369,2.9843,3.1511,3.3776,3.6363,3.8662,4.0928,4.2373,4.3228,4.5413,4.7877,5.0619,5.2462,5.4716,5.7486,5.9271,6.0138,6.0311,5.9807,5.9629,5.9405,5.7315,5.6003,5.6095,5.5729,5.5418,5.5227,5.4753,5.434,5.402,5.2247,5.0356,4.8719,4.8066,4.7101,4.5859,4.4989,4.4314,4.3771,4.3107,4.2341,4.1887,4.2295,4.2844,4.3107,4.5401,4.7264,4.7982,4.9262,5.0882,5.2027,5.3322,5.5456,5.8942,6.1069,6.4052,6.8314,7.2239,7.5083,7.6919,7.7857,7.8427,7.9115,7.9442,7.9576,7.9613,7.914,7.8412,7.7574,7.6399,7.532,7.4479,7.3812,7.3248,7.2932,7.2435,7.183,7.1354,7.0033,6.8849,6.7966,6.7114,6.5908,6.5934,6.5892,6.5215,6.4038,6.3681,6.1726,-0.1178,-0.0524,0.1047,0.2873,0.4593,0.538,0.6066,0.6778,0.8553,0.9348,0.9483,0.9994,1.0338,1.075,1.3592,1.5083,1.5379,1.7005,1.8637,1.985,2.0121,2.0994,2.2256,2.2364,2.3182,2.486,2.5926,2.7501,2.9573,3.1447,3.4127,3.7642,4.1265,4.2921,4.3542,4.6638,4.9138,5.0757,5.3165,5.585,5.8329,5.9242,6.0435,6.2351,6.1219,6.0702,6.12,5.9591,5.8084,5.6783,5.6663,5.6276,5.5479,5.4849,5.4244,5.3502,5.1914,5.009,4.8364,4.6775,4.5342,4.4265,4.3202,4.2267,4.1162,4.1139,3.9607,3.7047,3.7304,3.8578,3.8873,4.176,4.4124,4.5105,4.6704,4.8451,5.1007,5.206,5.3764,5.774,6.0084,6.3159,6.6367,6.9748,7.3142,7.6068,7.78,7.9046,7.9341,7.9521,7.9613,7.9104,7.8296,7.7318,7.6261,7.5249,7.3657,7.2489,7.1767,7.1049,7.0316,6.9576,6.8915,6.7908,6.702,6.5365,6.4304,6.3175,6.1597,6.1685,6.1256,6.0712,6.1227,6.096,5.823,-0.3655,-0.2479,-0.1567,-0.0261,0.1181,0.2019,0.3273,0.4685,0.5617,0.6118,0.6456,0.7824,0.9185,1.0289,1.1387,1.3153,1.5234,1.6126,1.7255,1.8738,1.8874,1.9628,2.0749,2.0885,2.2186,2.4202,2.4663,2.6213,2.8605,2.9422,3.1301,3.4355,3.8565,4.1302,4.217,4.5556,4.8411,5.073,5.3564,5.6263,5.8795,6.0834,6.2148,6.2661,6.249,6.2698,6.3188,6.053,5.908,5.9224,5.8083,5.7068,5.6607,5.5448,5.4088,5.2593,5.0847,4.8695,4.587,4.351,4.1411,3.971,3.9585,3.8831,3.7127,3.6141,3.4758,3.3133,3.4851,3.6302,3.6817,3.9726,4.2002,4.2508,4.494,4.7015,4.8013,5.038,5.3036,5.5347,5.7897,6.096,6.4197,6.6692,6.9703,7.3727,7.6834,7.8789,7.942,7.9386,7.8749,7.7614,7.6377,7.5018,7.3617,7.2033,7.0744,7.037,6.889,6.7811,6.7203,6.572,6.4582,6.3735,6.2288,6.0649,5.8603,5.7421,5.7069,5.7152,5.6825,5.7024,5.8197,5.744,5.421,-0.4697,-0.365,-0.2612,-0.1828,-0.1308,0.0399,0.1885,0.3275,0.3648,0.4062,0.4645,0.6253,0.7676,0.9052,1.0469,1.2312,1.4231,1.5,1.6126,1.7494,1.7505,1.849,1.9862,2.049,2.17,2.3529,2.4456,2.5877,2.753,2.8779,3.0461,3.252,3.6065,3.9205,4.1888,4.5227,4.8307,5.0953,5.2078,5.3819,5.6276,5.8474,6.0112,6.1257,6.2385,6.324,6.4107,6.1971,6.0885,6.0759,5.9048,5.7599,5.6399,5.476,5.2979,5.1253,4.8698,4.6255,4.4174,4.1512,3.9243,3.7594,3.6755,3.4948,3.2093,3.1261,3.0696,3.0184,3.1929,3.3399,3.4231,3.6431,3.8621,4.0332,4.2123,4.4241,4.6453,4.8912,5.1513,5.4427,5.7038,5.9953,6.3124,6.549,6.8354,7.1251,7.4056,7.6486,7.8069,7.7083,7.5535,7.4167,7.3303,7.1981,7.0153,6.8668,6.7454,6.6199,6.465,6.3643,6.301,6.1438,6.0068,5.9512,5.7649,5.5786,5.4663,5.3043,5.2306,5.2459,5.2459,5.2811,5.4187,5.3387,5.0088,-0.5478,-0.4828,-0.3264,-0.2871,-0.2997,-0.0392,0.1193,0.176,0.2168,0.2808,0.3669,0.4947,0.6261,0.7561,0.9869,1.1424,1.2344,1.374,1.5,1.599,1.6126,1.7244,1.9233,2.0083,2.1212,2.2578,2.4367,2.5658,2.6598,2.8568,3.0368,3.1867,3.4062,3.7182,4.1198,4.5053,4.8296,5.0746,5.0115,5.0956,5.338,5.5103,5.7135,5.937,6.1617,6.3234,6.4012,6.3557,6.283,6.1702,6.0168,5.8208,5.5879,5.4213,5.2266,4.9961,4.6782,4.438,4.3056,4.0048,3.7686,3.6229,3.4097,3.1165,2.7655,2.7332,2.7309,2.7186,2.8501,2.9813,3.1186,3.2741,3.5147,3.8325,3.9252,4.105,4.5105,4.7324,4.995,5.3426,5.6576,5.9349,6.1971,6.4708,6.7219,6.9602,7.1729,7.3534,7.535,7.4008,7.1828,7.0651,6.9963,6.8637,6.688,6.5668,6.3888,6.1675,6.0184,5.8973,5.8338,5.6522,5.5354,5.5408,5.3171,5.1399,5.0721,4.8505,4.741,4.7662,4.6811,4.678,4.8858,4.7787,4.518,-0.7695,-0.6388,-0.5485,-0.4567,-0.339,-0.1306,-0.0262,-0.0132,0.0,0.0,0.0,0.3809,0.5245,0.7431,0.8069,0.9489,1.1168,1.2592,1.3477,1.3731,1.4493,1.6,1.7766,1.8015,1.9492,2.1971,2.2443,2.4217,2.7263,2.7744,2.935,3.1878,3.4105,3.6071,3.8158,4.3346,4.6811,4.8147,4.9827,5.1813,5.4116,5.5672,5.7302,5.8961,6.1574,6.3166,6.3671,6.4562,6.4418,6.2964,6.1882,5.9732,5.6531,5.6312,5.458,5.0702,4.8816,4.6206,4.1999,3.8868,3.6081,3.3519,3.1014,2.8609,2.6039,2.5737,2.4639,2.1802,2.4368,2.6284,2.6631,2.9591,3.3057,3.6271,3.826,4.0127,4.1949,4.5695,4.8886,5.0721,5.4427,5.7963,6.0498,6.2447,6.4853,6.8547,7.0154,7.1748,7.3682,7.2052,6.9862,6.8868,6.664,6.5118,6.4014,6.1899,5.9596,5.7626,5.6119,5.4945,5.3727,5.1653,5.0193,5.0363,4.8852,4.6964,4.5293,4.3403,4.1814,4.1647,4.0272,3.9674,4.1074,3.9543,3.7441,-0.8737,-0.7815,-0.6392,-0.5616,0.0,-0.2612,-0.1567,-0.1306,0.0,0.1828,0.4179,0.4443,0.5612,0.7436,0.8079,0.9243,1.0796,1.2592,1.3613,1.3859,1.501,1.6272,1.7527,1.8015,1.9505,2.1605,2.2214,2.4009,2.6831,2.753,2.8912,3.0895,3.3783,3.5253,3.5591,4.0643,4.442,4.6932,4.8579,5.0387,5.2377,5.4655,5.6285,5.7262,6.0439,0.0,0.0,0.0,0.0,0.0,0.0,0.0,0.0,0.0,0.0,4.8924,4.2885,3.7806,3.3995,2.8802,2.5631,2.5464,2.5838,2.518,2.3339,2.3827,2.3163,2.06,2.2949,2.5028,2.59,2.8617,3.1503,3.4358,3.6167,3.852,4.1698,4.4397,4.6996,5.012,5.2519,5.4931,5.7713,5.9741,6.2568,6.5961,6.8075,6.9684,7.0426,6.8453,6.6002,6.4521,6.1598,5.9172,5.7842,5.5786,5.3831,5.2443,5.044,4.8838,4.8215,4.6498,4.5299,4.5365,4.4408,4.2899,4.1082,3.9883,3.8671,3.7566,3.6779,3.6041,3.4214,3.3281,3.2629,-0.9255,-0.8731,-0.6916,-0.64,-0.6665,-0.4312,-0.3005,-0.2351,-0.0392,0.2088,0.4697,0.5352,0.6258,0.7436,0.8473,0.9378,1.0423,1.272,1.3995,1.4376,1.5778,1.6911,1.7652,1.8513,1.9739,2.147,2.2457,2.4248,2.6715,2.7779,2.9045,3.0519,3.3846,3.5178,3.4608,0.0,0.0,0.0,4.7617,4.9298,5.09,5.3641,5.5358,5.5948,5.9266,0.0,6.1762,6.2265,6.2525,6.2482,6.0733,0.0,0.0,0.0,0.0,0.0,0.0,0.0,0.0,0.0,0.0,0.0,2.1729,2.3065,2.2095,2.3014,2.2538,1.9997,2.2844,2.5214,2.6004,2.8537,3.1222,3.3741,3.4984,3.7586,4.2164,4.3457,4.5451,5.0209,5.1342,5.2761,5.5611,5.7921,6.0655,6.3344,6.5796,6.7187,6.6943,6.4911,6.2277,5.9674,5.7637,5.467,5.2245,5.0673,4.9116,4.7381,4.505,4.3432,4.3008,4.211,4.1388,4.1549,4.0765,3.9782,3.853,3.7359,3.6341,3.4876,3.4201,3.2904,2.9784,2.9454,3.0056,-0.9255,-0.8866,-0.7695,-0.7176,-0.7176,-0.6535,-0.5355,-0.3913,-0.2089,0.013,0.2737,0.5471,0.7042,0.77,0.8208,0.8855,0.9642,1.208,1.323,1.3358,1.5525,1.7048,1.8027,1.8151,1.9505,2.1849,2.2592,2.4797,2.8285,2.8683,2.9974,3.2361,3.5497,3.6702,3.624,3.9451,4.1776,4.3054,4.7987,5.126,5.2696,5.4014,5.5423,5.6893,5.8786,6.0949,6.3432,6.3332,6.3395,6.3672,6.3455,6.1767,5.8538,5.801,5.5812,0.0,4.6301,0.0,0.0,0.0,0.0,0.0,0.0,0.0,0.0,2.5281,2.2875,1.8074,2.3484,2.6593,2.4898,2.965,3.3783,3.5803,3.7803,3.9616,4.1186,4.3811,4.6166,4.768,5.1103,5.4185,5.632,5.835,6.0241,6.2226,6.3919,6.4578,6.3895,6.3071,6.1237,5.8216,5.754,5.5267,5.2047,4.8767,4.6139,4.4614,4.257,4.0851,4.0028,3.9218,3.8756,3.9037,3.9053,3.8707,3.8222,3.576,3.3858,3.3054,3.1361,2.9668,2.8985,2.8927,2.8995,-1.0904,-0.9624,-0.8984,-0.8084,-0.7051,-0.627,-0.47,-0.274,-0.1306,0.0913,0.365,0.5608,0.7176,0.8478,0.8731,0.9636,1.0789,1.2703,1.4095,1.5234,1.7026,1.8299,1.8773,1.8785,2.0134,2.2457,2.282,2.505,2.899,2.9255,3.0387,3.2671,3.5294,3.6978,3.7777,4.1422,4.4154,4.5641,4.8006,5.0303,5.2387,5.44,5.5922,5.6816,5.8939,6.0489,6.1229,6.2839,6.3449,6.2917,6.23,6.1237,5.9514,5.621,5.3335,0.0,0.0,0.0,0.0,0.0,0.0,0.0,0.0,0.0,0.0,0.0,2.4325,2.4019,2.8303,2.9362,2.5176,3.0534,3.4117,3.3971,3.5253,3.7563,4.1179,4.2563,4.4501,4.7488,4.9523,5.1731,5.4234,5.6165,5.8308,6.1069,6.154,6.1953,6.2577,6.1467,5.8916,5.4704,5.4136,5.2874,4.8605,4.5398,4.3115,4.2206,4.0164,3.8286,3.7869,3.7503,3.7334,3.7632,3.7844,3.7453,3.5562,3.3955,3.251,3.075,2.8952,2.7852,2.7246,2.7434,2.7517,-1.1673,-0.9882,-1.0274,-0.9119,-0.6925,-0.5742,-0.3913,-0.1436,0.0,0.2087,0.4692,0.6002,0.7412,0.9027,0.9731,1.0864,1.2448,1.3943,1.5493,1.6972,1.84,1.917,1.9529,1.99,2.1117,2.2941,2.3544,2.5877,2.9482,2.9823,3.0942,3.2968,3.5368,3.7435,3.9189,4.3168,4.6434,4.9029,4.925,5.0569,5.285,5.5238,5.6824,5.7475,5.9682,6.0881,6.1018,6.2611,6.3399,6.318,6.1327,6.0121,5.981,5.4225,0.0,0.0,0.0,0.0,0.0,0.0,0.0,0.0,0.0,2.9769,2.6083,0.0,2.7183,0.0,3.2779,3.2335,2.7331,3.2213,0.0,0.0,3.3958,3.6417,4.1426,4.1665,4.2993,4.7283,4.8255,4.9652,5.2322,5.4392,5.6777,5.9621,5.9638,5.9983,6.1594,5.9884,5.6739,5.2591,5.1733,5.0249,4.636,4.3772,4.248,4.1184,3.9147,3.7168,3.6607,3.6534,3.647,3.6489,3.6498,3.5549,3.3403,3.2287,3.082,2.8793,2.7587,2.6688,2.6121,2.6515,2.6605,-1.0146,-0.8743,-1.1182,-1.0274,-0.7306,-0.6121,-0.4033,-0.1302,0.1172,0.3125,0.4812,0.6518,0.8099,0.9382,1.1284,0.0,1.4046,1.5613,1.6541,1.6983,1.84,1.9418,2.0024,2.1239,2.2335,2.3303,2.5319,2.753,2.9842,3.0519,3.1829,3.383,3.6777,3.8916,4.0234,4.3616,4.74,5.1363,5.2989,5.4536,5.5797,5.6883,5.8311,6.0069,6.0929,6.2982,6.6128,6.3717,6.3561,6.6284,6.2141,5.9268,5.8537,0.0,0.0,0.0,0.0,0.0,0.0,0.0,0.0,0.0,0.0,0.0,0.0,0.0,0.0,3.2978,3.472,0.0,3.1905,3.6001,0.0,0.0,0.0,3.8813,4.1697,4.1914,4.3086,4.6073,0.0,0.0,5.2253,5.4434,5.6482,5.8286,5.8753,5.9107,5.9486,5.8255,5.5949,5.2482,5.2356,5.12,4.7451,4.6938,4.5709,4.1927,4.0437,3.9034,3.7119,3.6218,3.5688,3.5765,3.4393,3.3145,3.2992,3.0718,2.8692,2.8614,2.7317,2.6496,2.6848,2.6983,2.649,-1.092,-0.799,-0.8221,-0.6871,-0.4826,-0.3869,-0.1872,0.1012,0.2787,0.4894,0.7172,0.8308,0.9604,1.1007,1.2041,0.0,0.0,0.0,1.7174,1.8636,1.9984,2.0903,2.147,2.2791,2.3978,2.5184,2.6464,2.8321,3.0519,3.2018,3.3202,3.4261,0.0,0.0,3.8358,4.232,4.6283,5.007,5.1848,5.412,5.6797,5.6415,5.7496,6.039,6.3058,6.4841,6.5597,6.6153,6.564,6.3924,6.0691,5.7774,0.0,0.0,0.0,0.0,0.0,0.0,0.0,0.0,0.0,0.0,0.0,3.5512,3.1741,0.0,0.0,0.0,3.3322,3.1805,3.0813,3.643,0.0,0.0,0.0,0.0,0.0,0.0,0.0,4.9368,4.8562,4.93,5.3771,5.4905,5.6471,5.9552,5.9533,5.9681,6.0896,0.0,5.652,5.2577,5.2994,5.2376,4.8644,4.7022,4.554,4.3487,4.1812,4.0084,3.8378,3.7612,3.7167,3.6923,3.5479,3.3904,3.3065,3.1916,3.0932,3.0932,2.9199,2.7495,2.6881,2.6416,2.561,-1.0078,0.0,0.0,0.0,0.0,-0.1203,0.0959,0.3754,0.5089,0.7027,0.9289,1.0176,0.0,0.0,0.0,0.0,0.0,0.0,1.9006,2.0805,2.1806,2.2491,2.2912,2.4217,2.5523,2.6715,2.7744,2.9427,3.1591,3.3415,3.4374,3.4475,0.0,0.0,0.0,0.0,4.6488,4.9981,5.2969,5.5483,5.7454,5.7619,5.86,6.0557,6.4021,6.5922,6.6069,6.6304,6.5064,6.1988,5.8058,0.0,0.0,0.0,0.0,0.0,0.0,0.0,0.0,0.0,0.0,0.0,0.0,0.0,0.0,0.0,0.0,0.0,0.0,0.0,3.2315,3.735,3.9754,0.0,0.0,0.0,0.0,0.0,0.0,0.0,0.0,0.0,5.4156,5.4599,5.5662,0.0,0.0,5.9796,6.1063,5.9408,5.6702,5.2903,5.3254,0.0,4.9146,4.734,4.6265,4.6125,4.3961,4.1295,3.8934,3.8576,3.8475,3.7631,3.6463,3.547,3.466,3.4006,3.3294,3.3152,3.0932,2.8799,2.7949,2.6881,2.58,0.0,0.0,0.0,0.0,0.0,0.0,0.0,0.0,0.8516,0.9691,0.0,1.2023,0.0,0.0,0.0,0.0,0.0,2.1026,0.0,0.0,2.367,2.3933,2.429,2.5609,2.6681,2.7628,2.9085,3.0926,3.3026,3.48,0.0,0.0,0.0,0.0,0.0,0.0,4.8998,5.1904,5.7723,6.0023,5.8072,6.147,6.2665,6.1209,6.3207,6.5848,6.8747,6.3094,6.0427,6.1807,5.4121,0.0,0.0,0.0,0.0,0.0,0.0,0.0,0.0,0.0,0.0,0.0,0.0,0.0,0.0,0.0,0.0,0.0,0.0,0.0,0.0,3.9932,0.0,0.0,0.0,0.0,0.0,0.0,0.0,0.0,0.0,0.0,5.2914,5.3076,5.3678,5.6241,0.0,0.0,0.0,0.0,5.6107,5.3594,5.2941,5.1712,4.8618,4.8967,4.9606,4.9476,0.0,0.0,3.8222,3.8858,3.9275,3.6877,3.682,3.7318,3.8467,3.6473,3.4775,3.4584,3.2564,3.0573,3.0299,2.9071,2.7734,0.0,0.0,0.0,0.0,0.0,0.0,0.0,0.0,0.0,1.307,1.4098,1.5194,0.0,0.0,0.0,0.0,0.0,0.0,0.0,0.0,2.3017,2.3916,2.5084,2.6684,2.8014,0.0,3.0973,3.2321,0.0,0.0,0.0,0.0,0.0,0.0,0.0,0.0,4.4906,4.8062,5.3902,5.7532,5.8734,6.1233,6.3136,6.4171,6.3878,6.3983,6.444,6.2216,6.0652,0.0,0.0,0.0,0.0,0.0,0.0,0.0,0.0,0.0,0.0,0.0,0.0,0.0,0.0,0.0,0.0,0.0,0.0,0.0,0.0,0.0,0.0,0.0,4.2454,0.0,0.0,0.0,0.0,0.0,0.0,0.0,0.0,0.0,5.1913,5.2071,5.303,5.6319,5.7288,5.796,5.8881,0.0,0.0,0.0,0.0,0.0,0.0,0.0,4.6367,4.7172,4.3082,4.0079,4.0657,4.0967,4.0552,3.8999,0.0,0.0,3.8529,3.7731,3.668,3.5831,3.5168,3.3796,3.1123,2.9418,2.8178,0.0,0.0,0.0,0.0,0.0,0.0,0.0,0.0,0.0,1.4898,1.593,0.0,0.0,0.0,0.0,0.0,0.0,0.0,0.0,0.0,0.0,0.0,2.6398,2.7849,0.0,0.0,0.0,0.0,0.0,0.0,0.0,0.0,0.0,0.0,0.0,0.0,4.4311,4.6882,5.3579,5.7781,5.9087,6.204,6.4314,6.5842,6.4802,6.344,6.1868,0.0,0.0,0.0,0.0,0.0,0.0,0.0,0.0,0.0,0.0,0.0,0.0,0.0,0.0,0.0,0.0,0.0,0.0,0.0,0.0,0.0,0.0,0.0,0.0,0.0,4.2177,0.0,0.0,0.0,0.0,0.0,0.0,0.0,0.0,0.0,0.0,0.0,5.3345,5.5862,5.716,5.8237,5.923,5.9062,5.8162,0.0,0.0,0.0,0.0,0.0,0.0,0.0,0.0,0.0,0.0,0.0,0.0,0.0,0.0,3.9578,3.8716,3.8514,3.7934,3.6208,0.0,0.0,0.0,0.0,0.0,0.0,0.0,0.0,0.0,0.0,0.0,0.0,0.0,0.0,0.0,1.5836,0.0,0.0,2.0251,0.0,0.0,0.0,0.0,0.0,0.0,0.0,0.0,0.0,0.0,0.0,0.0,0.0,0.0,0.0,0.0,0.0,0.0,0.0,0.0,0.0,0.0,4.7339,4.8683,5.7276,6.1038,5.9383,6.4064,6.6398,6.5991,6.5916,6.4608,6.1875,0.0,0.0,0.0,0.0,0.0,0.0,0.0,0.0,0.0,0.0,0.0,0.0,0.0,0.0,0.0,0.0,0.0,0.0,0.0,0.0,0.0,0.0,0.0,0.0,0.0,0.0,4.1293,4.4869,4.7784,0.0,0.0,0.0,0.0,0.0,0.0,0.0,0.0,0.0,0.0,5.7513,5.9641,5.9793,5.9408,5.8548,5.7149,5.5088,5.3097,5.1478,5.0402,4.9567,0.0,0.0,0.0,0.0,0.0,0.0,0.0,0.0,0.0,0.0,0.0,0.0,0.0,0.0,0.0,0.0,0.0,0.0,0.0,0.0,0.0,0.0,0.0,0.0,0.0,0.0,0.0,0.0,0.0,0.0,0.0,0.0,0.0,0.0,0.0,0.0,0.0,0.0,0.0,0.0,0.0,0.0,0.0,0.0,0.0,0.0,0.0,0.0,0.0,0.0,0.0,0.0,0.0,0.0,4.4654,4.9272,5.5999,5.9971,6.1137,6.4996,6.722,6.7519,6.6442,6.4583,0.0,0.0,0.0,0.0,0.0,0.0,0.0,0.0,0.0,0.0,0.0,0.0,0.0,0.0,0.0,0.0,0.0,0.0,0.0,0.0,0.0,0.0,0.0,0.0,0.0,0.0,0.0,0.0,4.7772,4.8399,4.9035,0.0,0.0,0.0,0.0,0.0,0.0,0.0,0.0,0.0,0.0,5.8155,5.9517,5.9131,5.8336,5.7395,5.5808,5.4252,5.2739,5.065,4.9022,4.8312,0.0,0.0,0.0,0.0,0.0,0.0,0.0,0.0,0.0,0.0,0.0,0.0,0.0,0.0,0.0,0.0,0.0,0.0,0.0,0.0,0.0,0.0,0.0,0.0,0.0,0.0,0.0,0.0,0.0,0.0,0.0,0.0,0.0,0.0,0.0,0.0,0.0,0.0,0.0,0.0,0.0,0.0,0.0,0.0,0.0,0.0,0.0,0.0,0.0,0.0,0.0,0.0,0.0,4.5932,5.0512,5.6445,6.0271,6.2068,6.5545,6.745,6.737,6.649,6.4137,0.0,0.0,0.0,0.0,0.0,0.0,0.0,0.0,0.0,0.0,0.0,0.0,0.0,0.0,0.0,0.0,0.0,0.0,0.0,0.0,0.0,0.0,0.0,0.0,0.0,0.0,0.0,0.0,4.6452,4.7256,4.811,0.0,0.0,0.0,0.0,0.0,0.0,0.0,0.0,0.0,0.0,5.8257,5.9522,5.9029,0.0,0.0,5.6576,5.5042,5.3583,5.1422,4.9561,4.8533,4.6289,0.0,0.0,0.0,0.0,0.0,0.0,0.0,0.0,0.0,0.0,0.0,0.0,0.0,0.0,0.0,0.0,0.0,0.0,0.0,0.0,0.0,0.0,0.0,0.0,0.0,0.0,0.0,0.0,0.0,0.0,0.0,0.0,0.0,0.0,0.0,0.0,0.0,0.0,0.0,0.0,0.0,0.0,0.0,0.0,0.0,0.0,0.0,0.0,0.0,0.0,0.0,0.0,4.9689,5.2246,5.829,6.1628,6.2188,6.5863,6.7223,6.5991,6.6244,6.3444,0.0,0.0,0.0,0.0,0.0,0.0,0.0,0.0,0.0,0.0,0.0,0.0,0.0,0.0,0.0,0.0,0.0,0.0,0.0,0.0,0.0,0.0,0.0,0.0,0.0,0.0,0.0,0.0,0.0,0.0,0.0,0.0,0.0,0.0,0.0,0.0,0.0,0.0,0.0,0.0,0.0,5.9493,5.9684,5.9196,5.879,0.0,5.7354,5.5821,5.4151,5.2658,5.1069,4.9138,0.0,0.0,0.0,0.0,0.0,0.0,0.0,0.0,0.0,0.0,0.0,0.0,0.0,0.0,0.0,0.0,0.0,0.0,0.0,0.0,0.0,0.0,0.0,0.0,0.0,0.0,0.0,0.0,0.0,0.0,0.0,0.0,0.0,0.0,0.0,0.0,0.0,0.0,0.0,0.0,0.0,0.0,0.0,0.0,0.0,0.0,0.0,0.0,0.0,0.0,0.0,0.0,0.0,0.0,5.2676,5.8734,6.2167,6.2819,6.6051,6.7289,6.6244,6.7472,0.0,0.0,0.0,0.0,0.0,0.0,0.0,0.0,0.0,0.0,0.0,0.0,0.0,0.0,0.0,0.0,0.0,0.0,0.0,0.0,0.0,0.0,0.0,0.0,0.0,0.0,0.0,3.9124,0.0,0.0,0.0,0.0,0.0,0.0,0.0,0.0,0.0,0.0,0.0,0.0,0.0,0.0,5.9496,5.965,5.9765,5.9483,0.0,0.0,5.7428,5.4844,5.3984,5.3114,0.0,0.0,0.0,0.0,0.0,0.0,0.0,0.0,0.0,0.0,0.0,0.0,0.0,0.0,0.0,0.0,0.0,0.0,0.0,0.0,0.0,0.0,0.0,0.0,0.0,0.0,0.0,0.0,0.0,0.0,0.0,0.0,0.0,0.0,0.0,0.0,0.0,0.0,0.0,0.0,0.0,0.0,0.0,0.0,0.0,0.0,0.0,0.0,0.0,0.0,0.0,0.0,0.0,0.0,4.8332,5.3075,5.8465,6.1829,6.3027,6.6431,6.7308,6.533,6.7738,6.4554,0.0,0.0,0.0,0.0,0.0,0.0,0.0,0.0,0.0,0.0,0.0,0.0,0.0,0.0,0.0,0.0,0.0,0.0,0.0,0.0,0.0,0.0,0.0,0.0,0.0,0.0,0.0,0.0,0.0,0.0,0.0,0.0,0.0,0.0,0.0,0.0,0.0,0.0,0.0,0.0,0.0,0.0,5.9399,5.9971,0.0,0.0,0.0,5.7428,5.5245,0.0,0.0,0.0,0.0,0.0,0.0,0.0,0.0,0.0,0.0,0.0,0.0,0.0,0.0,0.0,0.0,0.0,0.0,0.0,0.0,0.0,0.0,0.0,0.0,0.0,0.0,0.0,0.0,0.0,0.0,0.0,0.0,0.0,0.0,0.0,0.0,0.0,0.0,0.0,0.0,0.0,0.0,0.0,0.0,0.0,0.0,0.0,0.0,0.0,0.0,0.0,0.0,0.0,0.0,0.0,0.0,0.0,5.3253,5.8071,6.1375,6.3127,6.683,6.7288,6.4184,6.749,6.4776,0.0,0.0,0.0,0.0,0.0,0.0,0.0,0.0,0.0,0.0,0.0,0.0,0.0,0.0,0.0,0.0,0.0,0.0,0.0,0.0,0.0,0.0,0.0,0.0,0.0,0.0,0.0,0.0,0.0,0.0,0.0,0.0,0.0,0.0,0.0,0.0,0.0,0.0,0.0,0.0,0.0,5.7699,5.8845,5.9867,5.995,0.0,0.0,5.6724,5.5259,5.321,0.0,0.0,0.0,0.0,0.0,0.0,0.0,0.0,0.0,0.0,0.0,0.0,0.0,0.0,0.0,0.0,0.0,0.0,0.0,0.0,0.0,0.0,0.0,0.0,0.0,0.0,0.0,0.0,0.0,0.0,0.0,0.0,0.0,0.0,0.0,0.0,0.0,0.0,0.0,0.0,0.0,0.0,0.0,0.0,0.0,0.0,0.0,0.0,0.0,0.0,0.0,0.0,0.0,0.0,0.0,0.0,5.3211,5.9244,6.2754,6.351,6.698,6.7363,6.4471,6.7577,6.4721,0.0,0.0,0.0,0.0,0.0,0.0,0.0,0.0,0.0,0.0,0.0,0.0,0.0,0.0,0.0,0.0,0.0,0.0,0.0,0.0,0.0,0.0,0.0,0.0,0.0,0.0,0.0,0.0,0.0,0.0,0.0,0.0,0.0,0.0,0.0,0.0,0.0,0.0,0.0,0.0,0.0,5.8771,5.7732,5.9216,0.0,0.0,0.0,0.0,5.4481,5.4275,0.0,0.0,0.0,0.0,0.0,0.0,0.0,0.0,0.0,0.0,0.0,0.0,0.0,0.0,0.0,0.0,0.0,0.0,0.0,0.0,0.0,0.0,0.0,0.0,0.0,0.0,0.0,0.0,0.0,0.0,0.0,0.0,0.0,0.0,0.0,0.0,0.0,0.0,0.0,0.0,0.0,0.0,0.0,0.0,0.0,0.0,0.0,0.0,0.0,0.0,0.0,0.0,0.0,0.0,0.0,0.0,5.4275,5.9424,6.259,6.3598,6.7176,6.758,6.4533,6.6846,6.3891,0.0,0.0,0.0,0.0,0.0,0.0,0.0,0.0,0.0,0.0,0.0,0.0,0.0,0.0,0.0,0.0,0.0,0.0,0.0,0.0,0.0,0.0,0.0,0.0,0.0,0.0,0.0,0.0,0.0,0.0,0.0,0.0,0.0,0.0,0.0,0.0,0.0,0.0,0.0,0.0,5.7453,5.79,5.612,0.0,0.0,0.0,0.0,0.0,0.0,5.3134,5.2491,0.0,0.0,0.0,0.0,0.0,0.0,0.0,0.0,0.0,0.0,0.0,0.0,0.0,0.0,0.0,0.0,0.0,0.0,0.0,0.0,0.0,0.0,0.0,0.0,0.0,0.0,0.0,0.0,0.0,0.0,0.0,0.0,0.0,0.0,0.0,0.0,0.0,0.0,0.0,0.0,0.0,0.0,0.0,0.0,0.0,0.0,0.0,0.0,0.0,0.0,0.0,0.0,0.0,0.0,0.0,5.4976,5.913,6.2014,6.3561,6.7075,6.7485,6.4533,6.5718,6.2726,5.5253,0.0,0.0,0.0,0.0,0.0,0.0,0.0,0.0,0.0,0.0,0.0,0.0,0.0,0.0,0.0,0.0,0.0,0.0,0.0,0.0,0.0,0.0,0.0,0.0,0.0,0.0,0.0,0.0,0.0,0.0,0.0,0.0,0.0,0.0,0.0,0.0,0.0,0.0,0.0,5.73,5.6507,0.0,0.0,0.0,0.0,0.0,0.0,0.0,0.0,5.1088,0.0,0.0,0.0,0.0,0.0,0.0,0.0,0.0,0.0,0.0,0.0,0.0,0.0,0.0,0.0,0.0,0.0,0.0,0.0,0.0,0.0,0.0,0.0,0.0,0.0,0.0,0.0,0.0,0.0,0.0,0.0,0.0,0.0,0.0,0.0,0.0,0.0,0.0,0.0,0.0,0.0,0.0,0.0,0.0,0.0,0.0,0.0,0.0,0.0,0.0,0.0,0.0,0.0,0.0,0.0,0.0,5.8681,6.2092,6.3552,6.5951,6.632,6.442,6.457,6.1582,5.4935,0.0,0.0,0.0,0.0,0.0,0.0,0.0,0.0,0.0,0.0,0.0,0.0,0.0,0.0,0.0,0.0,0.0,0.0,0.0,0.0,0.0,0.0,0.0,0.0,0.0,0.0,0.0,0.0,0.0,0.0,0.0,0.0,0.0,0.0,0.0,0.0,0.0,0.0,5.718,5.7243,0.0,0.0,0.0,0.0,0.0,0.0,0.0,0.0,5.2317,0.0,0.0,0.0,0.0,0.0,0.0,0.0,0.0,0.0,0.0,0.0,0.0,0.0,0.0,0.0,0.0,0.0,0.0,0.0,0.0,0.0,0.0,0.0,0.0,0.0,0.0,0.0,0.0,0.0,0.0,0.0,0.0,0.0,0.0,0.0,0.0,0.0,0.0,0.0,0.0,0.0,0.0,0.0,0.0,0.0,0.0,0.0,0.0,0.0,0.0,0.0,0.0,0.0,0.0,0.0,0.0,0.0,0.0,6.2371,6.2297,6.5057,6.5441,6.3067,6.2222,5.9515,0.0,0.0,0.0,0.0,0.0,0.0,0.0,0.0,0.0,0.0,0.0,0.0,0.0,0.0,0.0,0.0,0.0,0.0,0.0,0.0,0.0,0.0,0.0,0.0,0.0,0.0,0.0,0.0,0.0,0.0,0.0,0.0,0.0,0.0,0.0,0.0,0.0,0.0,0.0,0.0,0.0,0.0,0.0,0.0,0.0,0.0,0.0,0.0,0.0,0.0,0.0,0.0,0.0,0.0,0.0,0.0,0.0,0.0,0.0,0.0,0.0,0.0,0.0,0.0,0.0,0.0,0.0,0.0,0.0,0.0,0.0,0.0,0.0,0.0,0.0,0.0,0.0,0.0,0.0,0.0,0.0,0.0,0.0,0.0,0.0,0.0,0.0,0.0,0.0,0.0,0.0,0.0,0.0,0.0,0.0,0.0,0.0,0.0,0.0,0.0,0.0,0.0,0.0,0.0,0.0,0.0,0.0,0.0,6.1953,6.108,6.3808,6.4106,6.1864,5.9928,5.7393,0.0,0.0,0.0,0.0,0.0,0.0,0.0,0.0,0.0,0.0,0.0,0.0,0.0,0.0,0.0,0.0,0.0,0.0,0.0,0.0,0.0,0.0,0.0,0.0,0.0,0.0,0.0,0.0,0.0,0.0,0.0,0.0,0.0,0.0,0.0,0.0,0.0,0.0,0.0,0.0,0.0,0.0,0.0,0.0,0.0,0.0,0.0,0.0,4.967,0.0,0.0,0.0,0.0,0.0,0.0,0.0,0.0,0.0,0.0,0.0,0.0,0.0,0.0,0.0,0.0,0.0,0.0,0.0,0.0,0.0,0.0,0.0,0.0,0.0,0.0,0.0,0.0,0.0,0.0,0.0,0.0,0.0,0.0,0.0,0.0,0.0,0.0,0.0,0.0,0.0,0.0,0.0,0.0,0.0,0.0,0.0,0.0,0.0,0.0,0.0,0.0,0.0,0.0,0.0,0.0,0.0,0.0,0.0,5.9903,6.0996,6.1669,6.1881,6.1714,5.8838,5.5628,0.0,0.0,0.0,0.0,0.0,0.0,0.0,0.0,0.0,0.0,0.0,0.0,0.0,0.0,0.0,0.0,0.0,0.0,0.0,0.0,0.0,0.0,0.0,0.0,0.0,0.0,0.0,0.0,0.0,0.0,0.0,0.0,0.0,0.0,0.0,0.0,0.0,0.0,0.0,0.0,0.0,0.0,0.0,0.0,0.0,0.0,0.0,0.0,0.0,0.0,0.0,0.0,0.0,0.0,0.0,0.0,0.0,0.0,0.0,0.0,0.0,0.0,0.0,0.0,0.0,0.0,0.0,0.0,0.0,0.0,0.0,0.0,0.0,0.0,0.0,0.0,0.0,0.0,0.0,0.0,0.0,0.0,0.0,0.0,0.0,0.0,0.0,0.0,0.0,0.0,0.0,0.0,0.0,0.0,0.0,0.0,0.0,0.0,0.0,0.0,0.0,0.0,0.0,0.0,0.0,0.0,0.0,0.0,5.7058,5.6781,5.8696,5.9381,5.8566,5.645,5.4218,0.0,0.0,0.0,0.0,0.0,0.0,0.0,0.0,0.0,0.0,0.0,0.0,0.0,0.0,0.0,0.0,0.0,0.0,0.0,0.0,0.0,0.0,0.0,0.0,0.0,0.0,0.0,0.0,0.0,0.0,0.0,0.0,0.0,0.0,0.0,0.0,0.0,0.0,0.0,0.0,0.0,0.0,0.0,0.0,0.0,0.0,0.0,0.0,0.0,0.0,0.0,0.0,0.0,0.0,0.0,0.0,0.0,0.0,0.0,0.0,0.0,0.0,0.0,0.0,0.0,0.0,0.0,0.0,0.0,0.0,0.0,0.0,0.0,0.0,0.0,0.0,0.0,0.0,0.0,0.0,0.0,0.0,0.0,0.0,0.0,0.0,0.0,0.0,0.0,0.0,0.0,0.0,0.0,0.0,0.0,0.0,0.0,0.0,0.0,0.0,0.0,0.0,0.0,0.0,0.0,0.0,0.0,0.0,0.0,5.4342,5.5737,5.5959,5.4836,5.392,5.2756,0.0,0.0,0.0,0.0,0.0,0.0,0.0,0.0,0.0,0.0,0.0,0.0,0.0,0.0,0.0,0.0,0.0,0.0,0.0,0.0,0.0,0.0,0.0,0.0,0.0,0.0,0.0,0.0,0.0,0.0,0.0,0.0,0.0,0.0,0.0,0.0,0.0,0.0,0.0,0.0,0.0,0.0,0.0,0.0,0.0,0.0,0.0,0.0,0.0,0.0,0.0,0.0,0.0,0.0,0.0,0.0,0.0,0.0,0.0,0.0,0.0,0.0,0.0,0.0,0.0,0.0,0.0,0.0,0.0,0.0,0.0,0.0,0.0,0.0,0.0,0.0,0.0,0.0,0.0,0.0,0.0,0.0,0.0,0.0,0.0,0.0,0.0,0.0,0.0,0.0,0.0,0.0,0.0,0.0,0.0,0.0,0.0,0.0,0.0,0.0,0.0,0.0,0.0,0.0,0.0,0.0,0.0,0.0,0.0,5.5864,5.291,5.1361,5.1314,5.1669,5.1075,0.0,0.0,0.0,0.0,0.0,0.0,0.0,0.0,0.0,0.0,0.0,0.0,0.0,0.0,0.0,0.0,0.0,0.0,0.0,0.0,0.0,0.0,0.0,0.0,0.0,0.0,0.0,0.0,0.0,0.0,0.0,0.0,0.0,0.0,0.0,0.0,0.0,0.0,0.0,0.0,0.0,0.0,0.0,0.0,0.0,0.0,0.0,0.0,0.0,0.0,0.0,0.0,0.0,0.0,0.0,0.0,0.0,0.0,0.0,0.0,0.0,0.0,0.0,0.0,0.0,0.0,0.0,0.0,0.0,0.0,0.0,0.0,0.0,0.0,0.0,0.0,0.0,0.0,0.0,0.0,0.0,0.0,0.0,0.0,0.0,0.0,0.0,0.0,0.0,0.0,0.0,0.0,0.0,0.0,0.0,0.0,0.0,0.0,0.0,0.0,0.0,0.0,0.0,0.0,0.0,0.0,0.0,0.0,0.0,5.2973,5.1693,5.0901,5.0799,5.1386,5.0416,4.7716,0.0,0.0,0.0,0.0,0.0,0.0,0.0,0.0,0.0,0.0,0.0,0.0,0.0,0.0,0.0,0.0,0.0,0.0,0.0,0.0,0.0,0.0,0.0,0.0,0.0,0.0,0.0,0.0,0.0,0.0,0.0,0.0,0.0,0.0,0.0,0.0,0.0,0.0,0.0,0.0,0.0,0.0,0.0,0.0,0.0,0.0,0.0,0.0,0.0,0.0,0.0,0.0,0.0,0.0,0.0,0.0,0.0,0.0,0.0,0.0,0.0,0.0,0.0,0.0,0.0,0.0,0.0,0.0,0.0,0.0,0.0,0.0,0.0,0.0,0.0,0.0,0.0,0.0,0.0,0.0,0.0,0.0,0.0,0.0,0.0,0.0,0.0,0.0,0.0,0.0,0.0,0.0,0.0,0.0,0.0,0.0,0.0,0.0,0.0,0.0,0.0,0.0,0.0,0.0,0.0,0.0,0.0,0.0,5.0448,5.0816,5.0918,5.0935,5.1914,5.0602,0.0,0.0,0.0,0.0,0.0,0.0,0.0,0.0,0.0,0.0,0.0,0.0,0.0,0.0,0.0,0.0,0.0,0.0,0.0,0.0,0.0,0.0,0.0,0.0,0.0,0.0,0.0,0.0,0.0,0.0,0.0,0.0,0.0,0.0,0.0,0.0,0.0,0.0,0.0,0.0,0.0,0.0,0.0,0.0,0.0,0.0,0.0,0.0,0.0,0.0,0.0,0.0,0.0,0.0,0.0,0.0,0.0,0.0,0.0,0.0,0.0,0.0,0.0,0.0,0.0,0.0,0.0,0.0,0.0,0.0,0.0,0.0,0.0,0.0,0.0,0.0,0.0,0.0,0.0,0.0,0.0,0.0,0.0,0.0,0.0,0.0,0.0,0.0,0.0,0.0,0.0,0.0,0.0,0.0,0.0,0.0,0.0,0.0,0.0,0.0,0.0,0.0,0.0,0.0,0.0,0.0,0.0,0.0,4.6883,4.8431,5.008,5.1098,5.1383,5.3008,5.173,0.0,0.0,0.0,0.0,0.0,0.0,0.0,0.0,0.0,0.0,0.0,0.0,0.0,0.0,0.0,0.0,0.0,0.0,0.0,0.0,0.0,0.0,0.0,0.0,0.0,0.0,0.0,0.0,0.0,0.0,0.0,0.0,0.0,0.0,0.0,0.0,0.0,0.0,0.0,0.0,0.0,0.0,0.0,0.0,0.0,0.0,0.0,0.0,0.0,0.0,0.0,0.0,0.0,0.0,0.0,0.0,0.0,0.0,0.0,0.0,0.0,0.0,0.0,0.0,0.0,0.0,0.0,0.0,0.0,0.0,0.0,0.0,0.0,0.0,0.0,0.0,0.0,0.0,0.0,0.0,0.0,0.0,0.0,0.0,0.0,0.0,0.0,0.0,0.0,0.0,0.0,0.0,0.0,0.0,0.0,0.0,0.0,0.0,0.0,0.0,0.0,0.0,0.0,0.0,0.0,0.0,0.0,0.0,0.0,4.8681,0.0,5.2238,0.0,5.3262,5.0735,0.0,0.0,0.0,0.0,0.0,0.0,0.0,0.0,0.0,0.0,0.0,0.0,0.0,0.0,0.0,0.0,0.0,0.0,0.0,0.0,0.0,0.0,0.0,0.0,0.0,0.0,0.0,0.0,0.0,0.0,0.0,0.0,0.0,0.0,0.0,0.0,0.0,0.0,0.0,0.0,0.0,0.0,0.0,0.0,0.0,0.0,0.0,0.0,0.0,0.0,0.0,0.0,0.0,0.0,0.0,0.0,0.0,0.0,0.0,0.0,0.0,0.0,0.0,0.0,0.0,0.0,0.0,0.0,0.0,0.0,0.0,0.0,0.0,0.0,0.0,0.0,0.0,0.0,0.0,0.0,0.0,0.0,0.0,0.0,0.0,0.0,0.0,0.0,0.0,0.0,0.0,0.0,0.0,0.0,0.0,0.0,0.0,0.0,0.0,0.0,0.0,0.0,0.0,0.0,0.0,0.0,0.0,0.0,0.0,4.8797,4.9766,5.1311,5.3424,5.3582,5.1128,0.0,0.0,0.0,0.0,0.0,0.0,0.0,0.0,0.0,0.0,0.0,0.0,0.0,0.0,0.0,0.0,0.0,0.0,0.0,0.0,0.0,0.0,0.0,0.0,0.0,0.0,0.0,0.0,0.0,0.0,0.0,0.0,0.0,0.0,0.0,0.0,0.0,0.0,0.0,0.0,0.0,0.0,0.0,0.0,0.0,0.0,0.0,0.0,0.0,0.0,0.0,0.0,0.0,0.0,0.0,0.0,0.0,0.0,0.0,0.0,0.0,0.0,0.0,0.0,0.0,0.0,0.0,0.0,0.0,0.0,0.0,0.0,0.0,0.0,0.0,0.0,0.0,0.0,0.0,0.0,0.0,0.0,0.0,0.0,0.0,0.0,0.0,0.0,0.0,0.0,0.0,0.0,0.0,0.0,0.0,0.0,0.0,0.0,0.0,0.0,0.0,0.0,0.0,0.0,0.0,0.0,0.0,0.0,0.0,0.0,4.8769,4.8866,4.9333,5.3674,5.2498,0.0,0.0,0.0,0.0,0.0,0.0,0.0,0.0,0.0,0.0,0.0,0.0,0.0,0.0,0.0,0.0,0.0,0.0,0.0,0.0,0.0,0.0,0.0,0.0,0.0,0.0,0.0,0.0,0.0,0.0,0.0,0.0,0.0,0.0,0.0,0.0,0.0,0.0,0.0,0.0,0.0,0.0,0.0,0.0,0.0,0.0,0.0,0.0,0.0,0.0,0.0,0.0,0.0,0.0,0.0,0.0,0.0,0.0,0.0,0.0,0.0,0.0,0.0,0.0,0.0,0.0,0.0,0.0,0.0,0.0,0.0,0.0,0.0,0.0,0.0,0.0,0.0,0.0,0.0,0.0,0.0,0.0,0.0,0.0,0.0,0.0,0.0,0.0,0.0,0.0,0.0,0.0,0.0,0.0,0.0,0.0,0.0,0.0,0.0,0.0,0.0,0.0,0.0,0.0,0.0,0.0,0.0,0.0,0.0,0.0,5.1243,5.1304,4.9056,4.9427,4.8641,4.6431,0.0,0.0,0.0,0.0,0.0,0.0,0.0,0.0,0.0,0.0,0.0,0.0,0.0,0.0,0.0,0.0,0.0,0.0,0.0,0.0,0.0,0.0,0.0,0.0,0.0,0.0,0.0,0.0,0.0,0.0,0.0,0.0,0.0,0.0,0.0,0.0,0.0,0.0,0.0,0.0,0.0,0.0,0.0,0.0,0.0,0.0,0.0,0.0,0.0,0.0,0.0,0.0,0.0,0.0,0.0,0.0,0.0,0.0,0.0,0.0,0.0,0.0,0.0,0.0,0.0,0.0,0.0,0.0,0.0,0.0,0.0,0.0,0.0,0.0,0.0,0.0,0.0,0.0,0.0,0.0,0.0,0.0,0.0,0.0,0.0,0.0,0.0,0.0,0.0,0.0,0.0,0.0,0.0,0.0,0.0,0.0,0.0,0.0,0.0,0.0,0.0,0.0,0.0,0.0,0.0,0.0,0.0,0.0,0.0,0.0,5.0917,4.8856,4.8194,4.7333,0.0,0.0,0.0,0.0,0.0,0.0,0.0,0.0,0.0,0.0,0.0,0.0,0.0,0.0,0.0,0.0,0.0,0.0,0.0,0.0,0.0,0.0,0.0,0.0,0.0,0.0,0.0,0.0,0.0,0.0,0.0,0.0,0.0,0.0,0.0,0.0,0.0,0.0,0.0,0.0,0.0,0.0,0.0,0.0,0.0,0.0,0.0,0.0,0.0,0.0,0.0,0.0,0.0,0.0,0.0,0.0,0.0,0.0,0.0,0.0,0.0,0.0,0.0,0.0,0.0,0.0,0.0,0.0,0.0,0.0,0.0,0.0,0.0,0.0,0.0,0.0,0.0,0.0,0.0,0.0,0.0,0.0,0.0,0.0,0.0,0.0,0.0,0.0,0.0,0.0,0.0,0.0,0.0,0.0,0.0,0.0,0.0,0.0,0.0,0.0,0.0,0.0,0.0,0.0,0.0,0.0,0.0,0.0,0.0,0.0,0.0,4.8819,4.8737,4.8991,0.0,4.5125,0.0,0.0,0.0,0.0,0.0,0.0,0.0,0.0,0.0,0.0,0.0,0.0,0.0,0.0,0.0,0.0,0.0,0.0,0.0,0.0,0.0,0.0,0.0,0.0,0.0,0.0,0.0,0.0,0.0,0.0,0.0,0.0,0.0,0.0,0.0,0.0,0.0,0.0,0.0,0.0,0.0,0.0,0.0,0.0,0.0,0.0,0.0,0.0,0.0,0.0,0.0,0.0,0.0,0.0,0.0,0.0,0.0,0.0,0.0,0.0,0.0,0.0,0.0,0.0,0.0,0.0,0.0,0.0,0.0,0.0,0.0,0.0,0.0,0.0,0.0,0.0,0.0,0.0,0.0,0.0,0.0,0.0,0.0,0.0,0.0,0.0,0.0,0.0,0.0,0.0,0.0,0.0,0.0,0.0,0.0,0.0,0.0,0.0,0.0,0.0,0.0,0.0,0.0,0.0,0.0,0.0,0.0,0.0,0.0,0.0,0.0,0.0,4.8714,4.8039,4.6248,0.0,0.0,0.0,0.0,0.0,0.0,0.0,0.0,0.0,0.0,0.0,0.0,0.0,0.0,0.0,0.0,0.0,0.0,0.0,0.0,0.0,0.0,0.0,0.0,0.0,0.0,0.0,0.0,0.0,0.0,0.0,0.0,0.0,0.0,0.0,0.0,0.0,0.0,0.0,0.0,0.0,0.0,0.0,0.0,0.0,0.0,0.0,0.0,0.0,0.0,0.0,0.0,0.0,0.0,0.0,0.0,0.0,0.0,0.0,0.0,0.0,0.0,0.0,0.0,0.0,0.0,0.0,0.0,0.0,0.0,0.0,0.0,0.0,0.0,0.0,0.0,0.0,0.0,0.0,0.0,0.0,0.0,0.0,0.0,0.0,0.0,0.0,0.0,0.0,0.0,0.0,0.0,0.0,0.0,0.0,0.0,0.0,0.0,0.0,0.0,0.0,0.0,0.0,0.0,0.0,0.0,0.0,0.0,0.0,0.0,4.897,4.8928,4.8751,4.8433,4.7964,0.0,0.0,0.0,0.0,0.0,0.0,0.0,0.0,0.0,0.0,0.0,0.0,0.0,0.0,0.0,0.0,0.0,0.0,0.0,0.0,0.0,0.0,0.0,0.0,0.0,0.0,0.0,0.0,0.0,0.0,0.0,0.0,0.0,0.0,0.0,0.0,0.0,0.0,0.0,0.0,0.0,0.0,0.0,0.0,0.0,0.0,0.0,0.0,0.0,0.0,0.0,0.0,0.0,0.0,0.0,0.0,0.0,0.0,0.0,0.0,0.0,0.0,0.0,0.0,0.0,0.0,0.0,0.0,0.0,0.0,0.0,0.0,0.0,0.0,0.0,0.0,0.0,0.0,0.0,0.0,0.0,0.0,0.0,0.0,0.0,0.0,0.0,0.0,0.0,0.0,0.0,0.0,0.0,0.0,0.0,0.0,0.0,0.0,0.0,0.0,0.0,0.0,0.0,0.0,0.0,0.0,0.0,0.0,0.0,0.0,4.9011,0.0,0.0,0.0,4.9381,0.0,0.0,0.0,0.0,0.0,0.0,0.0,0.0,0.0,0.0,0.0,0.0,0.0,0.0,0.0,0.0,0.0,0.0,0.0,0.0,0.0,0.0,0.0,0.0,0.0,0.0,0.0,0.0,0.0,0.0,0.0,0.0,0.0,0.0,0.0,0.0,0.0,0.0,0.0,0.0,0.0,0.0,0.0,0.0,0.0,0.0,0.0,0.0,0.0,0.0,0.0,0.0,0.0,0.0,0.0,0.0,0.0,0.0,0.0,0.0,0.0,0.0,0.0,0.0,0.0,0.0,0.0,0.0,0.0,0.0,0.0,0.0,0.0,0.0,0.0,0.0,0.0,0.0,0.0,0.0,0.0,0.0,0.0,0.0,0.0,0.0,0.0,0.0,0.0,0.0,0.0,0.0,0.0,0.0,0.0,0.0,0.0,0.0,0.0,0.0,0.0,0.0,0.0,0.0,0.0,0.0,0.0,0.0,0.0,0.0,0.0,0.0,0.0,0.0,0.0,0.0,0.0,0.0,0.0,0.0,0.0,0.0,0.0,0.0,0.0,0.0,0.0,0.0,0.0,0.0,0.0,0.0,0.0,0.0,0.0,0.0,0.0,0.0,0.0,0.0,0.0,0.0,0.0,0.0,0.0,0.0,0.0,0.0,0.0,0.0,0.0,0.0,0.0,0.0,0.0,0.0,0.0,0.0,0.0,0.0,0.0,0.0,0.0,0.0,0.0,0.0,0.0,0.0,0.0,0.0,0.0,0.0,0.0,0.0,0.0,0.0,0.0,0.0,0.0,0.0,0.0,0.0,0.0,0.0,0.0,0.0,0.0,0.0,0.0,0.0,0.0,0.0,0.0,0.0,0.0,0.0,0.0,0.0,0.0,0.0,0.0,0.0,0.0,0.0,0.0,0.0,0.0,0.0,0.0,0.0,0.0,0.0,0.0,0.0,0.0,0.0,0.0,0.0,0.0,0.0,0.0,0.0,0.0,0.0,0.0,0.0,0.0,0.0,0.0,0.0,0.0,0.0,0.0,0.0,0.0,0.0,0.0,0.0,0.0,0.0,0.0,0.0,0.0,0.0,0.0,0.0,0.0,0.0,0.0,0.0,0.0,0.0,0.0,0.0,0.0,0.0,0.0,0.0,0.0,0.0,0.0,0.0,0.0,0.0,0.0,0.0,0.0,0.0,0.0,0.0,0.0,0.0,0.0,0.0,0.0,0.0,0.0,0.0,0.0,0.0,0.0,0.0,0.0,0.0,0.0,0.0,0.0,0.0,0.0,0.0,0.0,0.0,0.0,0.0,0.0,0.0,0.0,0.0,0.0,0.0,0.0,0.0,0.0,0.0,0.0,0.0,0.0,0.0,0.0,0.0,0.0,0.0,0.0,0.0,0.0,0.0,0.0,0.0,0.0,0.0,0.0,0.0,0.0,0.0,0.0,0.0,0.0,0.0,0.0,0.0,0.0,0.0,0.0,0.0,0.0,0.0,0.0,0.0,0.0,0.0,0.0,0.0,0.0,0.0,0.0,0.0,0.0,0.0,0.0,0.0,0.0,0.0,0.0,0.0,0.0,0.0,0.0,0.0,0.0,0.0,0.0,0.0,0.0,0.0,0.0,0.0,0.0,0.0,0.0,0.0,0.0,0.0,0.0,0.0,0.0,0.0,0.0,0.0,0.0,0.0,0.0,0.0,0.0,0.0,0.0,0.0,0.0,0.0,0.0,0.0,0.0,0.0,0.0,0.0,0.0,0.0,0.0,0.0,0.0,0.0,0.0,0.0,0.0,0.0,0.0,0.0,0.0,0.0,0.0,0.0,0.0,0.0,0.0,0.0,0.0,0.0,0.0,0.0,0.0,0.0,0.0,0.0,0.0,0.0,0.0,0.0,0.0,0.0,0.0,0.0,0.0,0.0,0.0,0.0,0.0,0.0,0.0,0.0,0.0,0.0,0.0,0.0,0.0,0.0,0.0,0.0,0.0,0.0,0.0,0.0,0.0,0.0,0.0,0.0,0.0,0.0,0.0,0.0,0.0,0.0,0.0,0.0,0.0,0.0,0.0,0.0,0.0,0.0,0.0,0.0,0.0,0.0,0.0,0.0,0.0,0.0,0.0,0.0,0.0,0.0,0.0,0.0,0.0,0.0,0.0,0.0,0.0,0.0,0.0,0.0,0.0,0.0,0.0,0.0,0.0,0.0,0.0,0.0,0.0,0.0,0.0,0.0,0.0,0.0,0.0,0.0,0.0,0.0,0.0,0.0,0.0,0.0,0.0,0.0,0.0,0.0,0.0,0.0,0.0,0.0,0.0,0.0,0.0,0.0,0.0,0.0,0.0,0.0,0.0,0.0,0.0,0.0,0.0,0.0,0.0,0.0,0.0,0.0,0.0,0.0,0.0,0.0,0.0,0.0,0.0,0.0,0.0,0.0,0.0,0.0,0.0,0.0,0.0,0.0,0.0,0.0,0.0,0.0,0.0,0.0,0.0,0.0,0.0,0.0,0.0,0.0,0.0,0.0,0.0,0.0,0.0,0.0,0.0,0.0,0.0,0.0,0.0,0.0,0.0,0.0,0.0,0.0,0.0,0.0,0.0,0.0,0.0,0.0,0.0,0.0,0.0,0.0,0.0,0.0,0.0,0.0,0.0,0.0,0.0,0.0,0.0,0.0,0.0,0.0,0.0,0.0,0.0,0.0,0.0,0.0,0.0,0.0,0.0,0.0,0.0,0.0,0.0,0.0,0.0,0.0,0.0,0.0,0.0,0.0,0.0,0.0,0.0,0.0,0.0,0.0,0.0,0.0,0.0,0.0,0.0,0.0,0.0,0.0,0.0,0.0,0.0,0.0,0.0,0.0,0.0,0.0,0.0,0.0,0.0,0.0,0.0,0.0,0.0,0.0,0.0,0.0,0.0,0.0,0.0,0.0,0.0,0.0,0.0,0.0,0.0,0.0,0.0,0.0,0.0,0.0,0.0,0.0,0.0,0.0,0.0,0.0,0.0,0.0,0.0,0.0,0.0,0.0,0.0,0.0,0.0,0.0,0.0,0.0,0.0,0.0,0.0,0.0,0.0,0.0,0.0,0.0,0.0,0.0,0.0,0.0,0.0,0.0,0.0,0.0,0.0,0.0,0.0,0.0,0.0,0.0,0.0,0.0,0.0,0.0,0.0,0.0,0.0,0.0,0.0,0.0,0.0,0.0,0.0,0.0,0.0,0.0,0.0,0.0,0.0,0.0,0.0,0.0,0.0,0.0,0.0,0.0,0.0,0.0,0.0,0.0,0.0,0.0,0.0,0.0,0.0,0.0,0.0,0.0,0.0,0.0,0.0,0.0,0.0,0.0,0.0,0.0,0.0,0.0,0.0,0.0,0.0,0.0,0.0,0.0,0.0,0.0,0.0,0.0,0.0,0.0,0.0,0.0,0.0,0.0,0.0,0.0,0.0,0.0,0.0,0.0,0.0,0.0,0.0,0.0,0.0,0.0,0.0,0.0,0.0,0.0,0.0,0.0,0.0,0.0,0.0,0.0,0.0,0.0,0.0,0.0,0.0,0.0,0.0,0.0,0.0,0.0,0.0,0.0,0.0,0.0,0.0,0.0,0.0,0.0,0.0,0.0,0.0,0.0,0.0,0.0,0.0,0.0,0.0,0.0,0.0,0.0,0.0,0.0,0.0,0.0,0.0,0.0,0.0,0.0,0.0,0.0,0.0,0.0,0.0,0.0,0.0,0.0,0.0,0.0,0.0,0.0,0.0,0.0,0.0,0.0,0.0,0.0,0.0,0.0,0.0,0.0,0.0,0.0,0.0,0.0,0.0,0.0,0.0,0.0,0.0,0.0,0.0,0.0,0.0,0.0,0.0,0.0,0.0,0.0,0.0,0.0,0.0,0.0,0.0,0.0,0.0,0.0,0.0,0.0,0.0,0.0,0.0,0.0,0.0,0.0,0.0,0.0,0.0,0.0,0.0,0.0,0.0,0.0,0.0,0.0,0.0,0.0,0.0,0.0,0.0,0.0,0.0,0.0,0.0,0.0,0.0,0.0,0.0,0.0,0.0,0.0,0.0,0.0,0.0,0.0,0.0,0.0,0.0,0.0,0.0,0.0,0.0,0.0,0.0,0.0,0.0,0.0,0.0,0.0,0.0,0.0,0.0,0.0,0.0,0.0,0.0,0.0,0.0,0.0,0.0,0.0,0.0,0.0,0.0,0.0,0.0,0.0,0.0,0.0,0.0,0.0,0.0,0.0,0.0,0.0,0.0,0.0,0.0,0.0,0.0,0.0,0.0,0.0,0.0,0.0,0.0,0.0,0.0,0.0,0.0,0.0,0.0,0.0,0.0,0.0,0.0,0.0,0.0,0.0,0.0,0.0,0.0,0.0]}],[{"header":{"parameterUnit":"kt","parameterCategory":2,"dx":1,"dy":1,"la1":29.587661999999998,"la2":31.0,"lo1":-88.76705300000003,"lo2":-86.6583820000003,"nx":115,"ny":88,"refTime":"2022-10-30T18:00:00:Z","depth":0,"parameterNumber":2,"parameterNumberName":"V-component_of_WINDS"},"data":[8.2295,8.4387,8.4355,8.516,8.6351,8.6738,8.6255,8.5482,8.6384,8.5781,8.389,8.3295,8.2876,8.386,8.2643,8.0946,7.8279,7.7126,7.5785,7.4522,7.4405,7.4259,7.4259,7.4259,7.4259,7.4259,7.4259,7.4259,7.4259,7.4259,7.4259,7.4259,7.4259,7.4316,7.4485,7.5359,7.6056,7.5895,7.5859,7.5719,7.4317,7.324,7.2223,7.2208,7.2836,7.3137,7.3765,7.5349,7.6032,7.6387,7.6305,7.6769,7.7206,7.7588,7.7113,7.6244,7.5353,7.3417,7.1307,6.9678,6.8772,6.7691,6.7691,6.7691,6.7502,6.7502,6.6932,6.6765,6.6383,6.6237,6.5853,6.5468,6.5274,6.5081,6.5103,6.491,6.4693,6.4693,6.4693,6.4693,6.4693,6.4693,6.4693,6.4715,6.4715,6.476,6.4782,6.4637,6.4748,6.3782,6.2927,5.808,5.3319,5.1016,4.9056,4.8796,4.826,4.7831,4.7283,4.6328,4.5802,4.5514,4.5166,4.5104,4.462,4.4603,4.4354,4.4402,4.3988,4.4021,4.3888,4.3575,4.3019,4.2166,4.0198,8.2552,8.2874,8.2971,8.3776,8.5128,8.6287,8.6609,8.648,8.6706,8.6491,8.5644,8.2405,8.1098,8.0694,7.9743,7.8902,7.8011,7.6801,7.5692,7.4671,7.4239,7.3667,7.3723,7.4005,7.3808,7.3779,7.4033,7.409,7.4259,7.4259,7.4259,7.4259,7.4259,7.4259,7.4654,7.5416,7.5709,7.5436,7.526,7.4983,7.3833,7.2896,7.2004,7.1744,7.2044,7.2099,7.2126,7.2509,7.2563,7.3164,7.412,7.519,7.6225,7.6743,7.6397,7.536,7.4303,7.2549,7.06,6.8959,6.8233,6.7691,6.7691,6.7502,6.7502,6.7123,6.6383,6.6022,6.583,6.5445,6.5081,6.4887,6.4887,6.4693,6.4693,6.4693,6.4693,6.4693,6.4693,6.4693,6.4693,6.4693,6.4715,6.4715,6.476,6.4654,6.481,6.4706,6.4267,6.2606,5.9503,5.4739,5.1177,4.9684,4.8069,4.7574,4.7112,4.6687,4.6145,4.5252,4.4715,4.4619,4.447,4.3874,4.3857,4.4104,4.4117,4.4034,4.3821,4.3675,4.3101,4.2334,4.1533,3.974,3.8297,8.1941,8.2649,8.2681,8.3486,8.4613,8.4548,8.4516,8.4516,8.4516,8.4967,8.5128,8.2986,8.1219,8.0398,7.9971,7.9291,7.7951,7.6278,7.5084,7.3629,7.2676,7.2624,7.22,7.203,7.2369,7.251,7.2877,7.3667,7.4203,7.4203,7.4146,7.4259,7.4259,7.4287,7.4457,7.5063,7.5268,7.4298,7.4567,7.3213,7.0729,7.0308,6.9941,6.9914,7.0051,7.0378,7.0679,7.1607,7.2072,7.2918,7.3191,7.4563,7.4713,7.5547,7.4809,7.3665,7.2244,7.0942,6.9331,6.8045,6.7312,6.7146,6.7146,6.6955,6.6955,6.6383,6.583,6.5638,6.5252,6.5081,6.4887,6.4693,6.4693,6.4693,6.4693,6.4693,6.4693,6.4581,6.4448,6.4425,6.4336,6.4336,6.3905,6.3711,6.3303,6.3195,6.1347,6.0777,6.1179,6.0555,5.5614,5.14,4.9221,4.7522,4.6602,4.6179,4.5707,4.5405,4.5036,4.457,4.4304,4.4071,4.4017,4.3888,4.3888,4.3771,4.3788,4.4034,4.3821,4.2089,4.1342,4.0809,3.9013,3.7041,3.4227,8.1651,8.2617,8.2681,8.3261,8.413,8.3454,8.3261,8.3132,8.252,8.2778,8.3389,8.2584,8.1411,8.0385,7.9954,7.9044,7.7754,7.6196,7.4674,7.3487,7.2134,7.1874,7.1229,7.1293,7.0789,7.093,7.1466,7.2425,7.282,7.3102,7.33,7.3272,7.3131,7.2846,7.293,7.3203,7.3218,7.199,7.2109,7.0987,6.924,6.8665,6.8474,6.8439,6.8521,6.9067,6.9668,7.0733,7.1853,7.2727,7.3,7.3059,7.262,7.3166,7.2588,7.1318,7.0215,6.9091,6.804,6.7481,6.6909,6.6597,6.6597,6.6406,6.6,6.566,6.5274,6.5274,6.5081,6.4887,6.4693,6.4693,6.4693,6.4693,6.4693,6.4693,6.4693,6.4425,6.3942,6.4001,6.389,6.3439,6.2817,6.2323,6.1738,6.0098,5.7801,5.6853,5.7077,5.5396,5.01,4.8517,4.6568,4.5994,4.5321,4.4819,4.4753,4.4485,4.4418,4.4268,4.3904,4.4034,4.4034,4.3804,4.3214,4.2432,4.2188,4.2676,4.149,3.9599,3.8411,3.72,3.5649,3.3019,2.9816,8.2552,8.2713,8.2681,8.2778,8.3003,8.3937,8.4387,8.4355,8.1941,8.0846,8.1103,8.0846,8.0781,8.0047,7.9363,7.8456,7.7518,7.5929,7.4581,7.432,7.2288,7.1242,7.1059,7.1081,6.9995,7.0281,7.0761,7.093,7.0958,7.1325,7.1494,7.0873,7.0987,7.11,7.1071,7.1123,7.0614,6.9598,6.9173,6.8912,6.8255,6.8166,6.8474,6.8139,6.8112,6.8303,6.8712,6.9395,7.0324,7.0788,7.1362,7.2235,7.2098,7.2194,7.2257,7.1084,6.8664,6.7783,6.7408,6.6868,6.6551,6.6429,6.6237,6.5863,6.5353,6.4644,6.4385,6.4193,6.4081,6.389,6.3867,6.3867,6.389,6.389,6.3867,6.3867,6.3756,6.3488,6.2941,6.2207,6.1907,6.1572,6.0957,5.8688,5.7857,5.5024,5.3105,5.2279,5.1474,4.8802,4.619,4.523,4.4834,4.4851,4.4154,4.4171,4.3988,4.3904,4.4117,4.4,4.3538,4.3621,4.4,4.2822,4.1654,4.0976,3.9787,3.8752,3.759,3.6133,3.5078,3.3888,3.1496,2.8688,2.6472,8.3937,8.384,8.3035,8.2681,8.2617,8.2327,8.2745,8.3261,8.2327,8.1812,8.178,8.1812,8.0846,7.9578,7.8883,7.8376,7.7913,7.5922,7.4558,7.3704,7.1296,7.0673,6.9398,6.8489,6.8503,6.8673,6.8955,6.9491,6.9745,7.0027,7.0368,7.0145,7.0146,7.0034,6.9614,6.911,6.8331,6.7167,6.6421,6.6173,6.6091,6.6091,6.6173,6.6063,6.6063,6.6582,6.721,6.7483,6.8822,7.0105,7.1252,7.2247,7.3018,7.2394,7.2331,6.9713,6.76,6.7125,6.6639,6.6252,6.6146,6.5853,6.5468,6.4835,6.4104,6.3554,6.3343,6.3198,6.3064,6.2997,6.2952,6.293,6.2952,6.2975,6.2952,6.293,6.2518,6.2252,6.1477,6.0663,5.995,5.9619,5.7962,5.5721,5.3362,5.1747,5.0495,4.9185,4.6806,4.5268,4.4599,4.3888,4.405,4.3984,4.4067,4.4117,4.3755,4.3655,4.3766,4.3338,4.3172,4.2913,4.2863,4.1813,4.0355,3.8554,3.6835,3.5555,3.3934,3.3246,3.2255,3.0599,2.845,2.6004,2.557,8.4806,8.4709,8.3711,8.3261,8.31,8.2198,8.2295,8.3196,8.3261,8.3293,8.3261,8.3261,8.2102,7.9719,7.9236,7.9064,7.7911,7.6409,7.5199,7.4181,7.3011,7.0473,6.901,6.8309,6.7345,6.7422,6.7713,6.8221,6.8475,6.8842,6.9214,6.9136,6.8715,6.8581,6.8222,6.7942,6.6617,6.5408,6.5135,6.5107,6.5053,6.508,6.5053,6.508,6.5107,6.5408,6.6118,6.65,6.8057,6.9641,7.0897,7.2328,7.3476,7.2928,7.1058,6.8256,6.6778,6.6147,6.5613,6.5369,6.5103,6.4261,6.4048,6.2841,6.2283,6.1926,6.1971,6.2127,6.2171,6.2283,6.2305,6.2261,6.2238,6.2261,6.2238,6.1962,6.1367,6.1079,6.054,5.934,5.7549,5.7034,5.5515,5.3316,5.1287,4.9917,4.8178,4.6063,4.4172,4.4368,4.3871,4.405,4.4,4.3816,4.385,4.3422,4.3388,4.3289,4.2989,4.2723,4.2126,4.1771,4.1911,4.1038,3.9182,3.6998,3.4344,3.2069,3.0416,2.974,2.9466,2.7582,2.6026,2.5508,2.4914,8.5069,8.4806,8.4774,8.4677,8.4677,8.4259,8.4355,8.4465,8.4645,8.4677,8.4645,8.4548,8.3518,8.2263,8.1007,8.0382,7.9587,7.8184,7.7927,7.7408,7.4861,7.3375,7.1446,6.9655,6.8379,6.7441,6.7403,6.8108,6.7149,6.7911,6.777,6.7242,6.7095,6.6882,6.6476,6.5902,6.5381,6.4971,6.4752,6.4752,6.4752,6.4752,6.4752,6.4752,6.4752,6.4944,6.5244,6.5815,6.762,6.8976,7.0094,7.1565,7.2157,7.1775,6.915,6.6561,6.392,6.3858,6.3826,6.4368,6.3672,6.2297,6.1837,6.1837,6.148,6.1189,6.1056,6.11,6.1056,6.1323,6.1457,6.1184,6.1117,6.0932,6.0932,6.0637,6.0047,5.9644,5.8905,5.7867,5.6091,5.4447,5.2994,5.0989,4.8804,4.7534,4.6104,4.3867,4.3211,4.3255,4.3692,4.3709,4.3709,4.3482,4.3105,4.2789,4.2673,4.2109,4.1862,4.1557,4.0837,4.0268,3.9343,3.8139,3.7302,3.52,3.2076,2.9447,2.7509,2.6763,2.6718,2.5667,2.6095,2.5471,2.5471,8.5216,8.5069,8.4806,8.4838,8.4677,8.3776,8.3389,8.3583,8.4387,8.4838,8.4774,8.4742,8.3969,8.2842,8.2166,8.1684,8.133,7.9714,7.9325,7.8771,7.6176,7.3881,7.2041,7.0293,6.8962,6.8744,6.8673,6.8588,6.7742,6.7967,6.7572,6.6876,6.6395,6.5884,6.5265,6.486,6.4561,6.4534,6.4616,6.4643,6.4671,6.4752,6.4752,6.4752,6.4616,6.467,6.4916,6.5324,6.6165,6.7368,6.8221,6.8573,6.9262,6.8884,6.7554,6.5911,6.4106,6.4261,6.3368,6.3358,6.1832,6.0185,5.9828,5.9784,5.9784,5.9826,5.9962,5.9917,5.9694,5.938,5.8997,5.8751,5.8345,5.7619,5.7619,5.7662,5.733,5.733,5.6709,5.6345,5.4955,5.2848,5.0942,4.8696,4.6556,4.5301,4.4071,4.3126,4.2257,4.2651,4.289,4.313,4.3164,4.2529,4.2001,4.1647,4.1311,4.074,4.0487,4.0096,3.9387,3.7462,3.6092,3.4803,3.3542,3.1787,2.9216,2.7805,2.6806,2.5841,2.5127,2.5517,2.5869,2.6097,2.6427,8.4129,8.3906,8.3648,8.3389,8.3196,8.2295,8.1941,8.2102,8.2842,8.3325,8.3357,8.3357,8.2745,8.2005,8.1393,8.1153,8.1091,7.9922,7.9471,7.9097,7.6811,7.4035,7.206,7.0831,6.934,6.8395,6.8024,6.7742,6.779,6.7224,6.6867,6.6961,6.6339,6.5312,6.4304,6.3685,6.3578,6.3633,6.4015,6.4179,6.4234,6.4561,6.4752,6.4752,6.4479,6.4586,6.4908,6.4543,6.6014,6.8007,6.7608,6.7974,6.8576,6.7521,6.5988,6.4153,6.3437,6.3825,6.3258,6.1584,6.0007,5.936,5.8936,5.8781,5.8249,5.8204,5.8204,5.8315,5.8492,5.8091,5.745,5.7271,5.6649,5.5888,5.5485,5.5485,5.5052,5.5031,5.465,5.4289,5.318,5.0898,4.8831,4.655,4.4571,4.3147,4.2601,4.1686,4.1048,4.1574,4.1963,4.2182,4.1996,4.1289,4.0584,3.9978,3.9477,3.8157,3.7694,3.7817,3.6493,3.4645,3.3353,3.2599,3.0348,2.8328,2.7653,2.6761,2.5942,2.5388,2.5106,2.521,2.5855,2.6273,2.615,8.1692,8.1089,8.1219,8.0872,8.0614,8.0395,8.0459,8.0524,8.0781,8.091,8.1007,8.0942,8.0781,8.0524,7.9912,8.0028,8.0207,7.8932,7.8535,7.8938,7.7237,7.5278,7.3346,7.1387,6.9759,6.6224,6.619,6.667,6.5754,6.5795,6.5964,6.606,6.534,6.439,6.1908,6.1386,6.1284,6.1448,6.2513,6.2841,6.3141,6.3769,6.4042,6.3935,6.3473,6.3659,6.3947,6.3934,6.4826,6.6705,6.6689,6.6724,6.7397,6.6236,6.4451,6.2394,6.1777,6.1827,6.2232,6.0174,5.902,5.8638,5.7998,5.7783,5.7387,5.7275,5.7056,5.6531,5.6792,5.6923,5.6897,5.6897,5.6011,5.5189,5.4746,5.444,5.3581,5.3175,5.2619,5.2083,5.048,4.8615,4.6344,4.444,4.2689,4.1641,4.1136,4.06,4.0018,4.0138,4.0523,4.0539,4.0539,3.9759,3.8935,3.8337,3.7233,3.5606,3.4731,3.4541,3.3539,3.2003,3.1246,3.068,2.902,2.7274,2.644,2.591,2.5545,2.5168,2.5074,2.4924,2.5827,2.5722,2.4054,8.2441,8.2132,8.1143,8.0007,7.897,7.9753,7.9723,7.9344,8.0009,8.0524,8.0524,8.0524,8.0524,8.0427,7.9944,8.0028,7.9537,7.9252,7.9107,7.8382,7.7408,7.5828,7.4225,7.248,7.0699,6.9431,6.8363,6.6857,6.5924,6.5114,6.4608,6.3932,6.3325,6.2689,6.1368,6.1432,6.1229,6.1229,6.1612,6.1721,6.1721,6.2185,6.2404,6.2299,6.161,6.1825,6.2407,6.268,6.335,6.4149,6.4404,6.404,6.4073,6.3517,6.236,6.1898,6.152,6.1442,6.0369,5.9154,5.8894,5.8254,5.7461,5.6325,5.5678,5.5506,5.5074,5.4792,5.4532,5.4187,5.3295,5.3744,5.3476,5.3133,5.2935,5.281,5.1983,5.1385,5.0836,4.993,4.778,4.5798,4.4186,4.3211,4.1627,4.0245,3.9601,3.8941,3.8711,3.8775,3.9005,3.8855,3.8688,3.8022,3.733,3.6667,3.5741,3.4027,3.2739,3.2177,3.0839,2.9739,2.8713,2.8451,2.7686,2.6358,2.5402,2.4624,2.4613,2.455,2.446,2.432,2.4366,2.1813,2.0553,8.1927,8.1736,8.0659,7.9603,7.872,7.9428,7.9207,7.8455,7.9066,7.9277,7.885,7.8914,7.8914,7.885,7.8806,7.8558,7.8371,7.8073,7.7724,7.7082,7.6479,7.5169,7.4158,7.2678,7.138,6.9107,6.7843,6.6707,6.5456,6.3582,6.2629,6.1752,6.0851,6.0366,6.0033,5.9661,5.9618,5.9782,6.0164,6.0492,6.0574,6.0664,6.0787,6.0657,5.9923,5.9846,6.0689,6.0691,6.1483,6.2122,6.2418,6.2586,6.2689,6.2196,6.1302,6.0549,6.0906,6.0453,5.9549,5.8543,5.8528,5.7675,5.6158,5.4506,5.3632,5.3504,5.3075,5.2861,5.2816,5.2769,5.1867,5.1632,5.1202,5.0627,5.0492,5.0392,5.019,4.9854,4.9271,4.8356,4.6055,4.3751,4.2842,4.1927,4.0409,3.882,3.8123,3.7524,3.7455,3.737,3.7448,3.7315,3.6999,3.6241,3.603,3.505,3.4056,3.257,3.1274,2.98,2.8166,2.7065,2.7043,2.6549,2.589,2.5497,2.4906,2.3741,2.2728,2.2339,2.2452,2.2763,2.0294,1.7363,1.5915,8.0633,8.0461,8.0287,7.9935,7.9633,7.9599,7.8968,7.8088,7.8022,7.7692,7.7346,7.6675,7.6933,7.6596,7.6611,7.6303,7.5909,7.528,7.5412,7.5303,7.469,7.4243,7.3593,7.2532,7.1037,6.8002,6.6383,6.5027,6.3281,6.2221,6.0787,6.0142,5.9139,5.8086,5.7937,5.8198,5.8143,5.8307,5.8498,5.8881,5.8659,5.896,5.9195,5.907,5.8548,5.831,5.9475,5.9788,6.0506,6.1601,6.2163,6.2389,6.2045,6.1725,6.1156,6.0509,6.0581,6.0084,5.9195,5.822,5.7731,5.7357,5.5866,5.3283,5.1844,5.1473,5.1404,5.1177,5.097,5.0943,5.1067,5.1232,5.0365,4.9766,4.9391,4.9079,4.8363,4.8091,4.7421,4.665,4.5041,4.276,4.1704,4.0262,3.8575,3.7813,3.7135,3.6761,3.6582,3.6013,3.5833,3.5773,3.5263,3.4634,3.4469,3.3308,3.1744,3.0434,2.9397,2.772,2.6207,2.5685,2.5731,2.5497,2.5593,2.5212,2.4644,2.2141,2.0336,1.9838,1.9335,1.8908,1.7069,1.5601,1.3774,8.1912,8.2609,8.2254,8.1623,8.0923,8.0529,7.9722,7.9001,7.8874,7.872,7.8373,7.7694,7.696,7.6513,7.6338,7.5992,7.5781,7.5431,7.5248,7.4955,7.4737,7.4375,7.3899,7.2984,7.1667,6.9705,6.6882,6.4918,6.3397,6.1266,5.9235,5.8532,5.8097,5.7691,5.7543,5.7543,5.7543,5.7515,5.7242,5.6375,5.5528,5.5988,5.5996,5.5932,5.6214,5.7171,5.8199,5.8712,5.9496,6.0411,6.1046,6.1506,6.1508,6.1532,6.1194,6.0934,6.0692,6.0204,5.9123,5.8199,5.6961,5.5557,5.3587,5.2807,5.0604,4.9626,4.9501,4.9074,4.8885,4.8824,4.8703,4.8784,4.8736,4.8797,4.8397,4.7439,4.6753,4.6017,4.5214,4.3964,4.253,4.0892,3.9383,3.8203,3.7424,3.6582,3.6418,3.6223,3.5474,3.4722,3.4469,3.4308,3.346,3.2254,3.1635,3.0692,2.9476,2.8174,2.7467,2.6463,2.6193,2.5678,2.5169,2.521,2.5377,2.4826,2.3626,2.058,1.778,1.7421,1.6869,1.5711,1.4949,1.4632,1.3288,8.0694,8.1241,8.1057,8.0538,7.9918,7.9645,7.93,7.8954,7.9001,7.9071,7.912,7.8244,7.7497,7.696,7.6306,7.596,7.5675,7.5355,7.5172,7.4846,7.4768,7.4627,7.4313,7.3837,7.2817,7.0744,6.8011,6.5737,6.3663,6.117,5.9012,5.8752,5.8207,5.7664,5.7543,5.7543,5.7543,5.7351,5.6794,5.5821,5.49,5.4791,5.4785,5.5033,5.5461,5.6434,5.7454,5.8087,5.8734,5.8734,5.9953,6.036,6.0487,6.0847,6.0954,6.0771,6.0593,5.9896,5.8757,5.8085,5.632,5.4389,5.3475,5.2507,5.023,4.8882,4.8095,4.7681,4.7701,4.7762,4.7802,4.7722,4.7722,4.7408,4.7291,4.6291,4.5235,4.4382,4.3034,4.1321,3.9553,3.799,3.64,3.5671,3.5039,3.4469,3.4178,3.4062,3.3826,3.3423,3.3259,3.3052,3.169,3.0217,2.9402,2.8463,2.7379,2.7096,2.6361,2.5797,2.5603,2.5548,2.5232,2.5094,2.3834,2.2852,2.2208,1.9332,1.5738,1.4974,1.4614,1.3056,1.1894,1.173,1.1336,7.864,7.8605,7.8534,7.8285,7.8098,7.802,7.8146,7.8376,7.8445,7.869,7.8857,7.8021,7.7355,7.6873,7.5979,7.5215,7.4794,7.4284,7.3975,7.3728,7.3714,7.3714,7.3998,7.4186,7.2649,7.078,6.813,6.6162,6.4168,6.1406,5.9747,5.9354,5.8356,5.7757,5.7543,5.7543,5.7543,5.7543,5.7394,5.6866,5.6039,5.5054,5.515,5.5537,5.5936,5.6457,5.745,5.8327,5.8632,5.8099,5.9445,5.9529,5.9022,5.9605,5.9814,5.9198,5.8855,5.8462,5.7892,5.6779,5.5186,5.3897,5.3087,5.1722,4.9754,4.8303,4.757,4.74,4.7134,4.6994,4.6729,4.6928,4.7174,4.6703,4.6009,4.5051,4.3897,4.2665,4.1047,3.9369,3.7144,3.527,3.4042,3.3318,3.2799,3.2315,3.1829,3.2073,3.2173,3.233,3.2387,3.1438,3.0224,2.9161,2.8095,2.687,2.6221,2.619,2.5483,2.4716,2.4779,2.4832,2.4654,2.3527,2.1214,1.9883,1.8562,1.6425,1.387,1.2496,1.2103,1.0753,0.9191,0.8808,0.8808,7.8675,7.871,7.8322,7.8178,7.8032,7.7811,7.765,7.7739,7.7731,7.7783,7.7718,7.6939,7.6156,7.5348,7.4439,7.3385,7.2151,7.2041,7.1888,7.1774,7.1668,7.1511,7.1448,7.1228,7.1007,6.9825,6.7265,6.576,6.4332,6.1517,5.9733,5.9048,5.818,5.7543,5.7543,5.7543,5.7543,5.73,5.7028,5.6149,5.5408,5.4818,5.4815,5.5342,5.693,5.7769,5.8023,5.8912,5.9217,5.9124,5.9334,5.9541,5.9516,5.9349,5.833,5.6479,5.6132,5.5872,5.559,5.4988,5.4403,5.3223,5.2474,5.0607,4.8818,4.7986,4.6938,4.543,4.521,4.531,4.5087,4.4748,4.4768,4.4788,4.4485,4.3721,4.2475,4.0715,3.913,3.6972,3.4572,3.3147,3.257,3.2026,3.1882,3.1388,3.136,3.1388,3.136,3.1459,3.1105,3.0191,2.9156,2.7975,2.6858,2.5647,2.4961,2.4864,2.4301,2.3853,2.3894,2.3934,2.3359,2.2642,1.9914,1.6542,1.4384,1.2302,1.1043,1.0245,0.975,0.8782,0.7363,0.6774,0.6202,7.6759,7.6392,7.6116,7.5905,7.5763,7.5547,7.5818,7.6477,7.6581,7.6928,7.7109,7.6621,7.5904,7.5284,7.4415,7.3234,7.222,7.1596,7.112,7.0567,7.0567,7.0567,7.0661,7.063,7.0032,6.8969,6.6907,6.5324,6.4109,6.1842,6.0343,5.9156,5.8476,5.7998,5.7636,5.7461,5.7421,5.7245,5.7198,5.6726,5.5574,5.6058,5.5997,5.6185,5.6676,5.7235,5.7692,5.8287,5.8095,5.7791,5.7668,5.7399,5.7082,5.6746,5.6341,5.5385,5.4997,5.4807,5.464,5.464,5.4092,5.3064,5.3135,5.1609,4.9808,4.8106,4.7247,4.5694,4.4908,4.4138,4.392,4.4057,4.3999,4.3839,4.3201,4.238,4.1031,3.8869,3.6962,3.4782,3.2897,3.1622,3.1047,3.1061,3.0976,3.0933,3.0905,3.0848,3.0791,3.0582,3.0166,2.9302,2.8307,2.708,2.5647,2.4468,2.356,2.3434,2.3052,2.2933,2.2972,2.2642,2.2254,2.0524,1.7485,1.377,1.1796,1.0521,0.9155,0.7987,0.7617,0.6863,0.5721,0.4395,0.3633,7.4786,7.4193,7.3936,7.3735,7.3496,7.3254,7.3982,7.4916,7.502,7.5748,7.6541,7.599,7.5435,7.5068,7.4356,7.3373,7.1902,7.0928,7.0375,6.9599,6.9497,6.9465,6.9371,6.9308,6.9465,6.8946,6.6989,6.487,6.3811,6.2463,6.0528,5.9257,5.8454,5.7877,5.7172,5.7281,5.7051,5.6406,5.7092,5.6883,5.6241,5.6623,5.7198,5.6813,5.6244,5.626,5.6742,5.6465,5.5898,5.5008,5.5459,5.5021,5.4274,5.4131,5.4121,5.3835,5.3786,5.3549,5.3597,5.3792,5.3607,5.3514,5.3014,5.2161,5.0549,4.908,4.7671,4.6163,4.4712,4.3586,4.339,4.2979,4.3154,4.3035,4.211,4.0997,3.9642,3.7346,3.4818,3.3406,3.161,3.0151,3.0307,3.0407,3.0421,3.0478,3.0464,3.0435,3.011,2.9598,2.8951,2.7994,2.7209,2.5812,2.4382,2.3041,2.2338,2.2206,2.1368,2.1242,2.0972,2.108,1.9573,1.6596,1.3613,1.116,1.0031,0.9114,0.7641,0.5999,0.5406,0.5002,0.3731,0.2444,0.1505,7.5608,7.5533,7.4907,7.4476,7.4152,7.353,7.3358,7.3459,7.3425,7.3806,7.3771,7.3665,7.3531,7.2657,7.2459,7.1575,7.0528,6.9579,6.8648,6.7715,6.755,6.755,6.7325,6.723,6.7105,6.6817,6.5302,6.4705,6.3487,6.1747,6.0055,5.9337,5.7793,5.6599,5.6037,5.6338,5.6268,5.5449,5.6528,5.6526,5.5488,5.6454,5.7052,5.6752,5.6133,5.591,5.5873,5.5722,5.5683,5.5544,5.5389,5.4097,5.2569,5.2017,5.2066,5.2029,5.1952,5.1913,5.1824,5.1494,5.1309,5.098,5.1052,5.0179,4.9065,4.8192,4.7402,4.5911,4.4229,4.2582,4.0852,4.0911,4.0853,4.0643,4.0545,3.9562,3.7929,3.5447,3.3538,3.2116,3.0597,2.9611,2.971,2.9682,2.9881,3.0023,2.9875,2.9825,2.9266,2.8617,2.7137,2.6165,2.5359,2.4229,2.2639,2.1307,2.1299,2.0739,1.9302,1.9015,1.8485,1.7657,1.5974,1.2954,1.0814,0.9192,0.7716,0.6756,0.5488,0.4435,0.3132,0.2005,0.1098,0.0369,-0.224,7.4858,7.46,7.4634,7.4565,7.4342,7.3598,7.3114,7.3114,7.3043,7.3043,7.3043,7.3043,7.2866,7.2469,7.2396,7.1947,7.0981,6.9933,6.8551,6.7214,6.6866,6.6674,6.6321,6.5657,6.4775,6.4083,6.3315,6.2862,6.2245,6.0662,5.9366,5.8514,5.7256,5.5879,5.5061,5.5344,5.5133,5.4441,5.561,5.611,5.5354,5.6177,5.6752,5.6092,5.5137,5.4565,5.4371,5.3939,5.3778,5.3592,5.3431,5.2642,5.1724,5.1577,5.1443,5.1175,5.093,5.0796,5.0636,5.0501,5.0134,5.0117,5.007,4.9477,4.8904,4.7749,4.7071,4.6058,4.4171,4.2034,4.028,3.9959,3.9674,3.9579,3.9713,3.9031,3.6797,3.3648,3.1117,3.0158,2.9668,2.9213,2.9013,2.8843,2.9013,2.9305,2.9347,2.9058,2.8512,2.6562,2.5218,2.4006,2.344,2.2399,2.0893,2.0373,2.0145,1.9056,1.7176,1.5899,1.5137,1.3707,1.2508,1.0313,0.8189,0.6631,0.5048,0.4117,0.2855,0.1616,0.018,-0.1075,-0.2148,-0.3233,-0.5455,7.37,7.3322,7.3765,7.3862,7.3694,7.3133,7.2593,7.2211,7.242,7.2211,7.2141,7.2384,7.2453,7.2488,7.2656,7.2611,7.194,7.082,6.9798,6.8082,6.7681,6.6834,6.5471,6.4398,6.3265,6.2295,6.1484,6.0915,6.0408,5.9694,5.8638,5.7536,5.6463,5.522,5.4171,5.4466,5.4032,5.3313,5.4761,5.5408,5.5087,5.5533,5.5584,5.4873,5.3822,5.3,5.2398,5.1952,5.1573,5.1122,5.0867,5.0736,5.0565,5.0565,5.0409,4.9989,4.9953,4.9868,4.9649,4.9238,4.9246,4.8788,4.8718,4.8865,4.8548,4.7273,4.6884,4.626,4.4294,4.2268,4.0671,3.9964,3.9176,3.8522,3.8473,3.7806,3.5472,3.1918,2.9734,2.8904,2.8507,2.8188,2.8373,2.853,2.8616,2.8655,2.8616,2.8313,2.6588,2.4491,2.298,2.1645,2.1017,2.0294,1.9311,1.9077,1.867,1.7566,1.4359,1.2046,1.1108,0.9903,1.0219,0.8669,0.5923,0.3836,0.2112,0.1051,-0.0,-0.1397,-0.2792,-0.4204,-0.562,-0.6646,-0.8289,7.2822,7.2741,7.2369,7.1984,7.1844,7.2012,7.1254,7.0094,7.0713,7.0371,6.9712,7.0477,7.1031,7.1101,7.1755,7.2361,7.2179,7.0542,6.9866,6.9042,6.7828,6.5865,6.3803,6.2902,6.2069,6.1111,6.0443,5.9934,5.9314,5.8102,5.7313,5.678,5.5302,5.3826,5.3203,5.3758,5.342,5.2534,5.3878,5.4506,5.4114,5.3958,5.3983,5.3498,5.2934,5.2443,5.1812,5.1391,5.0647,4.8686,4.8588,4.8656,4.8377,4.8559,4.8305,4.8018,4.801,4.7704,4.7256,4.7209,4.6808,4.6902,4.6855,4.6644,4.6771,4.6711,4.6425,4.634,4.4762,4.3058,4.1411,3.9234,3.808,3.7396,3.6264,3.5006,3.2872,3.0241,2.8749,2.9374,2.8392,2.8248,2.8574,2.8842,2.8798,2.8491,2.7937,2.7053,2.5336,2.2448,2.0086,1.9371,1.8854,1.8347,1.8046,1.7923,1.6991,1.5519,1.1826,0.9957,0.8895,0.742,0.7718,0.6811,0.3655,0.1217,-0.0695,-0.2259,-0.3307,-0.4518,-0.5732,-0.7292,-0.8853,-0.9721,-1.1159,7.1355,7.139,7.1522,7.1513,7.129,7.0903,7.0319,6.9724,6.9961,6.9667,6.9167,6.9656,6.9703,6.9436,6.9715,6.9847,6.9524,6.867,6.8161,6.7811,6.6712,6.4602,6.2407,6.1405,6.0343,5.912,5.7957,5.7549,5.7393,5.6496,5.6035,5.5754,5.4576,5.3078,5.197,5.2655,5.2476,5.1595,5.2812,5.3785,5.3425,5.2916,5.2484,5.2204,5.1724,5.1016,5.023,4.9871,4.9247,4.8515,4.8246,4.8121,4.7995,4.7995,4.7743,4.7212,4.6957,4.6677,4.6444,4.6316,4.6339,4.6316,4.6339,4.6339,4.6269,4.6339,4.6339,4.5988,4.4841,4.3188,4.1573,3.9674,3.7946,3.6371,3.4685,3.3286,3.2231,3.0273,2.915,2.8526,2.7563,2.6874,2.7619,2.672,2.7094,2.7776,2.7048,2.5346,2.3812,1.9907,1.7168,1.7462,1.7453,1.682,1.6525,1.6006,1.5282,1.3139,1.0282,0.9382,0.754,0.4718,0.3307,0.1044,0.0174,-0.139,-0.3823,-0.5911,-0.6945,-0.798,-0.8688,-1.0076,-1.1279,-1.2318,-1.4342,6.9772,6.977,7.0223,7.0373,7.0172,6.9769,6.9508,6.9337,6.9258,6.8928,6.8818,6.8793,6.8511,6.8201,6.8091,6.7888,6.7707,6.7127,6.6544,6.6138,6.4962,6.3062,6.1474,6.0505,5.9266,5.7591,5.6792,5.5851,5.5604,5.5505,5.5287,5.5227,5.4244,5.2806,5.1354,5.1562,5.1121,5.0398,5.1488,5.218,5.2307,5.1648,5.1168,5.0817,5.0414,4.9691,4.8895,4.8497,4.81,4.7514,4.7269,4.7145,4.6901,4.6801,4.6481,4.6084,4.5779,4.5701,4.5575,4.5654,4.5803,4.585,4.5988,4.6078,4.585,4.5622,4.5392,4.5011,4.4197,4.266,4.1213,3.999,3.8127,3.578,3.4425,3.3235,3.2073,3.0474,2.9127,2.8505,2.7025,2.6723,2.6867,2.6436,2.5877,2.6043,2.4401,2.1991,2.0448,1.7587,1.6786,1.6826,1.6671,1.5792,1.5085,1.4386,1.3012,1.0955,0.8878,0.7671,0.5048,0.1563,-0.1737,-0.4171,-0.3991,-0.5378,-0.7468,-0.9371,-1.0924,-1.2117,-1.3153,-1.4508,-1.5383,-1.574,-1.778,6.8217,6.8003,6.8076,6.8066,6.7838,6.8517,6.8659,6.8319,6.7887,6.7663,6.7698,6.7606,6.7513,6.754,6.755,6.7574,6.775,6.659,6.5963,6.5208,6.3584,6.2199,6.1563,6.0505,5.9058,5.7626,5.6752,5.6034,5.5385,5.5197,5.5227,5.4954,5.395,5.2893,5.1432,5.0177,4.9554,4.9265,4.9145,4.9665,5.0406,5.0106,4.981,4.9785,4.9143,4.8722,4.8376,4.798,4.7148,4.5395,4.5085,4.4943,4.4488,4.4416,4.4224,4.3836,4.3721,4.3718,4.3745,4.4536,4.5036,4.5179,4.5558,4.5566,4.4917,4.4511,4.393,4.3073,4.2758,4.188,4.0608,3.9997,3.8764,3.6449,3.5494,3.4532,3.2938,3.0263,2.9136,2.9006,2.7811,2.6573,2.7462,2.7228,2.5795,2.4134,2.2813,2.0468,1.8577,1.7443,1.681,1.6663,1.6679,1.58,1.4049,1.3356,1.1629,0.9038,0.5906,0.4346,0.2259,-0.2081,-0.607,-0.6936,-0.7623,-0.9539,-1.1279,-1.2797,-1.416,-1.5532,-1.7409,-1.9438,-2.0289,-2.0289,-2.1239,6.8485,6.8335,6.8168,6.8032,6.7892,6.7787,6.7729,6.7575,6.7062,6.6745,6.6571,6.6483,6.6286,6.602,6.5883,6.5761,6.5643,6.4595,6.411,6.3768,6.2226,6.1597,6.1418,6.0563,5.9129,5.7508,5.6752,5.6125,5.5227,5.5197,5.4809,5.3998,5.3291,5.1928,4.9951,4.9185,4.8725,4.8632,4.8553,4.908,4.9575,4.9126,4.8508,4.8047,4.7285,4.6724,4.6436,4.6196,4.5806,4.5054,4.4624,4.4437,4.4106,4.3963,4.3725,4.3485,4.3365,4.3581,4.4247,4.4365,4.4718,4.5252,4.5368,4.5044,4.4835,4.46,4.4034,4.3222,4.3004,4.2132,4.0339,3.984,3.9316,3.8047,3.7642,3.6889,3.5098,3.1266,2.9201,2.946,2.884,2.7947,2.7335,2.6873,2.5506,2.5253,2.3466,2.0724,1.7799,1.6794,1.6639,1.6663,1.6329,1.4935,1.3362,1.1629,0.9903,0.642,0.2776,0.0694,-0.1387,-0.5719,-0.8836,-0.9698,-1.0716,-1.246,-1.4693,-1.6035,-1.7545,-1.8923,-2.0299,-2.1641,-2.2633,-2.3144,-2.4448,6.8769,6.8619,6.8454,6.833,6.8171,6.7745,6.7846,6.8084,6.7656,6.7291,6.7052,6.6891,6.6335,6.5557,6.494,6.4655,6.4481,6.3817,6.3312,6.3054,6.2277,6.1713,6.1385,6.0866,5.98,5.844,5.768,5.6783,5.5881,5.5604,5.4935,5.3819,5.2974,5.1354,4.9453,4.83,4.7822,4.7712,4.7522,4.8013,4.8597,4.7873,4.7144,4.669,4.5886,4.5259,4.4952,4.4952,4.4859,4.4742,4.4649,4.4295,4.4058,4.3939,4.401,4.4034,4.4129,4.4552,4.5136,4.5161,4.5649,4.597,4.597,4.5624,4.5393,4.5185,4.4624,4.3773,4.3318,4.2693,4.0937,4.0339,4.0112,3.9736,3.9337,3.8661,3.7853,3.3746,3.1132,3.078,2.9995,2.9079,2.8206,2.6841,2.6271,2.6736,2.4092,2.0773,1.768,1.6655,1.6663,1.5785,1.477,1.356,1.1112,0.8857,0.6073,0.2253,-0.104,-0.3644,-0.5719,-0.8836,-1.1085,-1.2638,-1.3812,-1.5517,-1.7748,-1.9438,-2.0951,-2.2321,-2.3963,-2.446,-2.4626,-2.5755,-2.7529,6.8749,6.8528,6.8611,6.838,6.8303,6.8168,6.8958,6.9805,6.9542,6.9362,6.9301,6.8977,6.7808,6.641,6.5522,6.493,6.4516,6.4128,6.372,6.327,6.2675,6.1938,6.1369,6.1118,6.0751,6.0498,5.961,5.8221,5.6546,5.6366,5.5729,5.4591,5.3029,5.1483,5.0124,4.7781,4.6629,4.6625,4.5911,4.593,4.663,4.6475,4.6104,4.5798,4.5357,4.5074,4.4976,4.4952,4.4742,4.4649,4.4531,4.4176,4.382,4.4223,4.4762,4.4786,4.578,4.6124,4.606,4.6743,4.6882,4.6995,4.722,4.7082,4.6314,4.5905,4.521,4.4223,4.3367,4.267,4.2307,4.1697,4.1352,4.1128,4.0215,4.0124,4.004,3.745,3.4339,3.2716,3.1099,2.9999,2.96,2.8164,2.7007,2.6724,2.4237,2.0525,1.7509,1.6687,1.58,1.4221,1.2674,1.1295,0.8688,0.5906,0.1907,-0.1733,-0.52,-0.7984,-1.0057,-1.2283,-1.4714,-1.5903,-1.6892,-1.9028,-2.1256,-2.3918,-2.5121,-2.6109,-2.7758,-2.9072,-2.9354,-2.9956,-3.1238,6.651,6.7332,6.7337,6.79,6.8779,6.8522,6.9157,7.0395,6.9897,7.0216,7.0711,6.9604,6.8614,6.7717,6.6402,6.4609,6.2446,6.1799,6.1473,6.1158,6.0406,6.036,6.0784,6.0277,6.0462,6.1006,6.0003,5.8388,5.6783,5.6636,5.5547,5.3759,5.2054,5.0896,4.9917,4.7007,4.622,4.7178,4.5966,4.5455,4.601,4.593,4.5674,4.5449,4.5852,4.5757,4.4976,4.4952,4.4742,4.4531,4.4295,4.4082,4.3581,4.3677,4.3915,4.4271,4.4742,4.5418,4.6314,4.6453,4.6681,4.7332,4.7917,4.7831,4.6845,4.7271,4.6592,4.5442,4.4624,4.3891,4.3031,4.2888,4.3008,4.2865,4.214,4.1924,4.2671,3.9868,3.6963,3.4736,3.286,3.1337,2.9923,2.8164,2.7198,2.7339,2.3711,2.0038,1.7542,1.6718,1.5837,1.3031,1.0772,0.8684,0.5897,0.0866,-0.3982,-0.6571,-0.9698,-1.2152,-1.4413,-1.6453,-1.8335,-1.9156,-2.0467,-2.2579,-2.5049,-2.8044,-2.9368,-3.0028,-3.1312,-3.2572,-3.3189,-3.3961,-3.549,6.5203,6.6083,6.5946,6.6449,6.7384,6.7722,6.8304,6.9236,6.9736,7.0312,7.0414,6.9592,6.8339,6.7028,6.5971,6.3885,6.1316,6.0624,6.0212,5.9944,5.9331,5.9381,5.9961,5.9361,5.9404,5.9864,5.8961,5.7843,5.6695,5.6186,5.5298,5.3824,5.2052,5.101,5.0377,4.7641,4.6711,4.8005,4.6642,4.5772,4.616,4.6328,4.6374,4.6123,4.598,4.5787,4.5492,4.4558,4.4152,4.4437,4.4082,4.3725,4.3462,4.3245,4.3581,4.4624,4.5277,4.5945,4.6882,4.682,4.7046,4.7917,4.8359,4.8386,4.8249,4.8663,4.8663,4.7332,4.6655,4.601,4.522,4.5013,4.4946,4.4455,4.3677,4.3078,4.3023,4.1195,3.8997,3.7172,3.5377,3.3181,3.0959,2.8111,2.6448,2.5863,2.1597,1.7782,1.58,1.3738,1.1996,1.0604,0.8342,0.5385,0.2253,-0.4328,-0.9168,-1.1413,-1.3641,-1.6081,-1.7791,-1.9803,-2.2154,-2.2955,-2.4555,-2.665,-2.9067,-3.1746,-3.2351,-3.3173,-3.4415,-3.5368,-3.5662,-3.8458,-3.9827,6.4505,6.4483,6.446,6.4382,6.4391,6.6019,6.67,6.7263,6.9608,7.001,6.9205,6.9228,6.7526,6.4457,6.4104,6.3096,6.1395,6.0638,6.0027,5.9472,5.9361,5.9123,5.8494,5.8467,5.8066,5.7724,5.7489,5.7078,5.6675,5.5546,5.501,5.503,5.2881,5.1818,5.1347,4.946,4.8476,4.8575,4.7611,4.6934,4.6651,4.7106,4.7589,4.7607,4.5959,4.5289,4.5834,4.3933,4.3031,4.3963,4.3725,4.3462,4.3245,4.3269,4.3939,4.56,4.7066,4.7845,4.7865,4.7969,4.8328,4.8715,4.9098,4.9315,5.009,5.0485,5.038,5.0223,4.853,4.8259,4.9342,4.8013,4.6755,4.6024,4.4922,4.3986,4.3436,4.1965,4.0616,3.9732,3.8443,3.5955,3.2166,2.8328,2.5891,2.3499,1.8799,1.4474,1.3693,0.9371,0.7468,0.6949,0.452,-0.0,-0.5554,-1.0524,-1.3595,-1.6159,-1.8523,-2.0063,-2.1225,-2.2713,-2.5061,-2.7204,-2.8948,-3.1033,-3.3457,-3.49,-3.549,-3.6453,-3.7719,-3.8901,-3.9449,-4.2571,-4.4256,6.1168,6.1284,6.2395,6.3452,6.4528,6.6142,6.7453,6.8601,7.0189,7.1276,7.1754,7.043,6.7481,6.366,6.179,6.0007,5.826,5.7946,5.7581,5.7097,5.6949,5.7346,5.8101,5.7678,5.7594,5.7833,5.732,5.6878,5.6348,5.4722,5.3502,5.2584,5.1312,5.112,5.1688,5.0345,4.9858,5.0367,4.9443,4.8629,4.8078,4.7942,4.7466,4.6502,4.5917,4.4768,4.3251,4.3691,4.3438,4.233,4.3078,4.3462,4.3269,4.3629,4.4082,4.4742,4.6605,4.8281,4.9369,4.9531,4.9905,5.082,5.1494,5.1874,5.2064,5.2761,5.279,5.2092,5.141,5.1308,5.1744,5.0008,4.8692,4.8312,4.6667,4.5955,4.6278,4.4058,4.2094,4.1114,4.0519,3.8307,3.2684,2.8447,2.5027,2.2974,1.9841,1.7086,1.3911,0.9207,0.5209,0.4177,0.1041,-0.4496,-1.2248,-1.6466,-1.9466,-2.2027,-2.3673,-2.5506,-2.751,-2.7692,-2.8975,-3.1602,-3.363,-3.5524,-3.7341,-3.8749,-3.9694,-4.0241,-4.1585,-4.3301,-4.3777,-4.7479,-4.9289,5.9893,5.9911,6.082,6.1742,6.2681,6.4207,6.5819,6.7415,6.8608,7.0093,7.1234,6.9439,6.6294,6.2446,6.0863,5.9086,5.7256,5.7022,5.6646,5.6161,5.6059,5.6415,5.702,5.6597,5.6479,5.6609,5.5979,5.5251,5.4579,5.3791,5.2909,5.2012,5.1224,5.1174,5.1746,5.0659,5.0452,5.1286,4.9785,4.8622,4.8023,4.8426,4.7836,4.6069,4.5478,4.4325,4.2766,4.2025,4.182,4.1697,4.2185,4.2716,4.3148,4.3748,4.42,4.4531,4.6428,4.8417,5.0011,5.043,5.1177,5.2293,5.3143,5.3757,5.4053,5.4681,5.518,5.5335,5.512,5.4838,5.4681,5.2691,5.113,5.0562,4.9262,4.7865,4.7466,4.5541,4.3718,4.2043,4.1581,3.9636,3.5184,3.085,2.6588,2.2238,1.8692,1.6134,1.395,0.835,0.3474,-0.0347,-0.5187,-1.0846,-1.6135,-2.1008,-2.4473,-2.6924,-2.8704,-3.0903,-3.3045,-3.3585,-3.4069,-3.6161,-3.8025,-3.975,-4.1242,-4.2756,-4.4456,-4.4893,-4.6353,-4.7817,-4.8695,-5.203,-5.4851,6.0012,6.0021,5.9977,5.9803,6.0038,6.1497,6.2997,6.449,6.6078,6.7581,6.8559,6.6874,6.4362,6.1753,6.0684,5.9391,5.7902,5.7406,5.6937,5.6445,5.643,5.6151,5.5786,5.5702,5.5284,5.455,5.4051,5.3396,5.2538,5.2857,5.2803,5.2288,5.1878,5.1607,5.1433,5.0674,5.0663,5.1202,4.9145,4.749,4.6814,4.8402,4.8072,4.5301,4.4275,4.3498,4.2062,3.963,3.881,4.069,4.0792,4.1452,4.2763,4.3629,4.4319,4.5093,4.6743,4.8583,5.0302,5.127,5.2391,5.3698,5.4557,5.5333,5.6395,5.6364,5.7359,5.9,5.8838,5.801,5.7904,5.5669,5.3765,5.3045,5.1643,4.9954,4.7565,4.6466,4.5313,4.2921,4.2072,4.0625,3.7358,3.4018,2.9366,2.2713,1.7426,1.3228,1.1327,0.5735,-0.0347,-0.6226,-1.2401,-1.7495,-2.0791,-2.4813,-2.92,-3.1707,-3.3847,-3.6006,-3.798,-3.9164,-3.9788,-4.141,-4.2902,-4.4715,-4.6293,-4.7822,-4.9658,-4.9729,-5.0496,-5.1853,-5.3695,-5.6598,-5.9774,5.976,5.9782,5.9851,5.9909,6.0126,6.1661,6.2444,6.3039,6.5859,6.6577,6.5553,6.3721,6.2388,6.1485,5.9977,5.8721,5.7862,5.7659,5.7332,5.6824,5.6819,5.6603,5.6242,5.6233,5.5609,5.4679,5.4431,5.3744,5.2683,5.2536,5.1838,5.0694,5.0946,5.0776,5.0256,5.1041,5.1462,5.1175,4.8654,4.7001,4.635,4.6259,4.474,4.1869,4.1165,3.9368,3.6115,3.637,3.656,3.6471,3.8262,3.9959,4.1128,4.274,4.4389,4.592,4.7624,4.9769,5.2536,5.3971,5.5456,5.7242,5.7328,5.7841,5.9129,5.9559,6.0202,6.1024,6.006,5.9239,5.892,5.6999,5.5486,5.5148,5.3085,5.1308,5.0375,4.8228,4.5699,4.3242,4.2452,3.9967,3.5402,3.3433,3.0308,2.36,1.6332,1.0023,0.5554,0.0173,-0.6371,-1.2814,-1.8513,-2.3294,-2.8259,-3.2638,-3.5852,-3.6828,-3.9374,-4.1351,-4.2402,-4.4328,-4.5642,-4.6946,-4.8665,-5.0218,-5.2306,-5.3546,-5.392,-5.3999,-5.4398,-5.5067,-5.6693,-6.0795,-6.518,5.9687,5.9684,5.9815,5.9844,5.9933,6.0896,6.1703,6.2482,6.4248,6.4109,6.2509,6.2101,6.1406,6.0566,5.9373,5.8553,5.8156,5.8001,5.7659,5.7219,5.7256,5.6905,5.6481,5.6297,5.5801,5.5096,5.4608,5.3949,5.3167,5.2458,5.1456,5.0316,4.9868,4.9732,4.9699,5.0009,5.0462,5.0953,4.5471,4.2237,4.1452,4.1325,3.9599,3.6263,3.7115,3.6328,3.3728,3.3298,3.323,3.3853,3.654,3.8305,3.9126,4.1452,4.3286,4.4162,4.6415,4.8956,5.1493,5.3133,5.5017,5.7341,5.7972,5.9035,6.0677,6.1025,6.1566,6.2578,6.1663,6.0879,6.0503,5.916,5.78,5.6805,5.5395,5.3669,5.1818,4.9556,4.6791,4.3488,4.2592,4.0249,3.499,3.3369,3.0076,2.384,1.7609,1.007,0.2044,-0.5221,-1.1626,-1.6273,-2.2411,-2.8173,-3.3086,-3.7673,-4.1134,-4.3402,-4.5479,-4.6879,-4.7914,-4.9309,-5.0852,-5.1733,-5.3524,-5.5301,-5.6358,-5.7886,-5.8603,-5.8517,-5.8517,-5.917,-6.018,-6.3344,-6.7076,5.9621,5.9677,5.9783,5.9765,5.9683,5.9946,6.0771,6.2049,6.2074,6.125,5.9987,6.1153,6.0841,5.9431,5.8976,5.8772,5.8702,5.8352,5.8001,5.7658,5.7659,5.7295,5.6658,5.6322,5.5988,5.5533,5.473,5.4096,5.3639,5.2616,5.1555,5.0507,4.91,4.8897,4.9535,4.8313,4.8296,4.9651,4.1865,3.7022,3.5668,3.6299,3.45,3.0578,3.259,3.3269,3.1915,2.9806,2.9298,3.0763,3.3352,3.5148,3.5942,3.867,4.1019,4.2108,4.5177,4.7591,4.9096,5.1723,5.4071,5.6055,5.7598,5.9235,6.1036,6.1389,6.2064,6.3277,6.2904,6.2503,6.1872,6.0934,5.9667,5.8178,5.7649,5.6242,5.3045,5.0971,4.8236,4.4237,4.2827,4.0599,3.6322,3.3148,2.8879,2.2783,1.7055,1.1154,0.1315,-0.8105,-1.4288,-1.9427,-2.6332,-3.2738,-3.7839,-4.1634,-4.5571,-4.95,-5.095,-5.2175,-5.3223,-5.4821,-5.584,-5.5894,-5.8026,-5.9651,-6.0179,-6.2364,-6.3201,-6.2963,-6.3551,-6.4092,-6.3961,-6.5472,-6.7937,5.9452,5.953,5.9696,5.9697,5.97,5.9858,6.0061,6.0327,0.0,0.0,0.0,6.0131,5.9947,5.9447,5.9287,5.9077,5.8821,5.861,5.8374,5.8315,5.813,5.7694,5.7215,5.7137,5.661,5.5776,5.5547,5.4714,5.3219,5.3013,5.2141,5.0769,4.9162,4.897,4.9728,4.7512,4.5801,4.4898,4.144,3.8165,3.5311,3.5982,3.325,2.6715,2.9204,2.8289,2.3647,2.4299,2.3925,2.2142,2.3445,2.5818,2.8959,3.1536,3.6126,4.3113,4.6732,4.8479,4.8957,5.4492,5.7185,5.551,5.7121,5.8658,5.9885,6.1376,6.2152,6.1997,6.2259,6.2299,6.1986,6.0671,5.9637,5.948,5.8357,5.7043,5.5669,5.2335,4.91,4.7091,4.3488,3.9465,3.4928,3.1647,2.7361,2.0957,1.5072,0.881,0.3539,-0.3461,-1.3264,-2.7476,-3.3955,-3.9127,-4.4201,-4.8361,-5.1578,-5.3269,-5.4908,-5.6402,-5.7615,-5.9682,-6.1161,-6.0824,-6.2527,-6.4051,-6.529,-6.6516,-6.7571,-6.7629,-6.8369,-6.8718,-6.8023,-6.9187,-7.1163,5.9346,5.936,5.9568,5.9684,0.0,5.9815,5.9851,5.9858,5.9872,5.9844,5.9764,5.9783,5.9646,5.9485,5.9363,5.9192,5.8968,5.861,5.8382,5.8285,5.8038,5.7697,5.7328,5.7137,5.6646,5.5919,5.568,5.4889,5.3523,5.3167,5.2428,5.1418,4.9384,4.8299,4.8098,4.7169,4.54,4.263,3.7783,3.4469,3.2888,3.0765,2.7757,2.3865,2.4726,0.0,0.0,0.0,0.0,0.0,0.0,0.0,0.0,0.0,0.0,3.3782,3.8444,4.0899,4.1056,5.0138,5.6243,5.7193,5.7358,5.7567,5.7765,6.0105,6.1542,6.1566,6.1379,6.1177,6.0648,5.9329,5.8324,5.7751,5.6771,5.5526,5.3854,5.0848,4.8032,4.5726,4.2529,3.8642,3.3826,3.1099,2.672,1.9538,1.3695,0.7478,0.0154,-0.6441,-1.5541,-3.043,-3.8118,-4.3985,-4.7893,-5.1568,-5.4303,-5.5749,-5.7516,-5.8982,-5.9541,-6.1986,-6.3801,-6.3894,-6.5529,-6.7338,-6.8373,-6.9079,-6.9765,-7.028,-7.0652,-7.0734,-7.0539,-7.178,-7.3286,5.9267,5.9308,5.9547,5.9643,5.9652,5.9792,5.9834,5.9826,5.9871,5.9797,5.9687,5.967,5.9544,5.9485,5.9346,5.921,5.9112,5.8583,5.8291,5.8199,5.7873,5.7552,5.729,5.6978,5.6524,5.5931,5.5583,5.4783,5.3581,5.308,5.2398,5.1554,4.9709,4.7977,4.6558,0.0,0.0,0.0,3.4122,3.0506,3.0132,2.5729,2.2507,2.0779,2.0407,0.0,1.8735,1.756,1.6608,1.5868,1.9733,0.0,0.0,0.0,0.0,0.0,0.0,0.0,0.0,0.0,0.0,0.0,5.6238,5.5004,5.5032,5.7323,5.9099,5.9766,5.951,5.9041,5.8407,5.7551,5.6617,5.5331,5.4914,5.3678,5.1149,4.869,4.6251,4.3454,4.1023,3.7634,3.2757,2.9991,2.559,1.8613,1.2492,0.4698,-0.5857,-1.2471,-2.0385,-3.0899,-4.0734,-4.7524,-5.0232,-5.3399,-5.6253,-5.7477,-5.9512,-6.089,-6.1422,-6.3321,-6.4654,-6.4596,-6.6522,-6.8216,-6.88,-6.9529,-6.981,-7.0723,-7.1304,-7.1787,-7.1905,-7.2902,-7.3927,5.9267,5.9327,5.9452,5.9517,5.9517,5.9667,5.9708,5.9706,5.9835,5.9796,5.9695,5.9545,5.9494,5.9489,5.9345,5.9252,5.9206,5.8718,5.847,5.8441,5.7942,5.7552,5.7173,5.7134,5.6646,5.5824,5.5569,5.4412,5.264,5.2554,5.1916,5.0553,4.9995,4.8927,4.7228,4.4985,4.2143,3.8596,3.3601,3.0044,2.8019,2.5475,2.1832,1.7394,1.7692,1.6331,1.2905,1.3751,1.2898,1.0085,1.0476,1.2707,1.6924,1.9974,2.1985,0.0,2.9497,0.0,0.0,0.0,0.0,0.0,0.0,0.0,0.0,5.1833,5.2608,5.3243,5.4991,5.5753,5.495,5.5182,5.486,5.3837,5.3989,5.3053,5.0185,4.7187,4.4777,4.35,4.0286,3.6035,3.042,2.6132,2.2523,1.7696,0.9981,0.0423,-1.0836,-1.6018,-2.2895,-3.55,-4.3755,-4.9544,-5.2275,-5.5853,-5.8527,-5.9745,-6.1079,-6.2605,-6.3135,-6.3997,-6.45,-6.433,-6.4675,-6.506,-6.5214,-6.6553,-6.754,-6.8148,-7.0027,-7.1625,-7.174,-7.205,-7.2677,5.8832,5.9093,5.9232,5.94,5.957,5.9657,5.9725,5.9771,5.9858,5.9789,5.9684,5.9609,5.9517,5.9384,5.9308,5.9168,5.893,5.8509,5.815,5.7862,5.7479,5.7166,5.6932,5.6968,5.6465,5.5583,5.5434,5.4338,5.2299,5.2238,5.1587,5.0308,4.9253,4.7329,4.4624,4.365,4.1718,3.8809,3.5523,3.2047,2.8592,2.4363,2.0631,1.7642,1.6623,1.4104,0.9972,1.1363,1.1188,0.8982,1.0705,1.3016,1.5669,1.4799,1.6689,0.0,0.0,0.0,0.0,0.0,0.0,0.0,0.0,0.0,0.0,0.0,5.1576,5.1803,5.2674,5.27,5.1335,5.1324,5.058,4.8515,4.8299,4.7012,4.3775,4.2377,4.0956,3.9146,3.7488,3.424,2.8685,2.5892,2.1946,1.4944,0.7829,-0.0946,-1.1739,-1.8792,-2.654,-3.8304,-4.5224,-4.9957,-5.3043,-5.5813,-5.7737,-5.8358,-5.9827,-6.127,-6.1796,-6.3037,-6.4018,-6.3887,-6.4247,-6.4871,-6.584,-6.664,-6.7399,-6.8262,-6.9044,-6.9372,-6.9612,-7.1005,-7.2153,5.8684,5.9051,5.9022,5.925,5.9623,5.9634,5.9706,5.9817,5.9796,5.9759,5.9612,5.9608,5.9296,5.865,5.8152,5.7912,5.7942,5.7523,5.7321,5.7297,5.7054,5.688,5.6718,5.6589,5.6105,5.5384,5.5131,5.3949,5.211,5.1916,5.099,4.934,4.7364,4.4812,4.1842,4.1869,4.1081,3.9174,3.6777,3.3312,2.8695,2.2598,1.8738,1.7435,1.5019,1.211,0.8847,0.9497,0.9616,0.902,1.0538,1.2232,1.3671,1.054,0.0,0.0,0.0,0.0,0.0,0.0,0.0,0.0,0.0,4.1161,4.1945,0.0,4.8045,0.0,4.8597,4.8393,4.6866,4.687,0.0,0.0,4.2311,4.0623,3.7794,3.7188,3.6236,3.4196,3.3946,3.1937,2.6516,2.4931,2.0946,1.2401,0.6795,-0.0523,-1.1416,-1.9025,-2.752,-3.9093,-4.6376,-5.069,-5.2864,-5.4296,-5.5361,-5.6426,-5.7766,-5.9193,-6.0031,-6.1714,-6.2851,-6.2884,-6.3537,-6.4463,-6.5558,-6.6199,-6.6853,-6.7833,-6.7431,-6.6894,-6.7606,-6.9528,-7.1158,5.9044,5.9384,5.8896,5.9022,5.9501,5.9482,5.9546,5.9668,5.967,5.9638,5.9488,5.9516,5.8555,5.6825,5.4851,0.0,5.5816,5.5358,5.5841,5.7333,5.7054,5.6796,5.6545,5.6059,5.5631,5.5233,5.4297,5.3167,5.1949,5.1554,4.9722,4.6564,4.3829,4.1733,4.041,3.9618,3.9073,3.8705,3.591,3.1964,2.6764,1.9864,1.5761,1.456,1.2258,1.054,0.9588,0.7541,0.7242,0.9021,0.5847,0.5576,0.901,0.0,0.0,0.0,0.0,0.0,0.0,0.0,0.0,0.0,0.0,0.0,0.0,0.0,0.0,3.7937,4.0295,0.0,4.0837,4.1597,0.0,0.0,0.0,3.6035,3.5299,3.2747,3.0733,2.992,0.0,0.0,2.3675,2.1442,1.7944,1.1726,0.7474,0.0774,-1.0489,-1.493,-2.2463,-3.7956,-4.7556,-5.2788,-5.1784,-5.1224,-5.2121,-5.5638,-5.617,-5.7062,-5.9403,-6.0576,-6.089,-6.1021,-6.1413,-6.201,-6.2049,-6.3332,-6.4067,-6.4268,-6.4748,-6.558,-6.687,-6.7634,-6.8562,5.8211,5.7765,5.6697,5.6991,5.8077,5.7121,5.7184,5.8003,5.8021,5.7386,5.638,5.7298,5.6633,5.4713,5.3756,0.0,0.0,0.0,5.4058,5.5297,5.4905,5.5172,5.5931,5.5364,5.4819,5.4317,5.3663,5.2707,5.1554,5.0501,4.6548,3.9938,0.0,0.0,3.3937,3.4731,3.4404,3.2827,3.2085,2.9538,2.5139,2.1797,1.8266,1.4359,1.2257,1.0705,0.9804,0.8856,0.7769,0.6719,0.5443,0.4801,0.0,0.0,0.0,0.0,0.0,0.0,0.0,0.0,0.0,0.0,0.0,2.7373,2.8579,0.0,0.0,0.0,3.5268,3.5478,3.5291,3.7071,0.0,0.0,0.0,0.0,0.0,0.0,0.0,2.4614,2.5685,2.5255,2.2273,1.9308,1.4999,0.89,0.5601,-0.026,-1.1837,0.0,-1.9049,-3.3495,-4.5864,-5.2376,-4.8644,-4.8906,-5.08,-5.4184,-5.5487,-5.698,-5.9096,-5.99,-6.0356,-6.055,-6.0837,-6.1165,-6.1536,-6.1969,-6.2381,-6.2381,-6.3336,-6.4383,-6.53,-6.6634,-6.7598,5.6435,0.0,0.0,0.0,0.0,5.5151,5.4928,5.5417,5.5386,5.4294,5.2681,5.3599,0.0,0.0,0.0,0.0,0.0,0.0,5.1867,5.3501,5.3634,5.4297,5.5314,5.4714,5.4117,5.3581,5.3013,5.1748,4.9828,4.7282,4.2072,3.4626,0.0,0.0,0.0,0.0,3.1357,2.9148,3.0121,2.8423,2.3798,2.2988,1.9892,1.3981,1.1866,1.0441,0.9727,0.8288,0.7126,0.6242,0.2789,0.0,0.0,0.0,0.0,0.0,0.0,0.0,0.0,0.0,0.0,0.0,0.0,0.0,0.0,0.0,0.0,0.0,0.0,0.0,3.0532,3.2611,3.2049,0.0,0.0,0.0,0.0,0.0,0.0,0.0,0.0,0.0,1.9711,1.7477,1.3878,0.0,0.0,0.0,-0.9808,-1.2492,-1.7878,-3.039,-4.1419,0.0,-4.7047,-4.8174,-4.983,-5.1906,-5.4046,-5.6062,-5.7451,-5.8558,-5.9531,-6.0515,-6.0385,-5.9917,-5.9732,-5.9801,-6.0374,-6.1058,-6.2381,-6.3561,-6.3898,-6.53,-6.6345,0.0,0.0,0.0,0.0,0.0,0.0,0.0,0.0,5.158,5.0445,0.0,4.8221,0.0,0.0,0.0,0.0,0.0,4.695,0.0,0.0,5.3794,5.4715,5.4557,5.3993,5.3513,5.3073,5.2202,4.9976,4.6301,4.0926,0.0,0.0,0.0,0.0,0.0,0.0,3.0915,2.8919,3.1178,2.9275,2.2875,2.2373,1.9159,1.315,1.0577,0.9401,0.9509,0.4966,0.449,0.8962,-0.3784,0.0,0.0,0.0,0.0,0.0,0.0,0.0,0.0,0.0,0.0,0.0,0.0,0.0,0.0,0.0,0.0,0.0,0.0,0.0,0.0,2.7961,0.0,0.0,0.0,0.0,0.0,0.0,0.0,0.0,0.0,0.0,1.5048,1.5848,1.5139,1.0297,0.0,0.0,0.0,0.0,-1.9319,-2.9707,-3.4053,-3.9501,-4.8618,-4.9181,-4.8536,-4.9047,0.0,0.0,-5.3833,-5.5753,-5.7954,-6.0178,-5.95,-5.8018,-5.5193,-5.5896,-5.759,-5.96,-6.1244,-6.2684,-6.2817,-6.3061,-6.3784,0.0,0.0,0.0,0.0,0.0,0.0,0.0,0.0,0.0,4.5582,4.4041,4.4759,0.0,0.0,0.0,0.0,0.0,0.0,0.0,0.0,4.7192,4.8231,4.8704,4.9146,4.9014,0.0,4.7018,4.348,0.0,0.0,0.0,0.0,0.0,0.0,0.0,0.0,2.5407,2.3312,2.571,2.5165,2.1232,2.0637,1.8104,1.364,1.2417,0.9562,0.4789,0.4487,0.1456,0.0,0.0,0.0,0.0,0.0,0.0,0.0,0.0,0.0,0.0,0.0,0.0,0.0,0.0,0.0,0.0,0.0,0.0,0.0,0.0,0.0,0.0,0.0,2.1631,0.0,0.0,0.0,0.0,0.0,0.0,0.0,0.0,0.0,1.068,1.0476,0.9709,0.7915,0.5138,0.1265,-0.373,0.0,0.0,0.0,0.0,0.0,0.0,0.0,-4.5169,-4.6355,-4.8058,-4.9715,-5.1342,-5.4365,-5.7115,-5.8642,0.0,0.0,-4.9538,-5.0528,-5.1901,-5.1892,-5.5202,-5.7951,-5.7321,-5.8682,-6.0085,0.0,0.0,0.0,0.0,0.0,0.0,0.0,0.0,0.0,3.9583,3.7988,0.0,0.0,0.0,0.0,0.0,0.0,0.0,0.0,0.0,0.0,0.0,4.3933,4.5004,0.0,0.0,0.0,0.0,0.0,0.0,0.0,0.0,0.0,0.0,0.0,0.0,2.2334,2.0142,2.302,2.3198,2.0345,2.0009,1.7987,1.3995,1.3774,1.0332,0.3378,0.0,0.0,0.0,0.0,0.0,0.0,0.0,0.0,0.0,0.0,0.0,0.0,0.0,0.0,0.0,0.0,0.0,0.0,0.0,0.0,0.0,0.0,0.0,0.0,0.0,1.8012,0.0,0.0,0.0,0.0,0.0,0.0,0.0,0.0,0.0,0.0,0.0,0.4902,0.4887,0.2496,-0.0508,-0.3623,-0.9091,-1.4367,0.0,0.0,0.0,0.0,0.0,0.0,0.0,0.0,0.0,0.0,0.0,0.0,0.0,0.0,-4.553,-4.3761,-4.5094,-4.6223,-4.5519,0.0,0.0,0.0,0.0,0.0,0.0,0.0,0.0,0.0,0.0,0.0,0.0,0.0,0.0,0.0,3.0748,0.0,0.0,3.1484,0.0,0.0,0.0,0.0,0.0,0.0,0.0,0.0,0.0,0.0,0.0,0.0,0.0,0.0,0.0,0.0,0.0,0.0,0.0,0.0,0.0,0.0,2.1823,1.9669,2.3432,2.3736,2.0302,2.0661,1.857,1.4027,1.4011,1.1392,0.5413,0.0,0.0,0.0,0.0,0.0,0.0,0.0,0.0,0.0,0.0,0.0,0.0,0.0,0.0,0.0,0.0,0.0,0.0,0.0,0.0,0.0,0.0,0.0,0.0,0.0,0.0,1.7955,1.534,1.2804,0.0,0.0,0.0,0.0,0.0,0.0,0.0,0.0,0.0,0.0,-0.0753,-0.2213,-0.2219,-1.3034,-2.016,-1.8845,-3.0536,-3.9111,-3.7401,-3.9025,-4.086,0.0,0.0,0.0,0.0,0.0,0.0,0.0,0.0,0.0,0.0,0.0,0.0,0.0,0.0,0.0,0.0,0.0,0.0,0.0,0.0,0.0,0.0,0.0,0.0,0.0,0.0,0.0,0.0,0.0,0.0,0.0,0.0,0.0,0.0,0.0,0.0,0.0,0.0,0.0,0.0,0.0,0.0,0.0,0.0,0.0,0.0,0.0,0.0,0.0,0.0,0.0,0.0,0.0,0.0,1.9648,1.7812,2.1076,2.1828,1.9717,1.9716,1.8011,1.4506,1.4274,1.1533,0.0,0.0,0.0,0.0,0.0,0.0,0.0,0.0,0.0,0.0,0.0,0.0,0.0,0.0,0.0,0.0,0.0,0.0,0.0,0.0,0.0,0.0,0.0,0.0,0.0,0.0,0.0,0.0,1.3698,1.1285,0.8316,0.0,0.0,0.0,0.0,0.0,0.0,0.0,0.0,0.0,0.0,-0.4322,-0.2468,-0.963,-1.5223,-1.5513,-2.2406,-2.8242,-3.0295,-3.305,-3.5291,-3.6571,0.0,0.0,0.0,0.0,0.0,0.0,0.0,0.0,0.0,0.0,0.0,0.0,0.0,0.0,0.0,0.0,0.0,0.0,0.0,0.0,0.0,0.0,0.0,0.0,0.0,0.0,0.0,0.0,0.0,0.0,0.0,0.0,0.0,0.0,0.0,0.0,0.0,0.0,0.0,0.0,0.0,0.0,0.0,0.0,0.0,0.0,0.0,0.0,0.0,0.0,0.0,0.0,0.0,1.8674,1.7024,1.985,2.0753,1.9421,1.8795,1.713,1.4474,1.3679,1.0302,0.0,0.0,0.0,0.0,0.0,0.0,0.0,0.0,0.0,0.0,0.0,0.0,0.0,0.0,0.0,0.0,0.0,0.0,0.0,0.0,0.0,0.0,0.0,0.0,0.0,0.0,0.0,0.0,1.0938,0.9186,0.762,0.0,0.0,0.0,0.0,0.0,0.0,0.0,0.0,0.0,0.0,-0.7153,-0.2339,-0.6074,0.0,0.0,-1.8519,-2.3364,-2.4419,-2.7342,-3.0223,-3.2123,-3.2714,0.0,0.0,0.0,0.0,0.0,0.0,0.0,0.0,0.0,0.0,0.0,0.0,0.0,0.0,0.0,0.0,0.0,0.0,0.0,0.0,0.0,0.0,0.0,0.0,0.0,0.0,0.0,0.0,0.0,0.0,0.0,0.0,0.0,0.0,0.0,0.0,0.0,0.0,0.0,0.0,0.0,0.0,0.0,0.0,0.0,0.0,0.0,0.0,0.0,0.0,0.0,0.0,1.8331,1.7102,1.9504,2.0173,1.9161,1.7648,1.5984,1.4027,1.2577,0.8493,0.0,0.0,0.0,0.0,0.0,0.0,0.0,0.0,0.0,0.0,0.0,0.0,0.0,0.0,0.0,0.0,0.0,0.0,0.0,0.0,0.0,0.0,0.0,0.0,0.0,0.0,0.0,0.0,0.0,0.0,0.0,0.0,0.0,0.0,0.0,0.0,0.0,0.0,0.0,0.0,0.0,-1.0223,-0.2084,-0.2843,-0.579,0.0,-1.8084,-2.2979,-2.0381,-2.276,-2.5881,-2.9234,0.0,0.0,0.0,0.0,0.0,0.0,0.0,0.0,0.0,0.0,0.0,0.0,0.0,0.0,0.0,0.0,0.0,0.0,0.0,0.0,0.0,0.0,0.0,0.0,0.0,0.0,0.0,0.0,0.0,0.0,0.0,0.0,0.0,0.0,0.0,0.0,0.0,0.0,0.0,0.0,0.0,0.0,0.0,0.0,0.0,0.0,0.0,0.0,0.0,0.0,0.0,0.0,0.0,0.0,1.5728,1.8378,1.871,1.6685,1.6775,1.5535,1.2577,1.2201,0.0,0.0,0.0,0.0,0.0,0.0,0.0,0.0,0.0,0.0,0.0,0.0,0.0,0.0,0.0,0.0,0.0,0.0,0.0,0.0,0.0,0.0,0.0,0.0,0.0,0.0,0.0,0.6811,0.0,0.0,0.0,0.0,0.0,0.0,0.0,0.0,0.0,0.0,0.0,0.0,0.0,0.0,-0.8759,-0.1953,-0.2871,-0.5728,0.0,0.0,-2.1044,-2.2857,-2.3613,-2.5334,0.0,0.0,0.0,0.0,0.0,0.0,0.0,0.0,0.0,0.0,0.0,0.0,0.0,0.0,0.0,0.0,0.0,0.0,0.0,0.0,0.0,0.0,0.0,0.0,0.0,0.0,0.0,0.0,0.0,0.0,0.0,0.0,0.0,0.0,0.0,0.0,0.0,0.0,0.0,0.0,0.0,0.0,0.0,0.0,0.0,0.0,0.0,0.0,0.0,0.0,0.0,0.0,0.0,0.0,1.5007,1.447,1.6627,1.7002,1.5568,1.5032,1.3847,1.1667,1.1335,0.8785,0.0,0.0,0.0,0.0,0.0,0.0,0.0,0.0,0.0,0.0,0.0,0.0,0.0,0.0,0.0,0.0,0.0,0.0,0.0,0.0,0.0,0.0,0.0,0.0,0.0,0.0,0.0,0.0,0.0,0.0,0.0,0.0,0.0,0.0,0.0,0.0,0.0,0.0,0.0,0.0,0.0,0.0,-0.1426,-0.1309,0.0,0.0,0.0,-1.9914,-2.0381,0.0,0.0,0.0,0.0,0.0,0.0,0.0,0.0,0.0,0.0,0.0,0.0,0.0,0.0,0.0,0.0,0.0,0.0,0.0,0.0,0.0,0.0,0.0,0.0,0.0,0.0,0.0,0.0,0.0,0.0,0.0,0.0,0.0,0.0,0.0,0.0,0.0,0.0,0.0,0.0,0.0,0.0,0.0,0.0,0.0,0.0,0.0,0.0,0.0,0.0,0.0,0.0,0.0,0.0,0.0,0.0,0.0,1.3648,1.4883,1.5445,1.5156,1.3142,1.1713,1.1173,1.0237,0.7954,0.0,0.0,0.0,0.0,0.0,0.0,0.0,0.0,0.0,0.0,0.0,0.0,0.0,0.0,0.0,0.0,0.0,0.0,0.0,0.0,0.0,0.0,0.0,0.0,0.0,0.0,0.0,0.0,0.0,0.0,0.0,0.0,0.0,0.0,0.0,0.0,0.0,0.0,0.0,0.0,0.0,0.1007,-0.0385,-0.0784,-0.3667,0.0,0.0,-1.9393,-1.65,-1.7933,0.0,0.0,0.0,0.0,0.0,0.0,0.0,0.0,0.0,0.0,0.0,0.0,0.0,0.0,0.0,0.0,0.0,0.0,0.0,0.0,0.0,0.0,0.0,0.0,0.0,0.0,0.0,0.0,0.0,0.0,0.0,0.0,0.0,0.0,0.0,0.0,0.0,0.0,0.0,0.0,0.0,0.0,0.0,0.0,0.0,0.0,0.0,0.0,0.0,0.0,0.0,0.0,0.0,0.0,0.0,0.0,1.4258,1.5046,1.4921,1.3644,1.2565,1.1273,0.9635,0.9648,0.924,0.0,0.0,0.0,0.0,0.0,0.0,0.0,0.0,0.0,0.0,0.0,0.0,0.0,0.0,0.0,0.0,0.0,0.0,0.0,0.0,0.0,0.0,0.0,0.0,0.0,0.0,0.0,0.0,0.0,0.0,0.0,0.0,0.0,0.0,0.0,0.0,0.0,0.0,0.0,0.0,0.0,0.0128,0.126,-1.0042,0.0,0.0,0.0,0.0,-1.9026,-2.0158,0.0,0.0,0.0,0.0,0.0,0.0,0.0,0.0,0.0,0.0,0.0,0.0,0.0,0.0,0.0,0.0,0.0,0.0,0.0,0.0,0.0,0.0,0.0,0.0,0.0,0.0,0.0,0.0,0.0,0.0,0.0,0.0,0.0,0.0,0.0,0.0,0.0,0.0,0.0,0.0,0.0,0.0,0.0,0.0,0.0,0.0,0.0,0.0,0.0,0.0,0.0,0.0,0.0,0.0,0.0,0.0,1.4543,1.3992,1.359,1.3228,1.1694,1.0402,0.9213,0.9395,0.9406,0.0,0.0,0.0,0.0,0.0,0.0,0.0,0.0,0.0,0.0,0.0,0.0,0.0,0.0,0.0,0.0,0.0,0.0,0.0,0.0,0.0,0.0,0.0,0.0,0.0,0.0,0.0,0.0,0.0,0.0,0.0,0.0,0.0,0.0,0.0,0.0,0.0,0.0,0.0,0.0,-0.1755,-0.2022,-0.454,0.0,0.0,0.0,0.0,0.0,0.0,-1.9077,-2.0677,0.0,0.0,0.0,0.0,0.0,0.0,0.0,0.0,0.0,0.0,0.0,0.0,0.0,0.0,0.0,0.0,0.0,0.0,0.0,0.0,0.0,0.0,0.0,0.0,0.0,0.0,0.0,0.0,0.0,0.0,0.0,0.0,0.0,0.0,0.0,0.0,0.0,0.0,0.0,0.0,0.0,0.0,0.0,0.0,0.0,0.0,0.0,0.0,0.0,0.0,0.0,0.0,0.0,0.0,0.0,1.4859,1.2703,1.2054,1.3221,1.0924,0.9484,0.9213,0.9236,0.9235,0.8875,0.0,0.0,0.0,0.0,0.0,0.0,0.0,0.0,0.0,0.0,0.0,0.0,0.0,0.0,0.0,0.0,0.0,0.0,0.0,0.0,0.0,0.0,0.0,0.0,0.0,0.0,0.0,0.0,0.0,0.0,0.0,0.0,0.0,0.0,0.0,0.0,0.0,0.0,0.0,-0.2752,-0.3951,0.0,0.0,0.0,0.0,0.0,0.0,0.0,0.0,-1.8595,0.0,0.0,0.0,0.0,0.0,0.0,0.0,0.0,0.0,0.0,0.0,0.0,0.0,0.0,0.0,0.0,0.0,0.0,0.0,0.0,0.0,0.0,0.0,0.0,0.0,0.0,0.0,0.0,0.0,0.0,0.0,0.0,0.0,0.0,0.0,0.0,0.0,0.0,0.0,0.0,0.0,0.0,0.0,0.0,0.0,0.0,0.0,0.0,0.0,0.0,0.0,0.0,0.0,0.0,0.0,0.0,1.2072,1.1648,1.3074,1.0741,0.9321,0.9197,0.9218,0.8929,0.8455,0.0,0.0,0.0,0.0,0.0,0.0,0.0,0.0,0.0,0.0,0.0,0.0,0.0,0.0,0.0,0.0,0.0,0.0,0.0,0.0,0.0,0.0,0.0,0.0,0.0,0.0,0.0,0.0,0.0,0.0,0.0,0.0,0.0,0.0,0.0,0.0,0.0,0.0,-0.4124,-0.3752,0.0,0.0,0.0,0.0,0.0,0.0,0.0,0.0,-1.7252,0.0,0.0,0.0,0.0,0.0,0.0,0.0,0.0,0.0,0.0,0.0,0.0,0.0,0.0,0.0,0.0,0.0,0.0,0.0,0.0,0.0,0.0,0.0,0.0,0.0,0.0,0.0,0.0,0.0,0.0,0.0,0.0,0.0,0.0,0.0,0.0,0.0,0.0,0.0,0.0,0.0,0.0,0.0,0.0,0.0,0.0,0.0,0.0,0.0,0.0,0.0,0.0,0.0,0.0,0.0,0.0,0.0,0.0,1.2406,1.2958,1.1471,1.0072,0.9004,0.8745,0.8629,0.0,0.0,0.0,0.0,0.0,0.0,0.0,0.0,0.0,0.0,0.0,0.0,0.0,0.0,0.0,0.0,0.0,0.0,0.0,0.0,0.0,0.0,0.0,0.0,0.0,0.0,0.0,0.0,0.0,0.0,0.0,0.0,0.0,0.0,0.0,0.0,0.0,0.0,0.0,0.0,0.0,0.0,0.0,0.0,0.0,0.0,0.0,0.0,0.0,0.0,0.0,0.0,0.0,0.0,0.0,0.0,0.0,0.0,0.0,0.0,0.0,0.0,0.0,0.0,0.0,0.0,0.0,0.0,0.0,0.0,0.0,0.0,0.0,0.0,0.0,0.0,0.0,0.0,0.0,0.0,0.0,0.0,0.0,0.0,0.0,0.0,0.0,0.0,0.0,0.0,0.0,0.0,0.0,0.0,0.0,0.0,0.0,0.0,0.0,0.0,0.0,0.0,0.0,0.0,0.0,0.0,0.0,0.0,1.2745,1.2844,1.197,1.0728,0.8832,0.8422,0.8449,0.0,0.0,0.0,0.0,0.0,0.0,0.0,0.0,0.0,0.0,0.0,0.0,0.0,0.0,0.0,0.0,0.0,0.0,0.0,0.0,0.0,0.0,0.0,0.0,0.0,0.0,0.0,0.0,0.0,0.0,0.0,0.0,0.0,0.0,0.0,0.0,0.0,0.0,0.0,0.0,0.0,0.0,0.0,0.0,0.0,0.0,0.0,0.0,-1.4243,0.0,0.0,0.0,0.0,0.0,0.0,0.0,0.0,0.0,0.0,0.0,0.0,0.0,0.0,0.0,0.0,0.0,0.0,0.0,0.0,0.0,0.0,0.0,0.0,0.0,0.0,0.0,0.0,0.0,0.0,0.0,0.0,0.0,0.0,0.0,0.0,0.0,0.0,0.0,0.0,0.0,0.0,0.0,0.0,0.0,0.0,0.0,0.0,0.0,0.0,0.0,0.0,0.0,0.0,0.0,0.0,0.0,0.0,0.0,1.1373,1.2687,1.143,1.0217,0.8811,0.8269,0.8935,0.0,0.0,0.0,0.0,0.0,0.0,0.0,0.0,0.0,0.0,0.0,0.0,0.0,0.0,0.0,0.0,0.0,0.0,0.0,0.0,0.0,0.0,0.0,0.0,0.0,0.0,0.0,0.0,0.0,0.0,0.0,0.0,0.0,0.0,0.0,0.0,0.0,0.0,0.0,0.0,0.0,0.0,0.0,0.0,0.0,0.0,0.0,0.0,0.0,0.0,0.0,0.0,0.0,0.0,0.0,0.0,0.0,0.0,0.0,0.0,0.0,0.0,0.0,0.0,0.0,0.0,0.0,0.0,0.0,0.0,0.0,0.0,0.0,0.0,0.0,0.0,0.0,0.0,0.0,0.0,0.0,0.0,0.0,0.0,0.0,0.0,0.0,0.0,0.0,0.0,0.0,0.0,0.0,0.0,0.0,0.0,0.0,0.0,0.0,0.0,0.0,0.0,0.0,0.0,0.0,0.0,0.0,0.0,1.1479,1.2069,1.1808,1.1274,1.0458,0.932,0.9316,0.0,0.0,0.0,0.0,0.0,0.0,0.0,0.0,0.0,0.0,0.0,0.0,0.0,0.0,0.0,0.0,0.0,0.0,0.0,0.0,0.0,0.0,0.0,0.0,0.0,0.0,0.0,0.0,0.0,0.0,0.0,0.0,0.0,0.0,0.0,0.0,0.0,0.0,0.0,0.0,0.0,0.0,0.0,0.0,0.0,0.0,0.0,0.0,0.0,0.0,0.0,0.0,0.0,0.0,0.0,0.0,0.0,0.0,0.0,0.0,0.0,0.0,0.0,0.0,0.0,0.0,0.0,0.0,0.0,0.0,0.0,0.0,0.0,0.0,0.0,0.0,0.0,0.0,0.0,0.0,0.0,0.0,0.0,0.0,0.0,0.0,0.0,0.0,0.0,0.0,0.0,0.0,0.0,0.0,0.0,0.0,0.0,0.0,0.0,0.0,0.0,0.0,0.0,0.0,0.0,0.0,0.0,0.0,0.0,1.1675,1.2229,1.2278,1.1906,1.0115,0.9302,0.0,0.0,0.0,0.0,0.0,0.0,0.0,0.0,0.0,0.0,0.0,0.0,0.0,0.0,0.0,0.0,0.0,0.0,0.0,0.0,0.0,0.0,0.0,0.0,0.0,0.0,0.0,0.0,0.0,0.0,0.0,0.0,0.0,0.0,0.0,0.0,0.0,0.0,0.0,0.0,0.0,0.0,0.0,0.0,0.0,0.0,0.0,0.0,0.0,0.0,0.0,0.0,0.0,0.0,0.0,0.0,0.0,0.0,0.0,0.0,0.0,0.0,0.0,0.0,0.0,0.0,0.0,0.0,0.0,0.0,0.0,0.0,0.0,0.0,0.0,0.0,0.0,0.0,0.0,0.0,0.0,0.0,0.0,0.0,0.0,0.0,0.0,0.0,0.0,0.0,0.0,0.0,0.0,0.0,0.0,0.0,0.0,0.0,0.0,0.0,0.0,0.0,0.0,0.0,0.0,0.0,0.0,0.0,0.0,1.2002,1.2337,1.2449,1.2319,1.016,0.8547,0.0,0.0,0.0,0.0,0.0,0.0,0.0,0.0,0.0,0.0,0.0,0.0,0.0,0.0,0.0,0.0,0.0,0.0,0.0,0.0,0.0,0.0,0.0,0.0,0.0,0.0,0.0,0.0,0.0,0.0,0.0,0.0,0.0,0.0,0.0,0.0,0.0,0.0,0.0,0.0,0.0,0.0,0.0,0.0,0.0,0.0,0.0,0.0,0.0,0.0,0.0,0.0,0.0,0.0,0.0,0.0,0.0,0.0,0.0,0.0,0.0,0.0,0.0,0.0,0.0,0.0,0.0,0.0,0.0,0.0,0.0,0.0,0.0,0.0,0.0,0.0,0.0,0.0,0.0,0.0,0.0,0.0,0.0,0.0,0.0,0.0,0.0,0.0,0.0,0.0,0.0,0.0,0.0,0.0,0.0,0.0,0.0,0.0,0.0,0.0,0.0,0.0,0.0,0.0,0.0,0.0,0.0,0.0,0.0,1.0417,1.1697,1.2573,1.2666,1.0221,0.923,0.96,0.0,0.0,0.0,0.0,0.0,0.0,0.0,0.0,0.0,0.0,0.0,0.0,0.0,0.0,0.0,0.0,0.0,0.0,0.0,0.0,0.0,0.0,0.0,0.0,0.0,0.0,0.0,0.0,0.0,0.0,0.0,0.0,0.0,0.0,0.0,0.0,0.0,0.0,0.0,0.0,0.0,0.0,0.0,0.0,0.0,0.0,0.0,0.0,0.0,0.0,0.0,0.0,0.0,0.0,0.0,0.0,0.0,0.0,0.0,0.0,0.0,0.0,0.0,0.0,0.0,0.0,0.0,0.0,0.0,0.0,0.0,0.0,0.0,0.0,0.0,0.0,0.0,0.0,0.0,0.0,0.0,0.0,0.0,0.0,0.0,0.0,0.0,0.0,0.0,0.0,0.0,0.0,0.0,0.0,0.0,0.0,0.0,0.0,0.0,0.0,0.0,0.0,0.0,0.0,0.0,0.0,0.0,0.0,1.0264,1.1615,1.2342,1.2111,1.0091,0.9264,0.0,0.0,0.0,0.0,0.0,0.0,0.0,0.0,0.0,0.0,0.0,0.0,0.0,0.0,0.0,0.0,0.0,0.0,0.0,0.0,0.0,0.0,0.0,0.0,0.0,0.0,0.0,0.0,0.0,0.0,0.0,0.0,0.0,0.0,0.0,0.0,0.0,0.0,0.0,0.0,0.0,0.0,0.0,0.0,0.0,0.0,0.0,0.0,0.0,0.0,0.0,0.0,0.0,0.0,0.0,0.0,0.0,0.0,0.0,0.0,0.0,0.0,0.0,0.0,0.0,0.0,0.0,0.0,0.0,0.0,0.0,0.0,0.0,0.0,0.0,0.0,0.0,0.0,0.0,0.0,0.0,0.0,0.0,0.0,0.0,0.0,0.0,0.0,0.0,0.0,0.0,0.0,0.0,0.0,0.0,0.0,0.0,0.0,0.0,0.0,0.0,0.0,0.0,0.0,0.0,0.0,0.0,0.0,1.1581,1.1963,1.2254,1.1914,1.0805,0.9825,0.8541,0.0,0.0,0.0,0.0,0.0,0.0,0.0,0.0,0.0,0.0,0.0,0.0,0.0,0.0,0.0,0.0,0.0,0.0,0.0,0.0,0.0,0.0,0.0,0.0,0.0,0.0,0.0,0.0,0.0,0.0,0.0,0.0,0.0,0.0,0.0,0.0,0.0,0.0,0.0,0.0,0.0,0.0,0.0,0.0,0.0,0.0,0.0,0.0,0.0,0.0,0.0,0.0,0.0,0.0,0.0,0.0,0.0,0.0,0.0,0.0,0.0,0.0,0.0,0.0,0.0,0.0,0.0,0.0,0.0,0.0,0.0,0.0,0.0,0.0,0.0,0.0,0.0,0.0,0.0,0.0,0.0,0.0,0.0,0.0,0.0,0.0,0.0,0.0,0.0,0.0,0.0,0.0,0.0,0.0,0.0,0.0,0.0,0.0,0.0,0.0,0.0,0.0,0.0,0.0,0.0,0.0,0.0,0.0,0.0,1.0904,0.0,1.1342,0.0,0.9272,0.8036,0.0,0.0,0.0,0.0,0.0,0.0,0.0,0.0,0.0,0.0,0.0,0.0,0.0,0.0,0.0,0.0,0.0,0.0,0.0,0.0,0.0,0.0,0.0,0.0,0.0,0.0,0.0,0.0,0.0,0.0,0.0,0.0,0.0,0.0,0.0,0.0,0.0,0.0,0.0,0.0,0.0,0.0,0.0,0.0,0.0,0.0,0.0,0.0,0.0,0.0,0.0,0.0,0.0,0.0,0.0,0.0,0.0,0.0,0.0,0.0,0.0,0.0,0.0,0.0,0.0,0.0,0.0,0.0,0.0,0.0,0.0,0.0,0.0,0.0,0.0,0.0,0.0,0.0,0.0,0.0,0.0,0.0,0.0,0.0,0.0,0.0,0.0,0.0,0.0,0.0,0.0,0.0,0.0,0.0,0.0,0.0,0.0,0.0,0.0,0.0,0.0,0.0,0.0,0.0,0.0,0.0,0.0,0.0,0.0,1.0372,1.0919,1.1141,1.0869,0.9207,0.7984,0.0,0.0,0.0,0.0,0.0,0.0,0.0,0.0,0.0,0.0,0.0,0.0,0.0,0.0,0.0,0.0,0.0,0.0,0.0,0.0,0.0,0.0,0.0,0.0,0.0,0.0,0.0,0.0,0.0,0.0,0.0,0.0,0.0,0.0,0.0,0.0,0.0,0.0,0.0,0.0,0.0,0.0,0.0,0.0,0.0,0.0,0.0,0.0,0.0,0.0,0.0,0.0,0.0,0.0,0.0,0.0,0.0,0.0,0.0,0.0,0.0,0.0,0.0,0.0,0.0,0.0,0.0,0.0,0.0,0.0,0.0,0.0,0.0,0.0,0.0,0.0,0.0,0.0,0.0,0.0,0.0,0.0,0.0,0.0,0.0,0.0,0.0,0.0,0.0,0.0,0.0,0.0,0.0,0.0,0.0,0.0,0.0,0.0,0.0,0.0,0.0,0.0,0.0,0.0,0.0,0.0,0.0,0.0,0.0,0.0,1.1371,1.0945,0.9032,0.9343,0.855,0.0,0.0,0.0,0.0,0.0,0.0,0.0,0.0,0.0,0.0,0.0,0.0,0.0,0.0,0.0,0.0,0.0,0.0,0.0,0.0,0.0,0.0,0.0,0.0,0.0,0.0,0.0,0.0,0.0,0.0,0.0,0.0,0.0,0.0,0.0,0.0,0.0,0.0,0.0,0.0,0.0,0.0,0.0,0.0,0.0,0.0,0.0,0.0,0.0,0.0,0.0,0.0,0.0,0.0,0.0,0.0,0.0,0.0,0.0,0.0,0.0,0.0,0.0,0.0,0.0,0.0,0.0,0.0,0.0,0.0,0.0,0.0,0.0,0.0,0.0,0.0,0.0,0.0,0.0,0.0,0.0,0.0,0.0,0.0,0.0,0.0,0.0,0.0,0.0,0.0,0.0,0.0,0.0,0.0,0.0,0.0,0.0,0.0,0.0,0.0,0.0,0.0,0.0,0.0,0.0,0.0,0.0,0.0,0.0,0.0,1.0542,1.0438,0.9869,0.8271,0.7161,0.6525,0.0,0.0,0.0,0.0,0.0,0.0,0.0,0.0,0.0,0.0,0.0,0.0,0.0,0.0,0.0,0.0,0.0,0.0,0.0,0.0,0.0,0.0,0.0,0.0,0.0,0.0,0.0,0.0,0.0,0.0,0.0,0.0,0.0,0.0,0.0,0.0,0.0,0.0,0.0,0.0,0.0,0.0,0.0,0.0,0.0,0.0,0.0,0.0,0.0,0.0,0.0,0.0,0.0,0.0,0.0,0.0,0.0,0.0,0.0,0.0,0.0,0.0,0.0,0.0,0.0,0.0,0.0,0.0,0.0,0.0,0.0,0.0,0.0,0.0,0.0,0.0,0.0,0.0,0.0,0.0,0.0,0.0,0.0,0.0,0.0,0.0,0.0,0.0,0.0,0.0,0.0,0.0,0.0,0.0,0.0,0.0,0.0,0.0,0.0,0.0,0.0,0.0,0.0,0.0,0.0,0.0,0.0,0.0,0.0,0.0,1.0244,1.0273,0.8498,0.718,0.0,0.0,0.0,0.0,0.0,0.0,0.0,0.0,0.0,0.0,0.0,0.0,0.0,0.0,0.0,0.0,0.0,0.0,0.0,0.0,0.0,0.0,0.0,0.0,0.0,0.0,0.0,0.0,0.0,0.0,0.0,0.0,0.0,0.0,0.0,0.0,0.0,0.0,0.0,0.0,0.0,0.0,0.0,0.0,0.0,0.0,0.0,0.0,0.0,0.0,0.0,0.0,0.0,0.0,0.0,0.0,0.0,0.0,0.0,0.0,0.0,0.0,0.0,0.0,0.0,0.0,0.0,0.0,0.0,0.0,0.0,0.0,0.0,0.0,0.0,0.0,0.0,0.0,0.0,0.0,0.0,0.0,0.0,0.0,0.0,0.0,0.0,0.0,0.0,0.0,0.0,0.0,0.0,0.0,0.0,0.0,0.0,0.0,0.0,0.0,0.0,0.0,0.0,0.0,0.0,0.0,0.0,0.0,0.0,0.0,0.0,1.0266,1.0471,0.9412,0.0,0.6543,0.0,0.0,0.0,0.0,0.0,0.0,0.0,0.0,0.0,0.0,0.0,0.0,0.0,0.0,0.0,0.0,0.0,0.0,0.0,0.0,0.0,0.0,0.0,0.0,0.0,0.0,0.0,0.0,0.0,0.0,0.0,0.0,0.0,0.0,0.0,0.0,0.0,0.0,0.0,0.0,0.0,0.0,0.0,0.0,0.0,0.0,0.0,0.0,0.0,0.0,0.0,0.0,0.0,0.0,0.0,0.0,0.0,0.0,0.0,0.0,0.0,0.0,0.0,0.0,0.0,0.0,0.0,0.0,0.0,0.0,0.0,0.0,0.0,0.0,0.0,0.0,0.0,0.0,0.0,0.0,0.0,0.0,0.0,0.0,0.0,0.0,0.0,0.0,0.0,0.0,0.0,0.0,0.0,0.0,0.0,0.0,0.0,0.0,0.0,0.0,0.0,0.0,0.0,0.0,0.0,0.0,0.0,0.0,0.0,0.0,0.0,0.0,1.0577,0.9338,0.7947,0.0,0.0,0.0,0.0,0.0,0.0,0.0,0.0,0.0,0.0,0.0,0.0,0.0,0.0,0.0,0.0,0.0,0.0,0.0,0.0,0.0,0.0,0.0,0.0,0.0,0.0,0.0,0.0,0.0,0.0,0.0,0.0,0.0,0.0,0.0,0.0,0.0,0.0,0.0,0.0,0.0,0.0,0.0,0.0,0.0,0.0,0.0,0.0,0.0,0.0,0.0,0.0,0.0,0.0,0.0,0.0,0.0,0.0,0.0,0.0,0.0,0.0,0.0,0.0,0.0,0.0,0.0,0.0,0.0,0.0,0.0,0.0,0.0,0.0,0.0,0.0,0.0,0.0,0.0,0.0,0.0,0.0,0.0,0.0,0.0,0.0,0.0,0.0,0.0,0.0,0.0,0.0,0.0,0.0,0.0,0.0,0.0,0.0,0.0,0.0,0.0,0.0,0.0,0.0,0.0,0.0,0.0,0.0,0.0,0.0,0.9519,0.9732,1.0585,1.0074,0.7811,0.0,0.0,0.0,0.0,0.0,0.0,0.0,0.0,0.0,0.0,0.0,0.0,0.0,0.0,0.0,0.0,0.0,0.0,0.0,0.0,0.0,0.0,0.0,0.0,0.0,0.0,0.0,0.0,0.0,0.0,0.0,0.0,0.0,0.0,0.0,0.0,0.0,0.0,0.0,0.0,0.0,0.0,0.0,0.0,0.0,0.0,0.0,0.0,0.0,0.0,0.0,0.0,0.0,0.0,0.0,0.0,0.0,0.0,0.0,0.0,0.0,0.0,0.0,0.0,0.0,0.0,0.0,0.0,0.0,0.0,0.0,0.0,0.0,0.0,0.0,0.0,0.0,0.0,0.0,0.0,0.0,0.0,0.0,0.0,0.0,0.0,0.0,0.0,0.0,0.0,0.0,0.0,0.0,0.0,0.0,0.0,0.0,0.0,0.0,0.0,0.0,0.0,0.0,0.0,0.0,0.0,0.0,0.0,0.0,0.0,0.9305,0.0,0.0,0.0,0.7601,0.0,0.0,0.0,0.0,0.0,0.0,0.0,0.0,0.0,0.0,0.0,0.0,0.0,0.0,0.0,0.0,0.0,0.0,0.0,0.0,0.0,0.0,0.0,0.0,0.0,0.0,0.0,0.0,0.0,0.0,0.0,0.0,0.0,0.0,0.0,0.0,0.0,0.0,0.0,0.0,0.0,0.0,0.0,0.0,0.0,0.0,0.0,0.0,0.0,0.0,0.0,0.0,0.0,0.0,0.0,0.0,0.0,0.0,0.0,0.0,0.0,0.0,0.0,0.0,0.0,0.0,0.0,0.0,0.0,0.0,0.0,0.0,0.0,0.0,0.0,0.0,0.0,0.0,0.0,0.0,0.0,0.0,0.0,0.0,0.0,0.0,0.0,0.0,0.0,0.0,0.0,0.0,0.0,0.0,0.0,0.0,0.0,0.0,0.0,0.0,0.0,0.0,0.0,0.0,0.0,0.0,0.0,0.0,0.0,0.0,0.0,0.0,0.0,0.0,0.0,0.0,0.0,0.0,0.0,0.0,0.0,0.0,0.0,0.0,0.0,0.0,0.0,0.0,0.0,0.0,0.0,0.0,0.0,0.0,0.0,0.0,0.0,0.0,0.0,0.0,0.0,0.0,0.0,0.0,0.0,0.0,0.0,0.0,0.0,0.0,0.0,0.0,0.0,0.0,0.0,0.0,0.0,0.0,0.0,0.0,0.0,0.0,0.0,0.0,0.0,0.0,0.0,0.0,0.0,0.0,0.0,0.0,0.0,0.0,0.0,0.0,0.0,0.0,0.0,0.0,0.0,0.0,0.0,0.0,0.0,0.0,0.0,0.0,0.0,0.0,0.0,0.0,0.0,0.0,0.0,0.0,0.0,0.0,0.0,0.0,0.0,0.0,0.0,0.0,0.0,0.0,0.0,0.0,0.0,0.0,0.0,0.0,0.0,0.0,0.0,0.0,0.0,0.0,0.0,0.0,0.0,0.0,0.0,0.0,0.0,0.0,0.0,0.0,0.0,0.0,0.0,0.0,0.0,0.0,0.0,0.0,0.0,0.0,0.0,0.0,0.0,0.0,0.0,0.0,0.0,0.0,0.0,0.0,0.0,0.0,0.0,0.0,0.0,0.0,0.0,0.0,0.0,0.0,0.0,0.0,0.0,0.0,0.0,0.0,0.0,0.0,0.0,0.0,0.0,0.0,0.0,0.0,0.0,0.0,0.0,0.0,0.0,0.0,0.0,0.0,0.0,0.0,0.0,0.0,0.0,0.0,0.0,0.0,0.0,0.0,0.0,0.0,0.0,0.0,0.0,0.0,0.0,0.0,0.0,0.0,0.0,0.0,0.0,0.0,0.0,0.0,0.0,0.0,0.0,0.0,0.0,0.0,0.0,0.0,0.0,0.0,0.0,0.0,0.0,0.0,0.0,0.0,0.0,0.0,0.0,0.0,0.0,0.0,0.0,0.0,0.0,0.0,0.0,0.0,0.0,0.0,0.0,0.0,0.0,0.0,0.0,0.0,0.0,0.0,0.0,0.0,0.0,0.0,0.0,0.0,0.0,0.0,0.0,0.0,0.0,0.0,0.0,0.0,0.0,0.0,0.0,0.0,0.0,0.0,0.0,0.0,0.0,0.0,0.0,0.0,0.0,0.0,0.0,0.0,0.0,0.0,0.0,0.0,0.0,0.0,0.0,0.0,0.0,0.0,0.0,0.0,0.0,0.0,0.0,0.0,0.0,0.0,0.0,0.0,0.0,0.0,0.0,0.0,0.0,0.0,0.0,0.0,0.0,0.0,0.0,0.0,0.0,0.0,0.0,0.0,0.0,0.0,0.0,0.0,0.0,0.0,0.0,0.0,0.0,0.0,0.0,0.0,0.0,0.0,0.0,0.0,0.0,0.0,0.0,0.0,0.0,0.0,0.0,0.0,0.0,0.0,0.0,0.0,0.0,0.0,0.0,0.0,0.0,0.0,0.0,0.0,0.0,0.0,0.0,0.0,0.0,0.0,0.0,0.0,0.0,0.0,0.0,0.0,0.0,0.0,0.0,0.0,0.0,0.0,0.0,0.0,0.0,0.0,0.0,0.0,0.0,0.0,0.0,0.0,0.0,0.0,0.0,0.0,0.0,0.0,0.0,0.0,0.0,0.0,0.0,0.0,0.0,0.0,0.0,0.0,0.0,0.0,0.0,0.0,0.0,0.0,0.0,0.0,0.0,0.0,0.0,0.0,0.0,0.0,0.0,0.0,0.0,0.0,0.0,0.0,0.0,0.0,0.0,0.0,0.0,0.0,0.0,0.0,0.0,0.0,0.0,0.0,0.0,0.0,0.0,0.0,0.0,0.0,0.0,0.0,0.0,0.0,0.0,0.0,0.0,0.0,0.0,0.0,0.0,0.0,0.0,0.0,0.0,0.0,0.0,0.0,0.0,0.0,0.0,0.0,0.0,0.0,0.0,0.0,0.0,0.0,0.0,0.0,0.0,0.0,0.0,0.0,0.0,0.0,0.0,0.0,0.0,0.0,0.0,0.0,0.0,0.0,0.0,0.0,0.0,0.0,0.0,0.0,0.0,0.0,0.0,0.0,0.0,0.0,0.0,0.0,0.0,0.0,0.0,0.0,0.0,0.0,0.0,0.0,0.0,0.0,0.0,0.0,0.0,0.0,0.0,0.0,0.0,0.0,0.0,0.0,0.0,0.0,0.0,0.0,0.0,0.0,0.0,0.0,0.0,0.0,0.0,0.0,0.0,0.0,0.0,0.0,0.0,0.0,0.0,0.0,0.0,0.0,0.0,0.0,0.0,0.0,0.0,0.0,0.0,0.0,0.0,0.0,0.0,0.0,0.0,0.0,0.0,0.0,0.0,0.0,0.0,0.0,0.0,0.0,0.0,0.0,0.0,0.0,0.0,0.0,0.0,0.0,0.0,0.0,0.0,0.0,0.0,0.0,0.0,0.0,0.0,0.0,0.0,0.0,0.0,0.0,0.0,0.0,0.0,0.0,0.0,0.0,0.0,0.0,0.0,0.0,0.0,0.0,0.0,0.0,0.0,0.0,0.0,0.0,0.0,0.0,0.0,0.0,0.0,0.0,0.0,0.0,0.0,0.0,0.0,0.0,0.0,0.0,0.0,0.0,0.0,0.0,0.0,0.0,0.0,0.0,0.0,0.0,0.0,0.0,0.0,0.0,0.0,0.0,0.0,0.0,0.0,0.0,0.0,0.0,0.0,0.0,0.0,0.0,0.0,0.0,0.0,0.0,0.0,0.0,0.0,0.0,0.0,0.0,0.0,0.0,0.0,0.0,0.0,0.0,0.0,0.0,0.0,0.0,0.0,0.0,0.0,0.0,0.0,0.0,0.0,0.0,0.0,0.0,0.0,0.0,0.0,0.0,0.0,0.0,0.0,0.0,0.0,0.0,0.0,0.0,0.0,0.0,0.0,0.0,0.0,0.0,0.0,0.0,0.0,0.0,0.0,0.0,0.0,0.0,0.0,0.0,0.0,0.0,0.0,0.0,0.0,0.0,0.0,0.0,0.0,0.0,0.0,0.0,0.0,0.0,0.0,0.0,0.0,0.0,0.0,0.0,0.0,0.0,0.0,0.0,0.0,0.0,0.0,0.0,0.0,0.0,0.0,0.0,0.0,0.0,0.0,0.0,0.0,0.0,0.0,0.0,0.0,0.0,0.0,0.0,0.0,0.0,0.0,0.0,0.0,0.0,0.0,0.0,0.0,0.0,0.0,0.0,0.0,0.0,0.0,0.0,0.0,0.0,0.0,0.0,0.0,0.0,0.0,0.0,0.0,0.0,0.0,0.0,0.0,0.0,0.0,0.0,0.0,0.0,0.0,0.0,0.0,0.0,0.0,0.0,0.0,0.0,0.0,0.0,0.0,0.0,0.0,0.0,0.0,0.0,0.0,0.0,0.0,0.0,0.0,0.0,0.0,0.0,0.0,0.0,0.0,0.0,0.0,0.0,0.0,0.0,0.0,0.0,0.0,0.0,0.0,0.0,0.0,0.0,0.0,0.0,0.0,0.0,0.0,0.0,0.0,0.0,0.0,0.0,0.0,0.0,0.0,0.0,0.0,0.0,0.0,0.0,0.0,0.0,0.0,0.0,0.0,0.0,0.0,0.0,0.0,0.0,0.0,0.0,0.0,0.0,0.0,0.0,0.0,0.0,0.0,0.0,0.0,0.0,0.0,0.0,0.0,0.0,0.0,0.0,0.0,0.0,0.0,0.0,0.0,0.0,0.0,0.0,0.0,0.0,0.0,0.0,0.0,0.0,0.0,0.0,0.0,0.0,0.0,0.0,0.0,0.0,0.0,0.0,0.0,0.0,0.0,0.0,0.0,0.0,0.0,0.0,0.0,0.0,0.0,0.0]}]]]